GFSSGP_sfc_thetae_000.txt.gz
Theta_e
317 316 319 315 305 307 303 304 313 315 316 323 323 319 320 324 318 314 337 337 336 342 347 347 348 350 350 350 350 349 349 348 347 347 345 344 345 344 344 341 339 338 338 338 339 341 339 343 343
317 312 314 312 303 299 301 309 309 316 321 324 323 322 319 318 329 332 333 336 337 341 346 347 347 349 351 350 350 347 348 348 348 347 345 345 344 345 342 339 338 339 338 340 341 340 342 340 339
314 312 310 308 306 300 301 308 316 319 322 322 320 325 323 320 328 330 336 333 336 339 343 347 346 347 350 350 350 349 348 348 347 347 346 345 343 341 339 338 338 337 338 339 340 341 341 339 338
313 311 312 304 301 305 308 313 317 318 322 323 319 317 327 334 330 335 336 334 333 335 340 344 345 346 347 347 347 348 347 347 346 345 345 344 342 338 336 336 336 336 337 337 337 335 334 334 337
313 310 305 303 303 308 313 317 319 315 318 320 320 316 321 334 340 337 336 334 331 333 337 338 343 344 345 345 344 344 344 344 344 343 343 342 340 339 336 335 335 335 334 334 335 336 336 336 335
308 312 303 300 303 309 313 318 315 312 316 318 317 317 321 336 335 335 337 334 332 332 337 338 342 343 343 343 342 341 341 341 340 341 341 340 338 337 335 333 332 331 330 330 330 331 331 332 332
307 307 302 302 301 304 307 313 311 311 312 312 319 311 323 332 335 336 334 333 332 332 335 337 338 339 339 339 339 340 341 339 338 338 338 337 336 334 333 332 331 330 329 329 328 328 328 328 328
309 306 300 301 299 299 303 305 309 309 309 321 321 310 315 329 337 337 334 332 332 334 334 337 339 338 339 339 336 337 338 338 336 335 334 334 334 332 330 328 329 328 328 327 326 325 324 325 326
307 300 297 298 299 300 304 303 306 311 312 314 317 317 324 334 337 336 332 330 332 334 337 338 337 338 339 338 336 334 335 336 336 336 333 332 339 337 332 328 327 327 326 325 324 322 320 319 322
306 302 299 302 303 303 304 304 305 306 306 307 312 320 330 335 335 333 331 329 331 333 337 339 340 339 339 335 339 339 338 341 342 340 340 338 338 338 333 332 328 326 325 323 322 323 323 323 325
305 301 303 302 304 305 304 303 305 304 303 307 308 316 329 332 333 332 331 329 332 335 337 339 341 341 338 336 339 337 337 338 340 341 341 339 338 337 336 335 333 333 328 330 328 329 327 327 326
302 304 304 304 305 305 304 306 304 305 305 309 312 318 326 329 328 327 327 328 330 334 336 339 340 341 341 337 336 338 335 336 335 337 340 338 336 335 334 331 330 330 330 330 329 328 328 323 320
304 305 307 306 305 306 306 304 305 306 309 309 313 320 323 324 325 327 327 327 329 333 338 341 342 341 339 340 338 338 337 334 335 335 335 337 334 332 331 329 327 327 328 327 327 326 322 316 314
306 307 306 306 306 306 304 305 306 307 309 309 310 316 322 323 323 325 327 328 331 334 337 342 342 341 336 335 338 336 336 332 333 331 331 334 334 330 327 324 323 323 323 325 325 323 319 316 315
306 303 306 305 305 305 305 303 303 307 308 307 308 311 319 322 323 323 325 328 330 332 335 340 340 335 334 331 332 332 330 328 327 326 329 329 330 327 326 323 322 323 324 326 326 324 320 317 314
303 303 299 304 305 306 307 300 306 309 308 308 309 309 314 321 323 324 326 328 332 332 334 337 333 329 329 330 331 330 329 329 326 327 326 327 327 327 326 323 322 323 324 323 322 322 319 317 314
301 297 297 300 305 305 304 301 307 308 306 308 309 310 309 317 323 327 330 330 329 329 332 334 332 323 324 328 329 329 329 326 324 324 322 323 324 325 324 322 322 324 322 321 321 320 319 316 314
296 296 298 297 302 304 302 302 304 306 305 307 309 309 308 313 321 321 320 321 323 327 332 332 326 324 327 329 327 324 322 323 321 320 319 319 319 320 321 321 322 323 322 320 319 320 319 317 315
299 297 296 299 302 302 301 301 303 306 307 307 308 307 309 313 315 316 316 318 322 328 329 328 325 320 322 321 317 317 316 317 318 318 318 319 318 318 318 318 319 320 319 320 321 319 318 317 316
298 297 296 300 301 302 302 301 303 305 305 307 308 308 309 311 312 313 316 318 319 322 323 319 317 317 316 318 317 317 316 316 317 317 317 317 315 315 314 315 315 316 315 317 318 318 316 317 317
298 296 297 297 301 303 301 300 301 303 306 307 308 309 310 310 310 312 314 316 318 317 317 316 316 316 316 316 315 316 317 315 313 313 312 312 313 312 313 313 314 314 314 312 314 315 314 311 315
296 300 300 298 298 296 301 294 299 300 302 304 306 308 309 309 310 311 311 313 314 316 317 316 315 314 313 314 313 312 310 309 310 311 311 311 311 311 311 311 312 312 312 311 311 310 311 311 309
298 302 299 299 298 298 298 295 298 301 299 301 304 306 308 309 310 310 311 312 313 315 315 315 314 314 313 312 312 311 311 310 311 310 309 308 309 310 309 310 310 310 310 310 310 310 310 310 309
303 299 300 300 300 293 295 295 296 299 298 301 304 306 308 309 308 310 312 312 313 315 315 314 313 311 312 312 311 310 310 310 308 307 306 306 306 307 308 308 309 309 308 307 307 307 306 306 305
303 298 294 292 292 291 295 294 296 299 301 302 303 306 308 310 309 309 310 311 312 312 312 311 311 310 311 311 308 309 309 309 307 306 305 304 304 304 306 307 306 306 306 305 306 306 304 300 299
299 298 293 283 288 290 295 291 296 302 304 304 305 305 306 307 309 309 309 310 311 311 311 311 309 308 309 308 307 308 309 309 307 306 304 303 303 304 306 305 305 305 305 305 305 301 298 300 299
298 296 298 291 287 290 294 296 300 302 302 303 303 304 305 306 307 308 309 310 310 310 309 311 310 309 309 309 310 309 309 307 305 304 304 303 304 303 304 304 303 301 301 301 300 298 297 297 296
301 301 294 295 285 281 289 291 293 298 299 300 302 304 305 307 308 308 309 308 309 311 311 312 312 310 310 309 308 307 306 305 303 302 302 302 303 303 302 300 299 299 299 300 299 297 296 295 295
299 298 296 295 293 286 284 289 300 299 300 300 303 304 305 307 308 309 309 310 310 311 311 310 310 309 308 307 306 305 304 302 301 301 301 301 302 300 299 299 298 298 296 296 295 295 295 294 293
300 297 296 290 285 291 289 289 301 302 302 302 303 303 306 307 308 308 309 309 309 309 309 309 308 306 305 303 302 302 302 301 300 300 300 300 299 299 299 297 296 296 295 294 293 293 293 292 291

GFSSGP_sfc_thetae_003.txt.gz
Theta_e
322 320 319 317 306 306 306 308 315 313 315 322 321 320 318 322 320 315 335 336 342 344 346 348 350 351 350 348 347 348 350 350 349 347 347 346 345 344 343 341 340 340 341 342 342 343 344 345 344
321 316 316 312 303 301 304 309 311 315 318 320 319 318 317 318 330 330 330 335 342 345 346 349 350 351 349 350 349 349 349 349 347 347 347 346 345 343 342 340 340 340 341 342 343 343 343 341 340
320 317 310 307 304 302 303 309 314 316 319 318 316 321 320 319 327 328 332 335 340 343 346 350 349 350 351 351 349 349 349 349 348 347 346 346 344 340 339 339 338 338 339 339 339 338 339 341 339
315 312 311 304 303 307 308 313 315 315 318 319 317 315 326 329 327 332 332 334 336 338 344 347 348 348 350 350 349 349 349 347 346 346 345 344 341 339 338 337 337 337 336 337 337 337 336 335 336
314 312 305 304 305 309 313 315 315 314 315 316 316 313 321 333 335 333 331 331 331 333 337 345 345 347 347 346 346 346 346 345 344 344 343 342 340 339 337 335 335 333 332 332 332 333 334 336 336
308 312 304 302 304 310 313 316 314 312 315 314 314 315 322 334 331 332 331 329 329 332 335 337 343 345 345 344 343 343 342 342 341 341 340 339 338 336 334 333 333 332 331 330 329 329 330 330 331
307 309 304 304 304 306 310 314 311 310 311 311 315 312 323 327 331 332 329 328 328 332 335 336 337 339 341 340 341 341 340 340 339 338 338 337 336 334 332 332 331 330 329 328 327 326 326 327 328
310 311 303 304 302 302 307 309 312 310 311 317 316 310 315 327 331 330 328 327 328 330 334 337 337 337 339 339 338 338 339 339 337 336 335 335 335 333 330 330 330 328 327 327 325 325 324 324 326
312 304 300 300 301 301 306 304 308 311 311 312 313 319 321 331 332 329 327 325 328 330 335 337 337 337 336 335 335 335 336 337 336 336 335 334 337 336 333 330 329 328 327 325 323 322 321 322 324
307 303 301 304 305 304 305 306 305 307 308 307 311 318 326 330 330 326 323 323 327 331 333 339 339 338 336 330 334 333 332 336 337 337 337 335 336 335 332 332 331 330 328 327 325 325 325 325 324
307 303 304 304 305 306 304 304 306 305 303 307 309 313 323 326 326 326 325 325 327 332 332 337 342 340 335 332 334 333 333 334 336 338 338 337 335 335 333 333 332 334 330 329 327 328 327 327 324
304 306 306 305 306 305 304 307 304 306 306 310 312 318 322 324 325 325 326 325 327 330 330 337 341 339 337 335 333 333 332 332 332 334 335 335 332 332 332 329 328 328 326 327 327 326 327 325 319
304 305 306 307 307 307 307 305 306 305 309 311 314 318 321 324 325 326 327 327 328 327 331 335 340 336 334 335 336 336 335 333 332 333 332 332 330 331 328 327 324 324 324 324 324 324 323 320 317
308 308 308 308 308 308 306 306 308 309 311 310 311 315 319 321 323 324 325 325 326 327 331 336 338 336 331 332 335 336 333 331 330 329 328 330 330 330 326 324 323 322 323 323 323 323 322 319 317
309 305 307 307 308 307 308 304 305 310 311 310 310 313 317 320 322 323 326 326 328 329 330 335 338 334 329 330 331 330 326 326 327 327 327 327 327 327 327 324 323 323 325 326 324 323 323 321 318
305 306 301 306 308 308 308 302 307 311 310 310 311 312 313 318 320 322 324 326 327 328 330 334 335 330 328 329 327 328 327 327 326 326 327 326 326 327 327 323 323 325 325 323 323 321 320 319 318
304 299 299 302 307 306 306 304 309 311 310 309 311 312 312 315 320 322 323 325 327 328 329 331 334 326 326 328 327 327 327 325 323 323 323 324 323 324 324 323 324 329 325 326 325 323 323 320 319
299 298 300 300 304 305 304 304 307 309 309 310 311 312 313 313 318 323 326 326 327 327 328 330 331 324 325 327 327 323 323 322 322 321 321 322 322 323 323 322 325 325 323 324 324 326 323 323 321
301 300 299 302 304 303 303 303 305 309 310 309 310 310 311 313 321 324 322 323 325 327 328 328 326 326 324 322 319 318 317 318 320 320 321 321 321 319 319 318 320 321 320 323 324 322 321 320 322
301 300 300 302 303 303 304 303 305 307 308 310 310 311 313 315 317 317 319 321 322 326 327 326 323 320 319 320 318 319 318 318 318 319 318 318 318 317 316 316 315 317 315 319 320 321 318 318 320
301 300 300 300 303 304 303 302 303 306 308 309 310 311 312 313 313 315 317 320 322 322 321 320 319 318 318 318 317 317 317 317 315 315 315 316 317 314 314 314 314 316 316 314 317 316 316 312 315
299 302 301 300 299 297 304 295 301 304 304 306 308 310 311 311 312 313 315 316 319 319 319 318 317 316 315 316 315 314 312 310 313 314 314 313 314 312 311 311 312 314 314 314 314 311 314 312 308
301 304 302 302 300 300 300 296 300 303 301 303 306 308 310 311 313 313 314 315 316 318 318 318 317 315 315 314 314 313 313 314 314 314 313 312 312 311 310 310 310 311 310 311 312 311 308 307 307
306 303 302 303 301 294 299 297 299 301 302 303 306 308 309 310 312 313 314 315 315 317 317 317 315 313 314 313 314 314 312 311 309 309 307 307 308 308 309 307 309 310 310 308 307 307 307 304 304
305 301 295 293 293 292 298 295 298 302 304 305 305 307 310 312 311 311 312 313 314 314 314 314 313 313 315 315 313 311 310 310 309 308 307 305 304 305 306 307 307 306 306 306 307 305 302 299 296
300 301 295 286 289 292 298 292 298 305 306 306 306 307 309 310 311 311 312 313 313 313 314 315 314 312 313 313 312 312 311 310 308 307 305 304 304 305 306 305 306 305 305 304 304 302 302 300 299
300 297 301 294 292 291 295 298 303 304 304 304 305 306 307 308 309 310 311 312 313 313 314 314 313 313 313 313 312 311 309 308 306 305 304 304 305 303 304 304 303 303 302 301 301 299 298 299 298
303 303 296 297 286 283 291 292 295 299 301 303 303 305 307 309 309 310 312 312 313 313 314 314 313 312 312 312 310 307 307 306 305 304 303 303 303 303 303 302 301 300 299 299 297 297 298 296 297
301 300 297 296 294 287 285 291 301 300 301 301 304 306 307 308 310 310 311 311 312 313 313 312 312 310 309 308 306 305 305 304 303 302 302 302 302 301 300 299 298 297 296 296 296 296 295 295 295
302 299 297 292 288 292 290 290 304 303 303 304 305 306 307 309 309 310 309 309 309 309 310 310 310 306 306 304 304 303 303 303 302 301 300 300 300 299 299 297 296 296 296 295 295 294 293 293 292

GFSSGP_sfc_thetae_006.txt.gz
Theta_e
321 316 317 313 302 303 299 306 315 313 314 318 320 317 316 322 320 312 333 339 344 343 345 347 350 351 351 351 352 351 351 351 349 349 348 347 345 344 342 341 341 342 342 343 344 344 344 343 342
316 318 314 309 300 297 301 311 309 313 316 316 317 317 317 316 326 325 329 339 343 344 346 347 349 350 350 351 350 350 350 348 349 348 347 346 344 342 340 340 340 340 340 340 340 340 342 342 340
319 318 307 303 300 297 302 309 312 314 315 316 314 322 319 318 324 325 334 340 345 346 347 349 348 348 350 350 350 349 349 349 348 348 346 344 341 340 339 339 340 338 338 338 339 338 337 336 338
314 311 308 300 298 306 307 312 313 312 317 318 317 315 322 327 325 328 334 337 337 343 345 345 345 347 349 350 349 349 348 346 346 346 344 342 340 339 338 337 335 334 334 335 335 336 336 337 337
315 309 300 300 303 308 312 313 313 312 313 314 315 315 320 327 327 328 330 332 332 339 343 344 343 345 347 346 346 346 345 344 344 343 341 340 339 337 335 334 333 332 332 331 330 330 331 332 333
305 307 297 297 303 308 311 313 314 314 314 312 313 316 321 327 326 326 327 327 329 334 339 339 344 344 343 344 343 342 342 342 342 341 338 338 337 335 334 333 332 331 331 330 329 328 328 329 330
304 301 298 302 303 306 311 315 310 310 311 311 315 314 321 324 327 326 325 325 329 331 331 334 336 339 340 339 340 340 340 340 339 338 338 337 336 335 333 332 331 329 328 328 327 326 325 325 327
307 304 299 304 302 303 309 310 312 310 309 315 315 311 314 324 328 326 323 323 326 331 332 334 335 335 335 336 338 339 339 338 337 337 336 336 335 334 333 332 330 328 326 325 324 323 323 324 324
310 300 300 301 302 302 307 304 308 310 311 312 316 316 323 326 327 324 322 322 324 329 334 334 334 335 338 335 335 337 338 338 337 336 335 333 334 333 331 330 331 329 327 326 325 324 323 324 325
305 301 301 304 304 303 304 305 304 305 307 307 312 322 328 326 325 321 319 319 323 329 331 337 336 335 333 330 333 336 335 336 336 335 335 335 334 333 331 332 331 331 330 329 328 327 327 326 322
306 301 304 304 305 306 304 304 306 305 303 306 308 314 324 325 324 321 320 321 324 329 331 337 339 337 335 332 333 332 332 333 336 337 334 334 332 333 332 332 330 329 329 329 326 325 323 324 320
302 305 305 304 305 304 302 305 303 305 306 310 312 315 323 321 321 322 321 322 325 327 328 337 338 337 335 335 332 333 332 331 331 332 333 332 330 330 327 326 323 322 322 322 323 321 323 322 319
304 304 305 305 305 306 307 304 305 305 308 311 313 317 320 321 322 324 325 325 326 326 329 334 336 336 337 333 336 335 333 332 331 332 331 330 328 327 326 324 322 321 321 320 319 318 319 318 316
306 305 305 306 307 306 304 305 307 307 309 308 311 315 319 322 323 324 324 324 324 326 330 336 336 335 333 333 333 334 332 332 332 328 326 327 327 326 324 322 322 320 320 319 318 317 318 318 316
307 303 305 306 307 305 307 303 303 309 310 308 308 311 316 320 322 322 324 325 326 326 329 334 335 330 330 331 332 331 325 323 325 325 325 324 325 324 324 322 322 322 322 321 320 320 318 317 318
303 304 299 305 307 308 306 299 306 309 308 307 309 309 312 318 320 322 325 325 325 328 326 331 335 331 329 331 326 326 327 326 324 326 325 325 325 324 323 322 322 322 323 320 319 318 316 315 315
303 297 300 302 307 306 305 301 307 310 309 308 309 311 311 313 318 321 323 325 327 325 328 332 330 328 327 327 326 326 325 324 323 321 322 322 321 324 321 320 321 322 320 319 319 317 316 315 314
296 298 299 299 303 303 302 302 307 309 309 309 309 310 311 311 315 320 321 323 327 327 327 331 326 322 325 326 325 322 321 321 322 321 320 321 320 320 319 318 319 321 318 316 316 317 315 314 314
301 299 298 302 304 302 302 303 305 308 309 310 312 311 312 313 320 322 324 325 325 327 326 325 326 326 324 323 319 317 316 317 318 318 319 318 318 317 315 314 315 314 313 313 313 311 310 310 312
301 299 299 302 304 302 303 301 305 307 308 309 309 310 313 315 316 318 320 323 326 325 325 324 323 320 318 317 318 317 317 316 317 318 316 317 316 315 312 313 312 311 310 309 310 310 308 307 308
301 299 300 299 303 304 301 300 301 305 307 308 310 311 312 312 313 315 318 319 321 320 319 317 316 315 316 318 315 314 314 313 312 312 313 314 314 313 312 311 312 311 308 306 306 307 305 303 304
298 304 301 300 298 294 302 292 299 303 303 306 308 309 310 310 312 314 315 316 316 317 318 316 316 315 315 316 314 312 310 310 313 314 313 313 312 311 309 309 309 308 307 305 306 306 305 303 300
301 304 301 301 299 298 299 296 299 303 300 303 306 308 309 311 312 312 313 314 315 317 318 318 316 315 315 314 313 312 313 312 312 311 310 309 309 308 308 306 305 306 305 305 305 303 302 302 299
306 304 303 302 300 294 297 296 295 299 301 303 306 308 309 310 311 312 314 315 315 317 317 316 314 313 314 314 315 312 309 309 308 307 306 304 304 304 305 306 305 305 304 303 303 301 300 297 297
304 301 295 293 294 292 299 295 297 302 304 305 305 307 309 311 312 312 312 312 313 315 316 315 315 313 314 313 311 311 310 309 307 305 303 302 301 302 302 303 303 303 302 303 303 302 300 298 295
301 299 295 286 288 291 297 291 296 304 305 306 307 307 309 310 312 311 312 312 313 314 315 315 313 312 312 313 312 311 309 306 305 304 302 301 301 301 302 302 302 301 300 299 299 297 298 296 296
300 296 300 295 292 290 293 298 301 303 303 304 304 305 307 308 310 310 312 312 313 313 314 314 313 312 312 313 311 307 306 305 304 303 303 301 302 301 300 300 299 299 299 298 296 295 294 294 294
302 302 295 297 287 283 289 292 293 299 300 302 303 304 306 309 310 311 310 312 312 312 313 314 313 310 309 306 304 304 304 305 304 303 301 300 300 299 299 298 298 298 297 297 296 294 295 294 294
300 298 298 296 294 287 285 289 300 300 301 301 303 305 306 308 308 309 309 310 311 311 311 310 308 306 306 305 304 304 303 303 302 301 299 298 298 297 296 297 296 296 295 295 295 293 294 292 291
301 299 297 293 289 293 291 289 303 303 304 304 304 305 307 308 307 308 308 308 308 307 308 307 307 306 305 304 303 302 302 300 299 299 297 297 296 296 295 295 294 294 294 294 293 292 292 291 290

GFSSGP_sfc_thetae_009.txt.gz
Theta_e
317 312 311 307 297 295 293 298 310 309 309 316 320 318 316 318 314 309 338 340 342 343 346 347 347 349 351 351 351 350 350 350 349 349 348 346 344 343 341 341 341 341 341 341 341 342 343 342 341
314 315 309 302 294 290 295 308 305 307 311 318 318 318 316 313 323 327 332 340 342 343 345 346 347 348 349 349 349 349 349 349 349 348 346 344 342 340 340 340 341 339 339 339 339 339 338 338 337
317 314 301 297 294 291 295 306 306 308 312 314 314 319 317 315 323 325 340 344 344 344 346 347 346 347 349 348 348 348 348 348 348 347 342 342 340 339 339 337 338 336 336 336 337 337 337 337 337
310 306 301 293 292 298 304 307 309 311 313 317 316 313 318 322 323 331 342 343 342 342 343 343 344 346 348 348 348 347 346 345 345 344 342 341 339 338 336 335 334 333 332 332 332 331 331 332 333
311 303 293 291 296 305 307 309 310 309 310 316 319 312 313 321 325 326 338 340 339 338 341 343 342 344 346 347 346 345 344 343 343 342 341 339 337 336 335 333 332 331 331 330 329 328 328 329 331
301 300 291 290 296 306 306 309 312 311 311 316 316 315 312 319 319 321 329 335 338 337 339 341 342 342 342 342 342 341 341 341 341 340 340 338 336 336 334 332 331 330 329 328 327 326 326 326 328
298 296 292 293 298 304 306 309 305 311 308 312 320 311 314 316 318 318 321 330 334 335 334 334 337 339 338 337 337 338 338 338 338 338 338 337 336 335 334 333 330 329 327 325 325 325 325 325 327
301 298 294 294 299 297 305 305 303 306 302 310 318 310 310 316 318 317 319 322 324 328 330 330 331 333 332 334 336 336 336 336 335 336 336 335 334 333 334 333 332 329 327 325 324 325 326 325 326
304 293 292 295 297 297 301 299 301 305 306 313 314 317 319 319 318 315 313 316 321 327 328 328 328 329 330 331 335 336 337 336 334 335 334 332 330 330 330 330 330 330 329 328 327 327 326 325 325
298 292 294 299 300 297 299 297 300 301 303 309 316 319 320 319 317 314 313 314 318 322 326 326 326 330 328 330 331 330 332 333 332 331 331 329 328 329 329 329 330 330 330 329 329 329 327 326 321
298 294 297 298 300 300 297 298 301 300 298 305 314 316 318 318 316 315 314 316 320 324 328 329 326 325 323 327 328 328 328 329 329 329 326 327 325 327 325 325 326 323 328 324 326 324 323 321 319
295 299 300 299 300 299 297 298 297 295 300 307 318 321 320 318 317 316 314 315 320 323 330 329 328 325 325 321 323 321 324 323 328 326 327 324 322 319 320 318 318 319 322 321 320 317 318 318 319
298 298 300 301 301 301 303 299 299 298 304 307 314 321 320 319 318 318 317 317 320 323 330 329 327 325 325 325 325 324 324 323 322 324 323 321 321 318 318 317 316 315 315 314 313 313 314 315 314
301 300 298 299 300 301 300 299 301 300 302 306 312 316 316 317 318 317 317 318 319 325 331 328 326 327 327 325 325 324 322 321 323 319 320 321 319 317 317 315 317 315 315 315 314 313 313 313 314
302 297 299 299 301 300 301 296 297 301 302 303 306 313 315 318 318 318 318 317 319 326 329 328 331 331 325 325 324 323 315 317 317 318 318 319 318 316 317 316 316 317 317 316 314 315 314 313 314
297 297 292 299 301 301 299 292 298 302 302 300 302 304 308 315 318 318 317 318 319 328 328 326 329 329 325 323 321 319 318 317 316 317 317 318 318 317 315 314 314 316 316 316 314 314 313 312 311
295 289 294 296 302 301 297 294 299 301 302 300 300 301 303 306 311 316 317 316 322 326 321 320 321 327 323 319 319 318 316 315 314 314 314 314 317 315 312 312 312 313 314 314 313 313 312 311 310
291 293 292 293 295 296 294 294 299 302 303 302 300 299 300 306 310 315 316 320 321 323 325 320 324 321 319 320 317 314 313 313 313 312 312 313 312 312 310 309 310 310 309 308 308 307 308 307 307
298 295 294 294 299 297 295 295 299 302 301 300 302 308 310 311 314 317 318 319 320 322 321 320 319 318 317 312 311 310 309 310 310 310 312 311 310 310 309 307 308 307 306 305 305 305 304 304 305
298 296 295 297 300 295 293 293 298 301 301 303 302 306 307 310 312 314 313 312 313 315 315 313 312 312 311 310 310 310 310 309 308 309 310 311 310 309 309 306 306 306 304 303 302 302 301 301 302
297 295 295 295 298 296 295 293 296 301 303 305 304 304 306 308 309 311 311 309 310 309 308 309 308 309 310 310 308 307 306 306 307 308 309 310 310 307 305 304 303 303 303 301 300 301 300 298 299
295 301 299 297 293 288 293 285 293 298 300 302 303 303 304 306 310 310 309 307 308 307 307 308 309 308 310 309 307 305 304 304 307 307 306 307 305 304 304 303 302 302 301 300 300 303 299 298 296
298 302 299 297 293 291 293 289 292 299 297 299 300 302 303 304 305 307 307 308 308 308 307 307 308 308 309 307 306 306 305 305 305 305 301 300 301 302 302 302 301 300 301 300 299 298 297 296 295
302 300 299 297 294 285 293 291 291 295 297 299 302 303 303 303 305 306 308 309 307 307 307 307 307 307 308 307 308 305 303 303 301 300 298 299 299 300 300 301 300 300 299 298 298 298 295 294 297
299 295 285 283 282 282 297 293 292 298 300 301 302 302 303 304 304 304 307 307 306 306 306 307 307 307 308 306 305 303 301 300 299 298 297 298 300 297 297 298 297 297 297 297 296 295 295 294 293
296 295 283 281 280 283 291 288 291 299 301 302 303 303 304 304 304 303 304 305 306 308 306 307 307 307 307 306 303 302 301 300 302 301 300 298 296 296 296 297 297 297 296 295 294 293 293 295 294
297 290 295 288 285 281 288 292 297 300 300 301 301 302 302 302 303 303 308 308 307 307 306 306 306 305 303 301 301 301 302 303 301 300 297 296 296 297 295 295 295 295 295 297 296 294 294 293 292
297 298 288 287 279 279 285 289 290 296 298 300 299 300 300 303 303 304 304 304 304 304 304 303 303 302 302 300 302 302 301 301 299 296 294 294 294 294 294 293 293 293 294 294 293 291 291 291 290
295 294 293 292 286 279 277 284 296 297 299 298 300 301 301 301 301 302 302 303 303 303 303 302 302 302 300 300 302 300 299 297 296 295 294 294 293 293 293 293 293 292 292 291 291 291 290 290 290
297 295 294 282 284 282 281 282 298 298 300 300 300 302 301 301 301 301 302 301 300 300 300 299 299 300 300 300 299 298 297 295 294 293 293 292 292 293 292 291 289 289 288 287 287 287 287 285 284

GFSSGP_sfc_thetae_012.txt.gz
Theta_e
315 309 310 306 296 295 291 295 307 308 310 318 321 317 314 316 313 309 336 340 343 343 345 346 347 349 350 350 350 349 349 348 347 346 345 343 341 340 340 340 340 340 339 339 339 339 339 338 337
312 313 308 301 293 289 292 304 308 311 315 318 319 319 318 318 329 330 332 342 343 343 343 345 347 348 349 349 349 348 348 347 346 345 343 342 340 339 339 338 338 337 336 337 337 337 337 337 337
315 313 300 296 292 289 292 303 307 312 317 316 314 316 317 316 329 331 337 342 343 342 344 345 345 346 348 348 348 348 348 348 346 343 342 340 339 338 336 335 334 334 333 333 333 333 332 332 333
309 304 299 292 289 294 302 304 311 313 316 318 316 312 317 325 326 337 342 343 341 341 342 343 343 345 347 347 347 346 346 345 343 343 340 339 338 336 335 333 332 331 331 330 330 329 329 329 330
309 300 292 289 292 303 306 308 311 309 314 314 315 311 314 330 339 340 340 341 340 341 344 344 341 344 346 346 345 345 344 343 343 342 340 337 336 335 333 332 330 330 328 328 328 327 327 327 328
299 298 290 287 293 305 307 309 311 314 314 314 313 313 312 328 334 336 338 338 340 339 341 342 343 343 343 343 342 341 341 341 341 341 339 337 335 334 333 331 330 328 326 326 326 326 326 326 326
298 295 291 291 297 303 304 306 307 312 314 314 315 309 312 319 329 333 335 335 336 336 336 335 338 339 338 337 337 338 339 339 339 339 338 336 335 335 334 332 330 328 326 325 324 326 326 326 326
300 297 292 292 296 300 303 301 304 307 304 318 317 307 308 314 323 330 331 331 330 331 331 329 331 332 331 333 335 335 335 335 336 336 335 333 333 334 334 333 332 330 327 327 327 327 327 326 326
301 293 290 293 297 298 302 301 301 306 311 312 312 313 316 315 316 319 319 321 323 326 327 326 328 328 329 329 333 335 335 334 334 334 333 331 329 327 329 330 329 331 329 329 329 329 328 326 326
297 291 293 298 300 298 297 298 300 305 310 310 312 316 315 314 315 315 316 318 320 322 324 325 325 326 327 331 330 329 331 330 329 330 329 328 327 326 327 329 330 331 329 330 330 330 329 327 320
296 294 296 298 300 299 296 297 299 303 304 312 311 312 313 312 312 313 313 319 321 324 326 326 327 326 324 325 326 326 327 327 328 328 328 326 326 325 326 323 324 322 325 323 324 323 321 320 319
294 297 297 297 298 296 297 298 297 298 303 316 317 316 314 313 313 312 313 315 319 324 325 325 327 326 321 324 325 325 325 326 326 326 325 321 320 317 317 318 318 317 316 319 318 317 315 315 316
295 296 298 299 300 297 298 296 297 297 307 318 318 317 316 315 314 315 315 316 320 325 325 324 323 322 322 322 324 323 322 323 324 323 322 320 319 315 315 315 314 313 313 312 311 311 311 312 313
298 297 297 298 298 299 297 297 299 297 307 317 317 316 317 317 316 316 314 314 321 327 326 327 327 326 324 324 323 322 321 319 322 319 319 320 319 315 315 314 314 314 314 314 313 312 311 312 313
298 293 295 295 297 296 299 294 294 299 308 316 317 317 317 318 319 317 317 315 322 327 327 326 326 326 324 324 324 321 316 319 317 315 316 317 316 314 314 313 311 312 313 313 313 312 312 311 312
296 294 290 295 298 299 296 291 297 298 303 308 313 315 315 316 317 318 316 316 327 326 325 325 327 326 322 321 320 318 314 315 314 315 315 316 316 314 311 308 308 310 310 310 309 310 309 308 307
293 287 290 293 299 297 295 292 296 298 299 300 301 305 307 308 311 314 314 323 326 325 322 323 324 323 321 319 317 315 313 313 311 311 312 312 312 311 308 307 307 308 307 306 307 305 305 304 303
289 290 289 291 294 295 292 292 297 297 297 298 299 306 310 310 313 317 320 322 322 319 320 321 322 323 319 315 314 312 310 309 309 309 309 310 311 311 307 306 306 307 305 303 303 302 302 302 302
297 292 291 291 296 295 294 294 296 298 302 304 306 308 307 307 310 313 316 319 319 319 318 316 316 314 317 311 310 308 306 307 307 310 312 311 310 309 306 305 305 305 303 301 301 300 300 300 300
297 294 292 296 299 294 293 293 296 300 299 304 306 307 306 306 308 309 310 310 310 311 313 313 309 309 308 310 309 309 307 309 310 310 310 308 306 305 305 303 301 302 301 299 299 299 299 299 299
296 293 292 293 295 294 295 292 295 299 302 303 303 306 307 306 305 307 307 306 307 308 307 307 306 307 307 309 308 307 308 308 307 307 305 304 304 303 302 301 300 300 300 298 298 299 298 296 297
293 298 297 295 291 286 291 283 292 296 298 301 302 303 305 306 307 307 306 305 305 304 304 305 306 306 307 307 306 306 305 304 305 303 301 300 301 301 301 300 299 299 299 297 298 300 297 296 294
296 299 296 295 291 289 290 286 290 296 295 297 299 302 303 304 306 305 305 305 305 304 304 304 306 306 307 306 306 306 303 301 302 299 298 298 300 301 301 301 299 298 298 296 295 296 294 294 293
300 298 297 295 292 283 291 289 288 292 295 298 300 301 302 302 303 305 305 306 305 304 304 303 306 306 306 305 305 302 300 299 298 297 298 300 300 298 299 299 296 296 295 295 294 293 293 294 295
297 293 283 283 282 281 294 289 289 296 299 300 300 299 301 301 302 303 304 304 305 304 305 306 305 304 304 302 300 300 299 298 300 299 299 297 298 297 297 295 295 294 295 294 293 292 292 293 294
295 292 282 281 279 282 291 286 289 298 301 303 304 301 302 302 302 303 302 302 303 304 304 304 303 301 301 300 299 299 299 301 301 299 299 297 295 294 295 294 294 294 294 293 292 291 290 291 290
295 288 294 286 283 280 286 290 295 298 299 301 301 303 302 299 300 302 302 302 303 302 301 303 303 301 300 299 299 299 302 302 299 298 295 294 294 295 293 293 292 292 293 293 292 290 289 289 288
294 296 288 285 278 278 283 286 287 293 295 297 297 297 299 300 300 301 301 301 301 301 301 303 303 301 300 299 299 299 298 298 296 294 293 293 293 293 292 291 291 291 291 291 290 289 289 288 288
293 291 291 290 283 278 276 282 293 295 296 296 297 298 298 299 300 300 300 299 300 299 299 299 298 299 299 298 298 297 296 295 295 294 293 292 292 291 292 292 291 289 288 288 287 287 288 286 284
295 293 291 280 283 281 280 281 297 296 297 299 299 299 300 301 299 300 299 298 297 297 296 296 296 297 299 299 298 297 296 294 292 293 293 291 291 291 291 292 288 287 286 286 285 285 284 283 282

GFSSGP_sfc_thetae_015.txt.gz
Theta_e
313 308 309 306 296 294 291 294 308 308 311 317 320 317 317 321 315 309 335 339 342 342 344 346 347 348 349 349 348 349 347 347 345 344 343 341 340 340 339 338 337 337 337 337 337 337 337 337 337
309 310 306 300 292 288 292 304 307 311 316 318 318 319 319 319 329 331 333 342 342 342 343 345 347 348 348 348 348 348 347 346 345 343 341 340 339 338 336 336 336 335 334 334 333 333 333 332 332
311 311 299 295 290 287 292 303 309 314 317 316 313 317 319 323 330 330 338 342 342 340 343 345 345 347 348 348 348 347 347 346 344 342 340 339 337 336 334 333 333 333 332 331 331 330 330 329 330
307 303 298 292 290 293 296 304 311 313 315 317 317 313 318 328 331 335 340 341 340 339 341 342 343 345 347 347 347 347 345 343 343 341 339 338 336 334 333 332 331 330 330 329 328 328 327 327 328
303 298 291 289 291 298 303 306 312 311 312 314 316 311 316 334 338 339 340 341 339 341 342 342 341 344 345 346 345 345 343 342 342 341 339 336 335 333 332 331 330 329 328 327 327 327 326 326 327
297 294 289 288 292 302 304 307 314 312 313 315 316 313 312 335 335 337 339 339 340 341 343 343 343 343 343 344 343 342 341 341 341 340 338 336 335 334 332 330 329 328 327 327 327 327 327 327 328
293 291 289 291 298 301 305 307 311 312 312 312 316 307 315 329 332 336 337 337 339 340 340 338 339 340 339 338 338 337 338 338 339 338 337 336 335 334 333 331 329 327 326 327 327 328 327 328 328
297 294 289 292 297 300 308 303 308 314 309 316 315 307 315 318 332 334 334 334 334 332 332 330 331 331 330 331 335 336 336 336 337 336 335 332 332 333 333 332 331 330 328 328 329 328 328 328 328
299 292 288 291 297 298 304 300 302 311 313 313 312 312 324 324 329 326 325 323 325 328 326 326 327 327 327 328 332 335 335 334 334 334 333 329 326 325 327 330 330 331 329 329 330 330 329 328 326
295 289 291 297 300 301 303 303 307 310 309 309 309 313 319 322 322 320 320 320 321 322 324 325 326 326 326 331 329 328 330 329 328 328 328 327 325 324 326 328 329 330 330 330 330 330 330 328 319
293 292 295 297 301 303 300 297 302 308 305 309 308 310 315 318 317 317 317 318 319 322 324 324 323 324 324 325 326 325 326 326 327 327 326 325 326 324 324 322 321 320 324 320 322 320 320 318 317
295 297 297 297 300 297 295 296 302 299 309 314 313 312 313 313 315 316 317 319 319 321 322 324 324 322 322 322 323 323 325 325 326 326 325 321 318 316 318 318 314 313 312 312 313 312 312 310 312
295 294 296 298 298 295 297 294 297 295 309 314 314 312 312 313 314 316 319 320 321 322 323 324 325 321 321 322 322 323 323 325 325 324 323 319 316 314 314 312 313 312 312 312 311 311 311 311 312
297 294 294 297 298 296 295 295 295 298 312 312 312 311 311 312 313 313 314 316 320 323 323 323 322 321 321 321 322 321 321 322 323 321 319 319 316 314 313 312 312 310 311 311 310 310 309 309 309
297 292 293 293 294 295 297 293 292 299 313 312 312 313 312 313 312 312 312 315 321 324 324 323 323 322 321 321 321 320 317 319 319 316 316 316 315 313 312 309 307 308 309 308 308 307 306 305 306
293 292 288 294 296 295 294 289 294 303 312 310 312 312 312 313 313 313 314 312 320 323 322 324 328 322 322 321 321 318 313 312 312 313 313 313 313 310 307 306 305 306 307 306 305 305 302 302 302
290 286 289 292 296 294 293 291 295 296 312 311 304 304 306 310 314 315 317 317 324 323 322 322 324 323 320 321 319 315 311 310 310 310 309 309 309 309 306 305 305 306 304 303 303 301 301 300 300
286 288 286 289 291 294 291 291 295 295 299 296 303 305 306 308 311 318 319 319 320 320 321 322 322 322 318 317 313 312 308 308 307 307 307 308 308 309 306 306 304 304 302 300 299 299 299 299 299
293 290 289 289 294 294 292 292 295 300 303 303 303 304 306 307 310 312 314 316 315 315 317 319 317 317 313 310 309 309 308 308 308 309 310 307 307 305 302 302 302 301 299 298 298 298 298 298 298
295 291 290 293 296 294 293 292 296 299 300 303 302 303 304 307 308 309 310 311 312 313 312 310 310 309 309 310 310 311 308 307 310 309 304 303 302 302 301 299 299 299 299 298 297 297 296 297 297
294 291 290 292 293 294 294 291 293 299 302 304 304 303 304 306 305 308 309 307 307 306 305 306 305 306 308 310 308 307 308 307 305 303 300 300 301 300 300 299 298 298 298 296 296 296 295 294 295
291 296 295 293 289 286 290 282 291 294 297 300 302 301 302 305 306 305 304 302 303 302 303 303 305 305 305 305 304 304 303 303 302 300 297 298 299 299 300 299 298 297 296 295 296 296 293 292 291
294 297 294 293 289 288 288 285 288 294 293 296 298 302 303 303 303 302 302 303 303 302 302 302 304 305 304 304 304 303 301 301 299 297 296 298 299 300 298 299 298 297 295 294 293 292 292 292 291
298 296 295 293 290 282 289 287 286 289 293 296 299 301 303 303 302 303 303 303 302 301 301 302 303 303 302 301 300 299 298 297 296 297 298 300 298 297 300 298 295 295 294 292 292 291 290 290 291
296 291 282 282 281 281 291 288 288 294 297 298 299 299 300 301 301 302 304 304 302 301 301 301 301 300 300 299 298 298 298 297 297 297 298 298 296 295 294 294 293 292 293 293 292 290 289 289 288
292 291 282 281 278 281 290 284 288 297 300 301 300 300 300 300 302 302 301 301 300 300 299 299 299 298 299 299 298 298 298 299 298 297 297 296 294 294 294 293 292 292 292 292 291 290 289 288 287
292 287 292 284 282 280 284 288 294 296 297 299 299 299 297 298 298 299 300 300 299 299 300 299 299 298 298 299 298 297 298 299 297 296 294 294 293 294 293 293 293 292 292 291 291 289 288 287 287
293 295 286 283 277 278 282 284 285 291 294 295 295 296 297 297 298 298 299 299 299 299 299 299 300 300 299 298 297 298 296 297 296 294 293 292 292 295 293 293 293 292 292 290 289 288 287 287 287
291 289 288 288 282 277 275 282 291 293 295 294 294 296 296 296 297 297 299 300 298 297 297 296 296 296 297 297 297 296 296 295 294 293 292 292 292 291 292 293 292 291 288 287 286 286 286 285 283
293 290 288 280 282 280 278 280 294 295 296 297 296 297 297 298 297 299 298 298 298 296 295 294 292 293 294 294 294 295 295 294 292 291 291 291 292 292 290 291 291 288 287 286 285 284 284 282 281

GFSSGP_sfc_thetae_018.txt.gz
Theta_e
315 310 305 302 294 293 290 293 303 306 311 318 321 320 318 321 315 310 337 340 341 341 344 345 346 348 348 348 348 348 346 346 344 343 341 340 339 338 337 337 338 336 335 335 334 333 333 333 332
305 307 302 297 290 286 289 299 307 312 316 318 317 320 319 317 329 330 334 341 341 342 342 344 346 347 348 348 348 348 346 345 344 341 340 339 337 335 335 335 337 335 333 332 331 331 330 329 329
307 307 296 292 288 287 290 306 311 315 317 315 314 317 318 321 331 332 340 341 341 340 342 344 345 346 347 347 347 347 346 345 343 340 339 337 335 334 334 333 335 332 330 330 329 328 327 327 328
303 300 295 290 288 291 296 307 314 313 315 318 316 310 319 330 330 335 340 340 339 338 340 341 343 345 347 347 347 346 345 343 342 341 338 336 334 332 332 332 332 330 330 330 330 328 327 327 329
300 294 288 287 287 293 298 310 313 311 312 314 315 310 317 332 337 338 339 339 338 339 339 341 341 344 346 347 346 345 343 342 341 340 339 335 333 332 331 331 330 329 329 330 330 329 328 329 330
295 292 286 285 289 301 302 310 314 312 313 315 316 313 316 335 335 338 339 338 341 340 341 340 342 343 343 344 344 342 341 341 340 339 338 335 334 333 331 330 330 329 329 329 329 329 329 330 330
293 290 285 288 295 300 302 312 311 312 313 312 315 308 322 329 336 339 338 339 340 341 340 341 339 341 340 339 339 338 339 339 338 338 337 336 334 333 333 332 330 329 330 331 331 330 330 330 330
295 292 289 289 298 299 307 303 315 312 310 315 316 313 317 326 334 336 336 336 337 338 337 336 336 334 332 333 336 336 336 336 336 336 335 333 332 332 332 330 331 330 330 330 330 331 331 330 329
295 290 286 291 300 303 309 305 305 313 312 313 311 316 325 331 333 330 330 331 332 332 331 328 328 327 327 327 332 335 335 335 334 334 333 328 324 325 326 330 330 331 331 331 331 331 330 330 326
294 289 290 295 300 304 308 304 309 310 309 307 310 320 327 328 329 325 325 325 326 326 325 324 324 324 324 330 327 326 329 328 328 328 327 325 324 323 325 327 329 330 329 328 328 327 327 322 318
292 292 294 295 303 308 302 303 307 308 305 307 311 317 321 324 323 323 323 324 324 323 324 324 324 323 323 324 324 323 325 325 325 325 325 324 324 323 323 321 319 318 320 315 318 316 315 313 313
292 296 296 296 300 299 298 299 307 305 306 312 318 319 319 320 318 319 318 318 317 319 322 323 322 322 322 322 323 322 323 324 324 325 325 322 319 318 318 315 311 311 311 312 311 311 311 311 312
295 297 296 296 297 294 297 297 303 299 309 312 317 317 317 318 315 316 316 316 317 317 319 321 322 320 321 321 321 321 322 324 324 324 322 319 314 313 312 311 311 311 311 310 309 310 309 308 308
298 295 294 296 294 293 294 293 295 297 309 309 313 314 315 315 315 313 315 316 317 320 320 322 322 320 320 320 322 320 321 321 323 320 317 317 314 312 312 309 308 308 308 308 308 307 306 305 305
296 292 293 294 293 293 296 291 290 303 309 308 309 312 309 309 309 310 312 313 318 320 322 322 322 321 320 319 319 319 320 320 317 314 315 315 314 311 307 305 305 306 306 305 305 305 303 302 303
293 291 287 292 294 293 292 286 293 306 308 306 306 309 310 310 311 311 312 313 319 321 322 324 323 320 320 319 320 321 316 313 315 312 312 310 309 307 305 305 304 305 305 305 302 302 300 300 300
290 285 287 290 294 293 291 288 294 297 308 305 304 305 308 310 314 316 317 314 320 321 322 322 321 321 321 321 320 315 312 309 307 307 309 309 308 308 306 306 306 306 303 300 300 299 299 298 298
285 286 285 287 291 293 291 291 296 299 300 302 302 303 306 308 313 316 317 318 319 321 322 322 321 321 319 317 313 309 310 308 310 311 309 306 307 308 306 305 303 300 299 298 298 297 298 298 298
291 289 287 287 292 293 292 292 295 300 300 300 301 303 304 306 311 314 315 316 316 317 321 321 319 319 317 309 308 307 307 310 308 304 305 306 304 301 300 299 299 299 297 297 297 297 297 297 297
292 290 288 291 294 294 293 291 295 298 299 299 301 302 304 305 307 310 311 311 312 315 316 315 316 312 309 309 308 309 307 305 306 303 301 301 300 300 300 298 297 297 297 296 296 296 295 295 296
292 290 289 289 293 293 292 289 292 298 301 302 301 302 304 305 306 309 310 307 305 304 305 306 306 306 308 309 305 304 304 304 302 299 297 298 299 299 298 297 297 296 296 296 295 294 293 292 293
289 294 293 291 289 285 290 283 290 294 297 299 300 300 302 304 304 304 303 301 301 300 301 302 303 303 304 303 303 302 301 300 299 296 296 296 298 298 298 299 297 297 296 294 295 294 292 291 289
292 296 293 291 288 286 287 285 287 295 293 296 298 300 300 300 302 302 302 301 300 300 300 302 303 303 302 302 302 300 298 297 296 295 296 296 297 300 300 298 296 295 294 293 292 290 290 290 289
296 295 293 291 288 282 287 285 285 289 293 296 298 300 300 300 299 300 301 301 300 302 303 302 300 299 299 299 299 298 296 296 295 295 296 297 296 296 296 296 294 293 292 291 291 290 289 288 289
294 290 282 281 280 280 289 286 287 293 296 299 298 299 300 300 299 299 300 302 302 300 299 299 298 298 298 298 298 298 297 296 295 295 295 295 295 294 293 293 293 291 292 292 291 289 288 287 287
290 290 282 281 278 280 288 284 288 294 298 300 300 299 299 299 300 300 300 298 297 298 297 297 298 297 298 298 297 296 296 296 296 296 295 295 294 293 293 292 292 291 291 291 291 290 290 289 288
290 286 290 284 281 279 283 287 292 295 296 297 297 298 298 297 297 298 298 298 298 298 298 298 298 297 298 298 297 296 296 296 296 295 294 293 292 294 292 291 291 291 291 291 291 289 289 288 288
292 294 285 282 277 277 281 283 284 290 293 295 295 295 295 296 297 297 298 298 297 297 299 300 300 298 298 296 296 296 295 295 294 293 292 291 291 292 291 292 291 291 292 290 289 289 287 286 286
290 287 287 286 281 276 274 281 289 293 295 293 294 295 296 296 296 297 297 297 297 297 298 297 294 295 294 293 294 293 293 292 292 291 291 291 291 291 291 290 290 291 290 287 286 285 285 285 283
291 288 287 279 280 279 278 279 291 293 294 295 295 296 296 296 295 296 296 296 297 296 295 292 291 291 291 291 291 290 291 291 291 290 290 290 290 290 290 290 291 291 288 286 284 284 284 282 281

GFSSGP_sfc_thetae_021.txt.gz
Theta_e
323 313 312 310 300 300 296 297 309 312 315 322 324 321 318 322 317 312 338 341 344 345 347 345 345 348 347 348 348 348 347 345 344 342 341 339 338 337 337 338 339 337 334 333 332 331 330 329 329
309 310 309 305 298 294 297 306 312 316 318 319 319 319 317 313 329 331 334 342 344 345 347 345 345 347 347 348 348 347 346 345 343 341 339 337 336 336 335 335 336 335 331 330 329 328 328 329 330
311 310 305 301 297 294 297 312 314 316 318 316 315 320 321 315 329 333 341 343 344 345 346 345 344 346 347 347 347 347 346 345 343 341 338 336 334 334 334 334 335 334 331 331 329 328 329 329 330
310 308 303 299 294 297 300 313 316 315 317 318 316 312 323 332 332 337 342 343 342 344 345 343 343 345 347 347 347 346 345 343 342 341 338 335 333 332 332 334 335 333 332 331 330 330 330 330 331
306 303 298 295 294 298 302 316 316 313 314 316 317 310 321 332 339 341 340 341 340 343 345 345 341 343 346 347 347 345 343 342 341 340 338 336 332 331 331 333 334 333 332 332 331 331 331 331 332
304 301 295 294 298 304 309 316 315 314 314 315 316 317 322 336 337 339 341 341 342 342 344 346 343 343 344 345 344 341 341 341 340 339 338 335 334 334 332 332 332 331 331 331 331 331 331 332 331
301 298 295 295 301 304 308 317 314 314 314 315 319 315 325 332 337 340 340 341 342 342 343 344 345 344 341 340 340 338 339 339 338 338 337 335 334 333 333 332 331 331 333 332 332 331 332 331 330
302 300 295 298 301 303 307 311 315 314 312 319 322 317 318 329 337 339 339 339 341 341 340 340 343 343 344 343 337 337 337 336 336 336 334 332 332 332 332 329 332 332 332 331 332 332 331 331 329
302 298 294 298 304 305 311 308 311 317 315 315 314 324 328 333 335 334 333 334 335 336 337 337 338 341 340 340 338 336 336 335 335 335 332 330 332 332 331 330 331 331 331 331 331 330 329 326 325
302 297 296 301 310 308 310 308 310 313 313 311 319 327 331 331 331 329 329 329 331 332 332 335 337 336 335 333 336 335 334 334 334 334 334 333 333 333 331 330 328 328 327 326 327 326 324 324 324
299 298 299 300 309 313 310 308 313 312 310 313 317 321 326 328 328 329 328 330 331 331 335 335 334 333 332 331 333 332 333 333 334 333 334 334 334 334 334 333 328 327 322 324 324 323 322 322 322
298 300 299 300 305 309 305 307 312 314 312 315 323 328 326 326 325 327 328 329 329 331 332 331 331 331 330 330 330 330 331 332 333 334 334 335 333 332 331 324 324 324 323 322 322 322 321 319 317
299 300 299 300 301 304 304 305 311 310 313 320 325 328 327 327 327 327 327 326 327 326 327 328 328 328 328 328 329 329 330 331 332 332 332 331 328 326 324 323 321 320 320 319 319 318 316 315 314
302 299 298 298 298 299 301 299 305 305 313 320 322 324 325 324 323 322 320 321 322 324 326 328 327 327 327 328 327 327 329 328 329 328 327 327 326 324 322 318 317 318 317 317 316 315 313 312 312
298 297 298 298 299 299 301 298 296 307 313 316 319 318 319 319 319 319 319 321 323 325 327 328 327 328 326 325 327 324 320 320 321 323 323 323 323 319 317 317 317 316 316 315 315 312 311 310 309
296 296 293 297 299 298 299 293 300 305 310 310 313 313 315 315 316 318 318 322 326 327 328 328 326 326 325 326 326 324 320 319 318 319 318 317 316 317 317 314 314 313 311 311 309 309 308 307 307
295 291 292 295 299 299 298 294 302 304 310 308 310 312 313 316 318 319 321 323 326 327 326 325 327 327 326 323 322 319 316 313 313 315 316 316 315 315 313 309 310 310 309 308 307 307 307 305 305
292 291 292 293 297 300 299 298 302 304 309 308 309 311 313 314 315 315 318 322 325 326 326 326 326 322 322 318 316 314 314 314 315 314 311 312 311 311 311 309 309 308 307 307 307 306 306 305 304
294 293 293 294 297 299 297 299 300 304 306 307 308 310 311 312 315 318 321 324 325 325 325 324 322 321 317 313 313 314 314 314 309 309 309 309 308 308 309 307 307 307 307 306 306 305 303 302 304
295 294 293 295 298 299 298 298 302 303 302 305 307 309 311 311 313 316 319 322 324 324 324 324 323 323 316 316 317 319 317 314 309 308 307 307 308 307 306 307 307 307 306 306 304 303 301 301 302
295 295 294 294 297 299 298 296 299 303 305 306 307 310 312 312 313 315 316 318 318 319 321 321 317 316 316 317 315 313 314 312 309 306 305 306 306 306 306 306 306 305 305 303 302 301 299 296 298
294 298 296 295 295 292 295 290 296 300 302 305 307 310 311 313 315 313 310 310 311 311 313 314 313 312 311 311 313 312 310 309 306 306 306 306 306 305 305 305 305 304 303 302 301 299 298 296 292
296 298 297 294 293 293 293 293 293 300 299 303 305 307 309 311 311 307 307 307 307 308 310 310 309 309 309 310 310 308 306 306 306 306 304 305 306 305 305 305 303 302 302 301 299 298 297 297 294
300 298 297 295 294 288 291 291 291 297 301 303 304 305 306 307 306 306 306 306 306 309 309 308 307 306 308 308 308 307 306 305 305 305 305 305 306 306 305 303 302 302 300 299 299 298 296 296 295
299 296 289 288 288 286 291 290 294 298 301 305 304 305 306 307 306 305 306 307 307 307 306 306 306 305 307 307 306 306 305 305 304 304 304 304 304 304 304 303 300 299 299 298 298 297 296 295 294
295 296 291 283 284 287 291 289 294 298 302 307 307 306 306 305 305 306 307 306 306 305 306 306 306 305 305 305 305 305 305 305 305 305 304 303 302 302 302 302 299 298 298 298 298 297 297 296 295
294 291 295 288 285 286 289 292 297 298 299 303 303 304 304 305 305 305 305 305 304 305 305 306 305 304 304 304 305 304 305 304 302 301 301 301 301 300 301 300 299 298 298 298 297 296 296 296 295
297 296 290 289 282 281 285 287 291 294 297 301 301 302 304 304 304 304 304 304 304 305 305 306 306 303 303 303 302 302 300 300 300 300 299 299 299 299 300 300 299 298 297 296 296 295 295 294 293
294 292 290 290 287 283 281 286 296 298 299 300 302 303 303 303 303 303 303 302 303 304 304 303 300 301 300 299 298 298 299 299 299 298 298 298 298 298 297 298 297 296 294 294 295 294 292 291 291
296 293 292 287 284 284 284 287 295 298 301 302 302 301 303 303 303 303 302 301 301 301 299 296 298 296 296 297 297 297 298 298 298 297 297 297 296 297 296 296 296 295 293 296 293 291 290 290 289

GFSSGP_sfc_thetae_024.txt.gz
Theta_e
327 319 317 316 306 306 303 303 318 318 319 322 324 321 321 324 320 315 341 344 346 345 344 344 346 347 347 348 348 348 346 344 343 342 340 339 339 338 338 339 339 335 333 331 330 330 331 332 331
315 312 316 313 302 299 302 307 309 319 321 320 319 319 318 316 329 334 337 345 345 345 345 344 345 346 347 348 348 347 345 343 341 340 338 338 337 336 336 335 336 335 331 330 330 331 331 331 331
314 315 311 306 302 299 303 314 317 319 320 319 317 323 317 316 328 330 341 344 346 346 345 345 344 345 347 347 347 347 346 344 343 341 337 336 335 334 334 335 336 334 332 331 331 330 330 330 330
313 313 311 302 300 302 305 316 319 318 319 319 319 315 324 327 324 329 342 344 344 345 345 342 343 345 346 347 347 346 345 343 342 340 337 334 333 332 333 336 336 333 332 332 332 332 331 330 331
315 312 303 301 300 303 307 319 321 316 317 316 317 315 321 333 335 337 342 343 339 343 345 345 341 342 344 346 346 345 343 342 342 340 337 335 332 332 333 335 336 334 333 332 332 332 332 331 331
307 309 300 298 302 307 308 320 319 316 315 317 316 317 325 338 338 341 343 341 341 343 345 345 342 341 341 345 344 342 342 341 341 339 337 334 333 334 332 332 332 332 332 332 332 332 332 332 331
306 303 300 302 305 308 311 321 317 313 315 316 322 315 327 333 340 341 344 342 344 345 344 344 343 342 341 340 339 339 339 340 339 338 337 335 335 335 334 332 332 332 332 332 332 332 332 331 330
310 305 300 305 305 306 316 317 317 313 314 324 326 316 321 333 339 341 341 342 343 343 344 345 345 344 344 344 338 338 337 337 337 336 334 333 333 333 331 333 333 332 332 332 332 332 330 328 328
310 302 300 305 307 309 315 312 316 321 319 319 320 326 332 337 339 337 336 339 341 340 341 342 342 342 343 341 340 336 336 336 335 334 333 330 336 335 333 330 331 331 330 330 330 329 326 326 327
306 302 302 310 313 312 313 311 311 315 317 316 324 331 336 336 335 334 334 333 335 335 337 338 342 342 341 335 336 334 332 334 337 336 336 338 339 338 334 332 328 326 325 326 325 324 325 326 324
307 303 305 306 315 314 310 311 313 312 314 317 320 327 330 331 331 332 333 333 333 335 335 337 340 340 335 333 332 331 333 337 338 339 340 340 340 341 339 334 331 333 325 330 328 328 324 324 323
303 306 305 309 315 312 310 314 312 315 315 320 326 332 332 330 332 334 333 335 336 336 335 336 336 335 334 331 330 332 335 338 339 339 340 341 338 340 338 331 332 332 330 329 327 325 324 322 320
304 305 305 305 310 314 314 312 313 315 318 324 330 331 331 331 329 329 330 331 331 330 331 332 332 332 332 332 333 335 336 336 337 338 338 336 334 335 332 332 330 328 327 325 324 323 321 319 318
306 305 303 303 307 312 310 309 313 312 321 326 328 328 329 328 327 326 326 326 327 327 330 331 330 331 333 334 335 335 333 331 330 332 331 330 329 331 331 329 327 326 324 323 321 319 317 316 316
304 301 303 302 305 306 310 304 303 312 319 322 324 326 327 326 326 324 323 323 325 327 331 332 332 333 333 333 332 330 328 326 326 328 328 326 326 326 327 325 325 323 322 320 318 317 316 315 314
300 302 297 301 304 302 306 298 305 312 315 319 322 323 324 323 323 323 324 323 325 328 332 333 331 330 333 331 329 326 325 326 324 325 323 320 320 322 323 320 318 318 316 315 314 314 312 312 312
299 295 296 298 304 303 302 299 306 313 315 316 319 320 321 320 322 324 324 326 329 332 332 332 333 330 327 324 326 327 322 320 318 319 319 317 317 318 317 316 316 316 314 313 312 312 312 311 311
295 296 297 297 302 302 302 303 305 312 314 314 317 319 320 321 321 323 325 329 331 333 333 331 330 327 327 325 326 319 317 316 319 318 317 317 317 316 317 316 314 314 313 313 313 312 311 309 308
300 298 297 299 303 304 303 303 304 310 314 314 315 317 319 320 322 324 327 329 330 331 329 330 328 330 329 326 322 319 318 318 316 316 315 315 314 314 314 314 314 314 312 311 310 308 307 305 306
300 298 298 300 302 304 304 303 306 308 311 314 315 317 318 319 321 322 326 328 326 326 328 329 330 331 329 325 323 322 321 320 317 315 315 314 313 313 312 312 311 311 308 308 308 307 305 304 304
300 299 299 298 302 304 304 302 304 307 309 311 314 317 318 318 319 322 324 326 327 326 329 330 329 328 323 323 323 322 320 316 315 315 315 313 313 312 311 310 309 308 307 305 307 305 303 300 300
298 301 301 300 300 295 302 294 303 306 307 310 312 316 316 319 322 323 324 325 327 327 329 325 322 321 321 320 318 317 317 315 314 314 313 313 312 310 308 309 309 309 307 306 305 302 302 300 297
300 303 303 301 301 299 299 296 301 306 305 309 313 316 319 319 319 318 319 321 323 324 322 320 319 317 318 318 318 315 313 312 311 312 309 310 310 310 309 309 309 309 307 305 303 301 300 299 297
304 302 302 301 300 293 297 296 297 302 305 309 313 314 316 316 314 313 314 315 316 318 318 317 316 315 315 315 313 312 309 307 307 307 306 306 307 307 308 308 308 308 306 303 302 302 301 299 298
304 301 293 291 292 290 297 295 297 303 307 311 311 312 314 314 312 311 311 312 313 314 315 315 314 312 313 311 309 308 307 307 304 305 305 305 303 303 303 304 304 305 305 303 303 301 300 299 297
301 300 293 284 287 291 296 292 299 304 308 313 313 313 313 312 312 311 312 313 313 313 314 313 313 310 308 307 307 307 306 307 306 304 302 301 301 300 301 302 303 304 304 303 302 301 299 298 296
299 296 301 294 291 291 295 298 302 303 304 310 311 311 311 311 312 312 313 313 313 313 313 313 309 307 306 306 306 306 305 303 302 301 302 301 300 299 300 301 301 302 302 302 301 300 298 299 297
302 302 295 296 286 284 291 293 295 300 302 307 309 309 310 311 312 312 312 312 313 313 312 311 309 306 305 305 305 302 302 302 302 301 299 299 300 300 299 299 300 300 301 301 300 298 299 297 296
298 297 296 297 294 287 286 292 301 301 305 306 309 310 311 311 312 312 312 312 312 311 310 309 305 303 303 300 301 301 301 301 301 300 299 299 300 299 298 299 299 299 299 298 298 298 298 296 294
301 299 298 292 289 292 291 291 301 304 306 308 309 310 312 312 312 312 311 310 309 308 308 304 304 300 298 301 301 300 301 300 299 299 299 300 299 299 298 298 298 298 297 298 296 296 294 293 292

GFSSGP_sfc_thetae_027.txt.gz
Theta_e
327 326 320 315 306 307 304 306 315 317 318 324 326 323 322 325 322 317 341 343 344 342 341 343 346 347 347 347 347 347 345 344 343 341 339 340 339 338 337 338 338 334 332 331 333 333 332 332 333
324 315 314 313 303 301 303 309 308 318 321 323 323 322 320 320 333 334 335 344 346 342 340 341 345 347 348 348 347 347 344 342 340 339 339 338 337 336 334 335 337 335 331 332 331 331 331 332 332
317 315 310 307 304 301 303 314 318 321 324 322 319 322 317 319 329 335 342 345 345 341 340 342 344 345 347 346 346 346 344 343 341 339 337 336 335 334 333 335 337 336 332 332 331 330 329 329 330
313 311 312 304 302 306 307 317 316 318 321 321 321 315 320 326 325 335 343 345 345 344 343 341 343 344 345 345 346 345 344 342 341 339 337 334 333 334 334 337 337 334 333 333 332 332 331 330 331
314 312 304 303 304 306 308 318 319 316 316 318 319 315 315 325 330 334 344 345 343 341 343 342 339 341 343 345 344 343 343 342 341 339 337 334 333 333 334 336 335 333 333 332 332 332 332 332 331
307 310 301 300 304 307 309 318 316 316 315 316 317 320 324 333 332 332 339 342 341 341 341 342 341 341 342 344 343 341 341 341 340 338 336 333 333 334 333 333 333 333 333 332 332 333 332 331 331
306 305 301 303 304 307 309 318 316 316 314 316 319 314 327 333 337 340 341 334 335 338 340 341 341 341 340 339 339 339 340 339 339 338 336 335 335 335 333 332 332 332 333 333 333 332 331 329 329
309 307 301 303 304 305 314 318 320 318 314 320 323 315 318 334 340 342 341 335 335 336 341 341 342 342 342 341 337 337 337 337 337 335 334 334 334 333 333 334 333 332 332 332 332 331 329 327 329
312 303 299 302 306 310 318 315 319 320 316 317 321 325 331 338 339 338 337 335 336 339 340 340 339 340 340 338 337 336 337 336 335 333 332 330 333 333 333 331 331 329 327 329 328 327 327 328 328
306 302 302 308 314 308 315 315 316 314 311 317 322 330 335 337 336 333 333 333 335 336 338 339 340 341 339 333 333 331 331 333 334 334 334 335 336 336 332 331 329 325 325 327 326 326 328 327 324
306 302 307 308 314 315 312 312 315 314 312 318 323 329 333 333 332 333 333 333 334 336 337 337 339 338 335 333 330 329 331 334 336 338 338 338 337 337 335 333 329 331 327 329 327 326 325 325 323
304 308 308 309 315 312 309 313 311 311 306 315 328 334 333 332 332 332 333 334 335 334 336 337 336 335 333 329 328 330 333 335 337 339 339 337 335 337 334 329 328 329 328 327 326 325 325 324 322
305 307 308 311 313 311 314 310 311 313 317 324 331 332 331 330 329 331 331 332 333 330 331 332 333 332 330 331 332 335 336 339 338 338 338 337 334 335 331 331 328 327 326 326 325 324 323 321 320
308 308 306 307 311 314 311 310 312 316 320 323 326 326 326 324 325 325 326 327 328 329 329 331 329 330 332 334 335 336 334 332 331 332 333 335 331 333 328 326 323 326 325 325 323 321 319 318 318
307 303 303 305 309 308 313 305 306 316 320 320 321 322 323 322 323 323 325 325 327 328 330 330 331 334 335 333 332 331 330 327 327 329 331 331 328 328 324 322 323 324 321 321 320 319 317 315 315
303 304 299 304 307 310 311 299 308 316 316 316 318 321 321 322 321 321 322 324 326 330 330 332 331 333 334 330 326 325 326 328 327 327 326 322 321 321 322 320 318 318 318 317 316 315 314 314 313
301 296 298 299 306 306 307 301 309 315 315 316 318 320 321 321 322 324 324 323 325 331 333 332 332 332 328 326 326 327 328 326 321 320 321 319 319 320 319 318 318 318 316 316 315 315 314 312 311
295 296 299 298 303 306 303 303 307 313 313 315 318 319 320 320 322 325 325 326 327 332 334 332 331 330 329 329 326 327 322 321 321 320 319 320 320 319 320 318 317 317 315 315 314 313 311 309 307
301 299 298 301 305 302 301 303 306 312 312 313 315 318 320 321 325 327 328 330 332 332 331 332 330 329 330 328 325 324 321 321 321 321 319 319 318 317 317 317 316 315 313 312 312 310 307 305 306
301 298 299 302 304 304 302 302 307 311 312 314 314 316 318 321 324 325 327 329 331 330 330 331 329 330 331 328 328 326 323 322 320 319 318 317 316 315 314 314 313 312 309 308 307 307 304 304 304
301 299 299 299 303 304 304 302 305 309 314 315 317 318 319 321 322 324 327 326 327 326 328 329 329 330 329 326 324 324 323 319 317 317 317 315 315 313 312 311 310 309 308 306 306 306 304 300 302
298 304 303 301 300 295 304 292 302 307 308 311 315 318 319 322 323 325 326 324 325 327 329 329 328 327 324 324 322 320 317 315 317 317 316 315 313 311 310 309 309 309 308 307 306 305 303 302 298
301 305 304 303 301 300 300 296 296 307 306 308 312 315 319 321 323 324 325 327 328 327 327 328 325 322 322 321 321 320 317 316 315 314 310 310 311 310 309 309 309 308 307 307 305 304 303 302 299
306 304 303 303 301 293 298 297 297 304 306 309 313 317 319 321 321 321 323 324 325 327 324 323 320 319 320 319 318 316 313 309 308 307 306 307 307 307 306 305 305 305 305 305 304 304 303 301 299
304 301 294 292 292 291 299 297 299 303 308 312 314 316 319 318 316 317 317 318 320 320 319 319 317 316 317 315 312 310 308 308 306 306 306 303 302 302 303 303 302 302 303 304 305 303 302 300 299
302 301 294 286 288 291 299 293 299 308 309 313 317 317 318 316 315 314 315 316 317 317 317 316 316 315 313 311 309 309 307 306 306 305 304 303 301 301 302 302 301 301 302 303 304 302 300 301 300
301 297 303 296 296 292 294 298 305 307 307 311 314 315 315 315 314 314 315 315 316 316 316 316 315 313 310 310 309 307 305 304 302 303 304 302 301 300 301 301 300 300 301 301 302 301 300 300 300
303 305 295 296 287 286 292 294 297 302 303 308 312 313 314 314 314 314 314 316 316 316 317 317 315 310 309 307 307 304 304 303 303 303 302 301 301 301 300 300 299 300 300 300 300 299 299 298 299
301 299 299 299 297 290 287 294 302 301 305 307 311 313 314 314 314 314 315 316 316 316 316 314 312 309 307 305 303 302 302 303 303 302 301 301 301 300 299 299 298 298 298 298 299 298 298 297 297
304 301 301 294 292 295 294 293 304 304 306 309 310 313 315 315 315 315 315 315 315 314 313 312 310 307 305 303 302 302 303 302 302 301 301 301 300 301 299 298 298 297 297 297 296 296 296 294 293

GFSSGP_sfc_thetae_030.txt.gz
Theta_e
323 319 321 315 301 303 300 303 315 316 317 323 325 322 322 325 322 314 339 341 337 337 341 343 346 347 347 348 348 347 346 343 341 342 342 341 340 339 339 338 337 337 334 334 333 333 333 334 333
322 322 317 307 299 297 300 310 312 317 321 323 323 322 321 321 332 334 336 341 339 339 339 342 346 346 347 347 347 345 344 341 342 341 340 339 337 335 336 338 337 336 332 331 331 331 330 329 329
318 316 305 302 300 298 300 312 317 318 320 320 318 322 319 321 332 335 341 343 340 337 339 343 344 345 346 346 345 344 342 341 340 339 337 335 335 336 336 337 337 337 333 333 332 331 330 329 331
313 310 306 300 299 303 306 314 313 317 321 321 320 314 319 327 330 338 343 344 340 338 341 342 341 342 344 346 345 344 342 339 339 338 338 335 336 336 336 338 337 335 334 333 333 332 332 334 333
313 307 299 299 300 304 309 318 317 315 315 316 316 313 314 325 335 340 342 343 339 338 340 341 338 340 344 344 344 342 341 339 338 337 337 336 335 335 336 337 336 334 334 334 333 333 333 333 333
305 305 297 297 300 306 309 316 318 316 314 315 316 315 318 327 330 338 342 340 340 338 338 339 340 341 342 342 341 340 339 338 337 336 336 335 335 336 336 336 336 335 334 333 333 332 332 332 331
303 301 298 300 301 305 310 320 315 313 315 315 320 314 326 327 331 338 338 339 338 338 336 337 338 340 339 338 338 338 338 337 337 336 336 336 335 335 336 336 335 335 334 334 333 332 330 330 330
305 304 299 301 300 305 313 318 316 313 314 321 320 310 318 329 336 338 332 330 330 331 335 336 337 339 337 335 336 336 336 335 334 334 334 333 333 333 334 334 334 333 332 332 331 331 329 330 328
310 300 298 300 301 309 313 309 317 321 315 318 316 319 325 336 337 330 327 330 327 330 332 335 336 337 335 334 335 336 336 334 333 332 333 330 330 329 332 332 332 330 330 331 331 329 327 330 329
304 300 300 308 313 307 309 309 311 314 314 314 320 330 334 335 333 324 321 323 322 324 331 334 336 337 334 329 331 331 331 329 329 329 329 331 334 331 331 330 330 328 328 329 329 328 328 328 320
305 300 305 310 313 313 309 309 315 310 308 312 312 325 331 330 330 330 326 327 325 330 332 334 334 335 329 329 329 329 330 333 333 335 336 335 336 334 330 331 325 325 326 327 323 325 322 321 320
302 305 307 309 314 313 310 313 308 309 311 315 315 318 330 328 328 329 330 331 331 332 332 334 333 333 329 329 327 328 332 332 336 336 335 334 333 332 330 327 326 326 324 324 323 323 322 320 319
303 305 308 309 313 312 312 310 309 310 314 318 319 324 328 327 329 331 332 332 331 329 332 330 331 330 329 331 333 333 334 335 336 335 333 334 331 330 330 327 323 322 323 322 320 319 318 315 314
306 307 307 307 311 311 310 310 311 311 316 315 326 324 324 323 323 325 328 327 327 327 328 329 329 330 331 333 333 332 331 330 330 329 331 332 329 328 326 323 321 322 318 317 316 314 313 313 314
307 303 305 304 309 309 310 305 305 316 319 320 320 320 319 321 321 322 325 325 326 326 327 327 327 330 332 331 329 328 327 327 327 328 329 329 325 324 322 321 317 316 316 314 313 313 313 312 312
303 303 297 304 307 309 309 300 307 316 316 315 317 317 317 318 319 322 325 325 326 326 327 328 329 332 330 327 327 324 325 327 325 324 321 321 321 321 317 317 316 316 316 314 312 312 311 309 309
301 295 297 299 306 307 305 300 307 313 314 314 316 316 318 318 318 320 322 323 326 328 329 330 332 329 327 327 327 327 327 322 321 320 319 319 319 319 318 317 316 315 314 313 313 310 309 306 304
294 295 298 297 301 304 304 302 306 310 313 314 315 317 319 317 318 320 321 323 326 330 330 330 332 330 328 327 327 326 323 321 321 320 318 319 318 318 317 315 313 313 312 310 309 308 306 303 301
300 298 297 300 304 302 302 302 303 307 310 314 315 316 317 317 322 324 324 326 329 332 330 329 329 328 327 326 324 322 320 320 320 320 319 318 317 316 315 314 313 312 309 307 305 303 302 301 301
301 298 298 301 303 302 300 300 304 307 308 312 314 315 318 319 322 324 325 328 331 330 329 328 327 327 328 328 326 324 321 320 319 317 317 316 315 314 313 311 309 308 305 304 304 303 300 300 300
300 298 299 298 300 301 301 297 302 307 310 311 313 316 318 319 321 323 324 327 329 329 329 328 327 328 329 329 326 324 322 317 315 315 314 313 314 312 310 308 307 306 305 303 303 301 300 296 297
297 304 302 300 298 292 302 291 298 304 306 310 312 313 316 318 323 323 324 326 326 328 329 329 329 329 329 327 322 320 316 312 315 315 313 312 313 310 308 307 306 306 305 303 302 302 299 297 294
299 304 303 301 298 298 297 293 298 304 302 307 312 315 317 319 322 322 325 324 324 328 328 330 330 328 324 322 321 319 315 315 313 311 309 308 309 309 307 307 305 303 303 302 302 301 299 298 295
306 303 303 302 299 290 295 294 295 299 302 306 311 314 317 320 321 322 325 325 324 328 329 327 326 321 321 320 319 318 313 310 307 306 306 307 305 305 304 303 301 301 300 300 300 300 301 296 296
303 299 293 289 290 290 299 295 299 303 307 306 310 313 317 319 320 321 322 323 323 324 323 321 319 317 318 317 314 311 308 308 306 306 305 301 301 300 300 300 299 298 299 300 300 299 297 297 295
301 299 293 284 284 291 298 292 297 306 309 313 315 317 318 318 319 319 319 320 322 319 319 318 316 315 315 312 310 309 308 306 305 305 301 301 300 299 299 299 299 298 298 298 298 298 298 297 295
300 296 302 295 297 294 293 296 303 306 306 310 314 315 316 316 315 315 316 317 318 317 317 316 315 314 312 309 308 307 305 303 302 302 303 302 299 299 299 298 298 298 297 297 297 296 297 296 295
302 303 295 297 287 285 291 293 295 301 302 307 311 313 315 315 314 314 314 315 316 316 316 317 316 313 309 309 308 305 304 304 302 302 302 300 299 299 298 298 297 297 297 296 295 295 295 295 294
300 298 298 297 297 290 288 291 302 301 304 305 310 313 315 315 314 313 314 315 316 316 316 316 315 310 308 306 305 303 302 303 302 302 301 300 299 298 298 298 296 296 295 295 294 293 293 293 292
303 301 300 296 291 296 295 292 304 304 305 308 308 312 315 316 315 314 314 315 315 315 315 314 313 308 306 306 303 302 303 302 301 301 301 300 299 299 298 298 296 296 295 295 293 292 292 292 291

GFSSGP_sfc_thetae_033.txt.gz
Theta_e
320 316 311 308 293 291 289 294 309 311 313 318 320 321 320 323 320 310 339 335 338 342 345 345 345 347 348 348 347 346 344 343 342 341 341 340 339 339 338 338 337 337 333 333 332 330 329 329 330
313 314 310 302 288 284 289 308 310 314 319 320 320 320 320 320 331 332 330 336 336 341 342 344 345 346 347 346 345 343 343 342 342 341 340 339 337 337 339 337 336 336 333 332 331 331 331 331 331
316 315 298 290 287 287 289 309 310 316 319 316 315 317 317 322 332 335 335 337 338 337 341 344 343 344 345 344 343 342 342 340 340 339 338 337 336 336 337 338 337 337 334 333 333 333 332 332 333
308 301 297 289 289 295 297 309 314 313 317 318 315 309 316 323 329 337 337 337 336 339 341 340 340 342 343 344 342 341 340 338 338 338 339 337 337 336 336 338 337 335 334 334 333 332 332 333 332
306 298 288 288 292 299 305 311 312 310 312 316 317 309 313 324 337 338 336 337 337 338 339 338 338 340 343 343 342 340 339 337 338 338 338 338 336 335 336 337 336 335 333 333 332 332 333 333 332
298 295 287 287 293 300 312 314 313 311 313 316 314 313 315 330 334 335 338 337 338 336 337 338 339 341 341 341 340 338 337 337 337 337 337 337 337 337 337 337 337 335 334 334 332 332 331 331 331
297 293 290 291 293 298 312 316 313 313 314 313 317 312 319 324 331 334 335 336 335 335 335 336 337 339 338 337 337 336 336 336 336 336 336 336 335 335 336 336 336 335 335 334 332 329 328 328 329
298 294 290 293 294 302 311 313 315 312 311 318 317 310 313 325 328 329 330 331 332 333 334 335 337 336 334 334 335 335 334 334 334 334 333 332 333 334 334 334 334 333 332 332 331 330 327 327 326
301 290 289 292 300 304 309 307 317 319 315 314 313 319 326 327 327 325 325 327 327 328 330 332 333 333 332 331 334 334 334 332 332 332 331 329 327 328 331 330 331 330 329 329 329 328 327 328 327
296 290 293 301 307 306 309 308 312 313 312 310 318 326 326 325 323 322 322 321 324 323 323 324 331 331 329 331 329 328 329 327 326 327 327 325 326 326 328 329 330 329 328 328 328 329 327 323 316
297 294 299 307 308 309 307 308 313 310 307 310 313 319 322 320 320 320 319 322 322 324 325 326 330 331 325 327 325 326 325 324 325 326 326 329 330 326 326 326 323 320 326 322 322 323 321 317 315
294 300 302 309 310 310 308 310 306 308 310 315 319 319 325 319 320 323 320 321 322 325 327 329 332 328 325 326 324 325 327 330 331 331 331 328 328 325 324 321 322 322 320 318 317 315 314 311 312
298 300 303 311 311 311 312 308 306 308 313 314 317 321 324 324 321 323 325 324 326 326 328 329 329 325 325 323 328 330 329 330 330 328 329 327 325 323 321 319 318 316 316 315 312 312 310 310 311
301 301 302 304 311 310 307 308 308 310 315 316 318 317 320 324 325 325 326 326 328 329 328 326 325 323 327 329 329 329 326 325 325 326 327 326 324 320 318 316 314 313 312 312 311 311 310 309 309
305 298 301 300 306 306 309 302 303 310 313 313 315 320 321 325 327 326 327 326 327 326 325 323 323 328 328 325 324 322 322 322 323 325 324 320 320 317 316 313 312 311 311 310 309 309 308 307 308
298 297 292 299 306 307 304 296 304 311 311 318 317 316 314 316 323 325 324 323 324 324 322 322 328 326 323 323 321 320 321 321 321 318 316 317 317 314 313 312 311 311 312 309 309 307 306 304 302
295 289 294 298 305 306 302 296 301 312 313 314 311 310 310 311 316 319 322 322 322 323 322 322 327 323 322 321 320 322 319 317 316 315 313 314 315 316 313 311 309 310 309 308 307 305 304 300 299
292 293 290 294 298 303 298 297 300 307 310 309 308 309 310 309 311 317 318 322 323 323 323 327 325 322 322 322 321 321 316 315 315 314 313 314 314 315 311 309 309 308 306 303 303 302 301 299 298
299 295 294 296 299 301 300 296 298 301 307 307 307 310 310 310 312 314 315 323 323 324 326 326 324 323 322 320 318 317 315 314 313 313 314 314 312 311 309 308 305 304 303 300 301 299 298 297 297
300 296 294 298 300 298 298 296 298 300 303 309 309 310 311 312 314 317 319 324 323 323 325 325 324 323 323 322 322 320 315 314 312 311 311 311 310 309 308 305 303 302 301 300 299 298 296 296 295
298 297 295 295 295 295 294 292 295 301 304 309 312 313 314 313 315 317 321 323 324 322 324 324 324 323 324 324 322 319 314 310 309 308 307 308 309 307 306 304 302 301 301 299 298 297 295 293 294
295 301 300 299 293 287 296 286 296 300 302 304 307 309 313 315 318 319 320 322 323 322 323 324 324 324 324 324 319 314 309 307 308 308 307 306 308 306 304 303 302 301 300 298 298 299 296 294 292
297 302 300 299 296 294 293 288 292 301 299 303 304 306 308 317 317 317 320 322 322 323 323 324 324 324 325 325 318 315 309 307 307 307 306 306 305 305 301 300 298 296 297 296 296 296 296 294 293
304 300 300 298 294 287 293 291 292 295 299 304 307 309 311 316 316 319 321 321 321 321 322 322 324 323 322 316 315 310 308 304 302 301 301 302 300 299 298 297 296 296 295 295 295 295 295 294 293
300 294 286 283 284 284 297 293 293 301 302 306 308 308 308 313 314 319 318 318 319 320 320 321 320 314 312 308 305 303 302 301 300 300 299 298 297 296 295 296 296 294 295 294 294 295 294 294 293
298 295 287 281 282 285 297 290 295 302 305 308 309 308 311 312 315 318 318 318 319 319 319 318 312 310 309 305 303 302 301 301 301 299 297 299 298 298 297 296 294 294 295 294 294 293 294 294 292
299 294 298 291 289 284 288 292 299 302 303 305 304 309 310 311 311 314 319 318 317 313 312 310 309 309 307 304 302 301 301 299 297 297 298 300 296 298 296 294 294 294 294 294 293 292 292 292 291
298 300 290 290 281 280 287 288 291 297 302 304 306 308 309 309 309 310 311 314 313 312 312 310 309 308 305 302 301 299 298 297 297 298 299 298 296 297 296 296 295 294 293 294 293 292 291 291 290
296 293 294 293 290 282 280 285 295 297 300 303 307 309 310 308 308 308 308 311 312 311 311 310 308 304 302 301 300 299 297 297 298 299 300 298 298 297 295 295 294 293 293 292 291 290 290 290 290
299 296 296 284 286 287 283 285 297 297 300 302 303 310 311 310 309 308 308 310 310 310 310 309 307 302 301 301 299 298 298 299 299 299 300 299 297 296 295 295 293 293 293 292 291 290 290 289 288

GFSSGP_sfc_thetae_036.txt.gz
Theta_e
319 315 308 306 292 289 286 291 298 308 311 316 320 321 320 323 319 307 332 338 343 344 345 345 346 347 347 347 346 344 343 340 339 338 339 339 339 339 338 337 337 336 333 332 332 332 332 332 333
313 310 307 298 287 283 286 296 306 311 316 321 320 322 320 320 330 328 330 341 342 344 344 344 345 346 347 345 344 343 341 339 340 339 338 338 339 338 338 337 336 336 334 333 333 332 331 332 334
312 313 300 292 284 284 286 307 309 314 315 314 312 314 318 323 331 330 333 339 341 341 342 344 344 344 345 343 342 341 341 340 340 340 338 338 337 336 337 338 337 337 334 333 332 331 331 333 334
306 299 295 288 286 290 293 304 311 311 315 318 312 308 317 322 331 333 333 337 337 340 341 341 341 342 343 343 342 341 339 338 339 339 339 338 336 336 336 337 337 336 333 333 332 331 332 333 332
304 294 287 285 288 296 304 304 312 310 312 315 313 309 312 330 333 333 334 336 337 338 339 339 339 341 341 342 341 340 338 338 339 339 339 338 336 335 336 337 336 335 332 332 331 331 333 332 331
296 293 285 285 290 296 311 313 312 312 313 314 312 313 314 333 330 334 337 337 338 336 337 337 339 339 339 340 339 337 337 338 338 338 338 338 337 337 336 337 336 335 335 333 332 331 331 332 331
295 292 287 290 292 295 310 314 311 313 312 310 313 311 318 325 334 334 333 334 334 336 334 335 334 335 337 336 336 335 336 337 337 337 336 335 335 335 336 336 336 335 334 332 331 329 328 328 329
297 292 286 289 292 294 310 313 315 313 311 316 319 310 313 324 330 330 330 329 330 327 326 328 333 331 333 333 334 334 334 335 335 334 334 333 334 334 334 334 334 333 332 331 330 328 327 329 327
297 291 287 290 294 302 309 309 316 318 314 314 320 320 324 327 327 325 324 324 327 328 324 326 330 332 332 331 332 333 334 333 333 333 332 329 327 328 329 329 331 331 330 329 328 327 327 326 328
295 289 292 295 302 306 307 308 312 311 312 314 316 322 324 324 324 321 320 321 322 323 326 326 329 329 330 330 328 325 326 325 325 325 326 324 324 326 327 328 329 328 328 327 327 327 325 320 313
295 292 296 300 307 309 304 306 312 310 307 310 313 318 321 321 321 321 320 321 320 323 324 325 330 329 326 326 324 323 322 322 323 323 323 324 326 326 324 325 321 318 324 320 320 315 313 311 310
294 298 299 307 309 307 306 308 308 309 309 318 320 319 319 319 318 319 321 319 318 318 322 326 327 328 323 323 323 322 322 323 326 328 328 327 324 324 321 321 319 317 316 313 312 310 310 309 310
295 299 304 309 309 310 312 308 306 307 312 318 320 319 318 318 318 320 322 322 321 321 323 324 327 328 323 322 322 323 326 328 327 327 327 326 321 318 318 316 314 313 312 310 309 308 309 309 308
301 302 305 307 307 309 308 307 305 308 312 315 320 319 318 320 321 321 321 321 321 323 324 325 329 324 323 325 326 327 326 324 324 325 325 324 320 317 315 312 311 310 309 309 308 307 307 306 306
303 297 306 305 306 305 308 301 302 310 313 314 317 319 319 319 322 321 321 322 324 325 326 326 326 324 327 325 323 322 322 322 322 322 320 320 318 315 312 310 309 309 309 308 307 306 305 303 302
298 296 292 303 304 305 300 295 305 309 312 313 314 317 320 321 322 323 324 324 326 327 325 323 327 325 322 321 320 320 320 321 319 316 315 316 315 313 311 309 309 309 308 307 306 304 302 300 299
293 287 290 296 304 303 300 295 303 310 313 313 314 313 317 321 323 325 326 327 327 325 322 323 324 322 320 319 320 319 318 317 315 313 313 314 314 313 310 308 308 308 305 304 305 302 301 297 297
289 290 290 292 298 302 297 296 299 308 312 315 309 306 312 319 321 324 326 325 325 322 321 325 322 320 320 320 319 316 314 314 314 311 312 313 313 313 309 308 306 304 301 300 299 298 298 297 296
297 295 293 294 298 300 299 296 297 306 309 308 305 306 310 317 320 321 321 322 322 320 321 323 320 320 319 319 317 313 311 312 312 311 313 312 311 311 307 304 302 301 300 299 299 297 296 295 294
298 294 293 295 298 299 297 295 296 303 307 309 306 307 308 309 312 317 318 319 319 318 322 322 321 320 319 320 317 315 313 312 311 311 311 309 308 307 305 303 301 300 300 299 298 296 295 294 293
295 294 293 294 296 293 293 291 294 298 304 309 309 310 310 310 311 312 317 318 318 321 322 322 321 320 320 320 319 315 313 309 307 306 306 306 308 307 305 302 301 300 300 298 297 295 294 292 292
292 299 297 297 291 285 292 285 293 298 300 305 308 310 310 310 312 316 318 318 319 320 324 323 322 321 321 321 318 314 312 308 306 306 305 305 306 304 303 302 301 300 298 296 297 297 295 292 291
296 300 298 298 292 290 291 286 290 297 296 300 303 307 310 312 314 318 318 320 321 320 321 322 323 321 322 322 318 313 308 307 306 306 304 304 302 301 300 298 296 296 295 295 294 295 293 293 291
302 298 297 296 293 285 291 288 288 293 298 299 303 305 309 312 314 318 321 321 320 321 321 322 321 321 321 321 317 312 308 305 306 303 302 301 298 298 297 296 296 295 295 295 295 294 294 292 292
300 293 284 283 282 282 295 290 291 297 301 302 303 304 307 314 313 317 319 320 320 320 320 320 321 321 321 316 313 309 306 305 306 303 299 297 297 297 296 297 296 296 295 293 293 292 291 292 291
295 293 285 280 280 283 294 288 293 300 302 304 304 304 310 312 316 317 318 319 320 320 319 320 320 314 309 306 305 303 304 303 301 301 300 299 297 297 297 297 296 295 294 293 292 291 292 291 290
296 291 296 289 286 282 288 291 297 300 300 303 303 305 307 309 314 316 317 318 318 318 318 317 312 308 304 301 301 302 301 301 301 302 302 300 297 298 297 296 294 295 294 292 291 291 291 290 289
297 298 290 288 281 280 285 286 288 297 300 302 301 303 307 309 314 315 316 316 316 316 314 310 309 306 303 301 300 299 300 301 301 300 299 297 297 298 296 296 295 294 293 292 291 291 290 290 289
294 292 292 291 287 281 279 284 292 297 302 301 302 305 308 309 312 315 316 316 315 313 310 307 308 305 301 300 299 298 298 299 299 299 299 298 298 297 297 297 294 293 292 292 290 290 289 289 288
296 294 294 283 284 285 281 284 296 297 300 304 305 308 309 310 311 313 314 315 313 312 311 308 307 305 302 301 299 297 298 301 300 299 299 298 298 298 296 295 293 292 291 291 290 289 290 289 288

GFSSGP_sfc_thetae_042.txt.gz
Theta_e
315 309 305 301 290 286 283 288 291 295 303 317 319 318 315 320 313 304 333 336 341 342 343 344 345 345 345 344 342 341 341 339 338 338 339 340 340 340 338 338 339 338 338 336 338 340 339 337 336
308 307 303 292 285 281 284 289 292 303 315 315 314 317 318 317 327 327 330 341 342 343 342 342 345 344 343 342 341 340 339 339 340 339 338 339 338 338 339 338 337 338 338 336 339 340 340 338 339
306 306 299 287 282 283 284 290 304 310 315 312 308 316 316 319 326 329 335 342 342 341 341 342 343 342 342 341 340 339 339 339 340 339 338 338 338 338 339 338 337 338 338 336 336 337 337 337 336
302 299 291 286 283 286 288 291 300 306 312 314 310 308 320 330 328 332 339 340 340 340 341 341 341 341 341 341 340 339 339 339 338 338 338 338 338 336 339 337 337 337 337 335 333 334 334 333 334
298 292 286 282 283 289 293 307 307 305 309 310 311 308 318 327 335 336 336 334 337 339 340 340 338 340 341 341 340 340 339 338 338 338 338 339 338 337 338 337 336 336 336 334 332 333 334 333 332
294 290 283 282 286 291 301 308 310 309 310 310 311 313 319 330 330 328 327 327 330 335 338 338 340 340 340 339 339 339 339 339 338 338 338 338 338 337 337 336 334 334 334 333 333 331 332 332 331
292 288 283 283 287 290 304 311 309 309 309 308 314 311 321 325 329 325 325 326 326 330 334 334 331 335 336 336 337 337 338 338 338 337 337 337 336 335 335 334 334 333 333 333 332 330 329 331 331
294 289 285 286 286 288 307 310 312 311 309 315 319 312 316 323 325 324 324 324 324 323 326 327 327 329 330 331 335 336 337 336 336 336 335 334 334 334 334 333 333 332 333 333 333 330 329 328 328
293 288 286 286 288 292 308 305 312 315 314 317 320 320 324 325 324 321 320 321 321 320 319 322 324 326 328 329 333 334 336 335 334 333 333 327 326 326 324 330 331 331 331 331 330 329 326 325 323
291 288 290 294 293 299 307 306 309 310 313 315 318 324 325 325 322 319 317 317 318 317 317 320 324 323 328 329 326 327 329 326 326 325 324 324 323 321 324 326 328 329 329 328 326 323 320 313 308
291 292 295 295 297 307 305 304 310 310 308 313 314 319 323 323 321 320 318 317 317 319 321 321 322 324 328 325 322 322 322 322 322 322 321 321 323 322 321 319 316 318 318 311 311 310 309 307 306
291 296 297 297 307 305 304 307 306 305 308 317 320 322 321 319 320 318 318 319 318 319 321 323 323 327 325 324 320 320 320 320 321 321 322 323 322 320 319 316 314 311 310 308 308 308 306 305 304
293 295 300 300 306 305 308 305 304 308 314 320 321 320 318 319 319 320 320 321 320 318 318 321 324 326 323 322 319 319 319 320 322 322 322 323 321 317 316 313 310 308 308 307 307 306 304 302 301
298 299 301 306 304 305 305 305 305 312 317 317 317 316 316 316 318 318 316 317 319 319 319 320 325 325 322 320 318 319 321 323 324 323 324 322 318 315 311 309 307 307 307 306 305 303 301 299 299
301 299 301 303 303 303 306 299 301 313 316 313 313 314 314 314 317 318 318 316 318 319 319 321 323 324 320 319 319 321 322 322 320 320 320 318 315 312 309 307 306 306 306 305 303 301 299 298 298
294 295 293 299 303 303 300 293 303 314 312 311 312 313 314 314 316 317 319 316 316 318 320 322 325 322 319 319 320 320 320 319 319 318 317 316 313 310 308 307 306 306 305 304 302 299 297 297 296
291 285 289 293 303 302 298 294 303 311 312 311 312 313 313 314 317 317 319 317 318 319 321 321 323 320 319 318 318 318 318 318 316 315 314 313 312 310 308 307 306 305 304 302 301 298 297 295 295
288 288 288 289 297 298 296 295 302 308 311 310 310 312 312 313 316 319 318 319 319 319 321 321 320 319 317 316 315 315 316 315 315 314 313 312 311 309 308 306 304 302 300 298 297 296 296 295 295
293 292 290 291 295 298 297 294 301 305 308 308 309 311 313 314 317 319 320 320 319 320 318 320 318 317 317 315 314 312 312 314 313 313 312 311 309 308 306 303 301 300 298 297 297 296 295 293 293
294 291 290 293 295 295 291 292 298 304 307 310 310 311 312 314 317 319 319 320 321 320 319 319 319 317 318 319 314 313 311 311 313 312 310 310 308 307 304 301 299 299 297 297 296 295 294 293 292
292 290 290 292 294 291 291 289 290 299 306 310 312 313 312 313 315 318 319 320 321 318 318 319 319 318 319 318 314 310 309 309 309 307 307 307 307 304 302 300 299 298 297 296 295 294 293 291 292
289 295 294 293 290 285 289 282 288 292 302 305 309 309 309 310 316 318 319 319 320 319 317 319 319 318 318 317 315 311 310 307 307 308 307 305 305 303 301 300 298 297 296 295 295 295 294 292 291
293 297 295 293 289 288 288 285 288 292 292 301 306 308 309 309 315 316 318 320 320 317 315 317 318 318 318 318 316 312 308 308 306 305 304 303 302 301 300 299 296 295 294 294 294 293 294 292 291
298 295 293 292 289 283 287 285 286 290 294 296 304 308 310 308 312 316 317 317 315 314 316 317 317 317 319 318 316 312 309 307 307 304 303 300 298 297 297 296 295 294 294 295 294 295 294 292 292
294 290 283 282 281 282 290 287 289 294 295 298 298 303 307 309 307 310 311 313 313 315 317 317 318 318 319 318 317 313 311 311 309 306 304 300 295 294 294 295 294 294 295 296 295 294 293 291 291
292 291 283 279 279 282 289 285 290 296 299 301 299 299 303 305 306 309 311 314 314 315 317 318 319 318 318 317 317 315 314 313 311 309 305 301 297 295 295 296 297 296 297 296 294 293 294 292 290
292 288 292 285 284 280 284 289 292 295 298 300 298 301 300 303 305 310 312 314 314 316 317 319 319 319 318 317 317 317 314 311 310 308 304 299 297 297 297 297 297 298 296 295 294 294 293 292 290
294 296 287 286 280 279 282 283 285 291 294 298 299 300 301 303 307 311 313 314 316 317 317 318 319 319 318 315 314 312 309 309 308 305 302 299 299 298 296 297 298 296 295 295 293 292 291 289 290
291 289 288 288 284 280 277 282 290 291 294 295 298 300 302 305 308 311 314 316 317 317 317 317 317 317 312 311 307 306 304 305 306 304 304 301 299 296 295 296 296 295 294 293 292 291 290 290 289
292 292 290 282 282 283 280 283 292 292 293 295 298 301 301 306 308 310 312 314 316 317 316 316 316 315 312 306 302 304 305 305 303 302 299 297 295 296 296 296 295 295 293 293 291 289 291 289 287

GFSSGP_sfc_thetae_045.txt.gz
Theta_e
322 313 314 308 298 297 293 294 298 299 304 322 324 320 319 321 316 312 336 339 343 342 343 344 344 345 345 344 343 342 342 341 340 341 342 342 341 340 341 340 340 341 340 340 340 340 342 341 337
314 311 310 302 295 290 293 295 299 309 316 318 317 323 320 317 326 328 331 341 344 342 343 343 343 344 344 342 342 341 341 341 341 342 342 341 340 340 340 340 339 342 343 342 341 339 339 340 338
312 309 308 300 293 291 292 296 303 311 318 316 315 321 322 320 327 329 335 343 343 341 342 343 342 341 342 341 340 340 341 341 341 340 341 341 340 340 340 339 339 340 343 342 341 340 340 338 336
308 308 299 295 292 293 294 297 305 311 316 316 316 316 326 329 329 335 342 343 340 341 342 342 340 340 341 340 340 340 340 339 338 339 340 340 341 340 340 338 338 339 341 340 340 338 335 335 334
304 301 296 291 291 294 296 306 313 308 313 313 315 314 320 328 329 332 332 337 338 340 342 341 338 339 340 341 340 340 339 338 338 338 339 340 340 340 338 337 336 336 338 338 336 335 334 333 333
302 299 293 290 292 295 299 313 313 312 313 314 317 316 320 331 325 327 330 331 334 337 340 339 339 340 339 339 339 338 338 338 338 338 339 339 339 337 337 336 336 335 334 335 335 334 333 332 331
300 298 293 292 293 295 305 315 312 312 311 312 319 314 322 325 325 327 327 329 330 333 336 335 334 333 333 337 337 337 338 338 338 338 338 337 335 334 334 335 335 335 333 333 333 334 332 331 330
301 299 292 293 292 294 309 313 315 313 311 319 322 314 314 322 325 325 324 324 326 326 325 326 326 327 330 335 336 337 337 337 337 336 334 333 333 334 334 333 334 335 334 332 331 331 331 329 326
300 297 293 293 293 297 311 310 315 318 316 319 322 321 323 322 325 322 321 320 321 322 319 319 321 325 327 331 337 337 337 335 334 333 332 329 328 328 328 330 332 332 333 332 330 327 325 324 323
300 296 295 299 299 300 310 310 312 314 314 316 318 323 323 321 323 319 319 316 315 315 317 319 322 324 326 328 333 333 333 331 330 330 329 329 330 329 328 329 330 331 329 327 325 321 319 318 315
298 297 299 300 300 307 309 308 312 313 310 315 315 318 320 321 319 318 319 316 314 316 318 321 323 323 325 327 329 329 328 328 329 330 329 330 329 330 327 327 326 324 322 318 318 316 315 314 312
297 299 300 301 308 308 307 311 310 310 311 319 322 322 321 320 319 317 317 315 313 314 317 320 322 322 324 325 326 326 325 327 327 327 329 330 327 327 324 323 324 319 318 318 317 315 314 312 311
297 299 301 303 308 308 310 307 307 311 319 322 323 320 319 320 319 319 319 318 318 316 319 321 325 327 328 326 325 325 326 326 328 327 329 329 326 325 324 321 320 318 318 317 314 313 312 311 309
301 301 304 307 307 309 307 307 307 314 320 318 319 318 319 319 319 319 319 319 320 320 321 324 325 328 326 324 323 324 327 327 327 328 328 331 330 327 323 319 316 316 317 316 313 312 311 309 308
303 301 305 307 306 306 309 304 304 315 318 315 317 318 318 320 321 319 320 320 321 322 323 323 326 329 327 326 324 325 326 328 330 331 332 331 328 324 321 317 316 316 315 314 312 310 310 308 306
298 300 298 302 306 307 304 298 307 315 316 314 315 316 317 317 321 321 321 322 323 323 322 323 326 329 327 326 325 326 328 331 329 329 328 327 324 320 318 316 316 315 314 313 309 310 307 306 307
297 293 293 296 306 305 303 300 307 316 314 313 314 315 317 317 319 321 321 322 323 323 323 323 327 329 327 326 326 327 329 329 328 327 325 323 320 318 318 316 316 316 313 311 310 308 308 306 305
293 293 294 294 302 303 302 302 307 313 313 311 314 315 316 317 317 320 323 323 323 324 325 325 327 329 328 327 325 326 327 327 326 326 324 322 319 318 318 316 315 312 309 309 308 307 307 306 306
297 296 295 297 299 302 302 302 304 311 312 312 313 315 316 317 320 321 322 325 323 324 325 325 326 327 326 323 322 323 323 323 322 322 322 321 320 318 317 314 312 311 310 308 308 307 306 305 306
297 295 295 297 299 299 297 297 300 308 311 313 313 315 316 318 318 320 322 322 323 322 324 325 326 326 326 325 324 324 325 324 323 317 316 316 318 316 314 312 310 310 308 308 307 307 305 305 305
297 295 295 295 297 296 296 295 296 304 309 311 314 316 317 317 318 320 321 322 323 323 323 325 326 327 327 326 324 321 321 320 318 316 315 316 316 313 311 311 310 309 308 307 307 306 304 301 303
293 298 297 296 295 291 295 289 293 297 304 308 311 314 316 317 319 321 322 322 323 324 325 325 326 325 326 325 323 321 321 319 319 318 318 315 314 311 308 309 309 308 308 306 306 304 304 302 299
297 299 298 297 295 293 292 291 294 296 296 305 310 313 316 318 319 320 323 325 325 326 325 326 326 325 325 324 324 322 322 322 319 318 316 313 311 310 307 308 308 307 306 305 304 303 302 299 297
301 298 296 295 294 289 291 291 293 296 298 300 305 312 315 317 316 320 324 326 326 326 325 325 324 324 325 324 323 321 320 317 315 315 312 310 312 309 307 307 307 306 304 303 302 303 301 299 300
298 295 289 287 288 287 293 291 295 300 300 301 303 305 312 316 317 317 320 322 324 323 324 324 324 323 323 323 322 321 320 318 317 315 310 307 308 307 306 306 304 302 302 301 301 298 298 299 298
296 296 290 282 284 287 292 289 295 301 302 305 305 304 305 312 314 316 319 322 323 323 324 323 322 323 323 322 322 322 321 320 318 315 312 309 308 308 306 303 302 301 300 300 299 298 298 300 300
296 293 296 290 288 287 290 293 298 301 303 305 306 306 305 307 311 313 317 319 321 322 322 322 322 323 322 322 323 322 321 320 315 313 312 309 308 304 304 302 302 303 300 300 298 298 299 300 300
298 299 292 291 284 282 287 288 291 296 298 302 304 306 308 309 310 312 315 317 320 322 323 324 324 323 324 323 323 322 322 320 318 316 313 310 307 304 302 302 302 301 301 299 297 299 299 299 298
295 294 292 293 290 285 283 288 297 297 299 301 303 305 307 311 312 314 317 318 320 321 322 322 323 323 324 323 323 322 321 319 318 314 313 308 305 303 301 301 301 300 297 297 296 296 298 297 298
298 296 295 290 287 288 286 288 298 299 299 300 301 305 307 309 313 315 318 320 320 320 321 322 322 323 324 322 319 319 317 314 314 311 310 308 304 302 301 300 299 297 297 297 296 296 294 296 296

GFSSGP_sfc_thetae_048.txt.gz
Theta_e
324 320 319 315 302 301 298 299 304 305 306 322 326 323 321 325 319 312 338 343 344 344 343 345 345 346 346 346 344 344 343 343 342 343 343 343 343 343 342 342 342 344 346 345 344 337 337 336 335
318 316 317 311 298 295 297 302 301 309 317 323 323 326 323 319 328 330 334 343 345 344 342 342 345 345 344 344 343 342 342 342 343 343 343 342 343 342 342 342 343 343 344 343 344 339 336 335 336
318 316 310 304 299 294 297 301 305 308 320 321 320 326 325 322 328 331 338 344 344 343 342 343 343 343 343 342 341 341 341 342 342 341 342 342 342 342 342 343 343 345 345 343 342 339 335 336 336
314 314 309 299 296 299 300 302 304 308 317 319 321 321 328 331 331 337 343 345 342 342 342 340 341 341 342 341 341 341 341 340 340 340 341 342 342 341 341 341 343 345 345 342 341 335 334 335 334
314 309 300 297 297 300 302 304 311 310 314 317 320 319 323 327 334 338 339 343 339 341 342 342 338 339 341 341 342 341 340 339 339 340 340 341 341 341 340 339 340 343 343 340 336 334 333 334 333
307 307 297 296 297 300 304 312 315 315 316 318 319 321 322 330 330 333 334 337 337 338 339 340 339 338 339 339 340 339 338 338 338 339 340 340 339 339 338 337 338 339 337 336 335 334 333 332 331
304 302 297 297 298 300 305 317 315 316 315 316 323 318 323 326 328 331 332 332 333 334 336 336 337 336 335 335 336 336 337 338 338 338 338 338 337 336 336 335 335 336 335 335 334 333 332 330 327
308 304 297 299 299 299 309 314 318 317 315 323 325 318 317 323 327 327 327 329 326 327 330 326 326 328 333 333 335 337 337 337 337 336 335 334 334 335 335 334 334 334 334 335 334 331 329 326 324
309 301 299 298 299 301 310 311 319 321 318 321 324 325 327 325 326 327 322 321 320 323 323 324 321 319 323 329 334 336 337 335 333 333 332 328 328 328 330 332 334 333 332 331 330 328 326 324 320
305 301 299 304 305 304 307 312 316 316 317 318 320 322 324 324 324 323 319 317 315 317 318 320 321 321 324 329 331 335 333 331 330 328 328 328 330 330 328 331 332 331 329 327 325 323 324 324 320
305 301 304 305 305 305 307 314 315 314 312 317 318 317 320 322 322 319 317 316 314 315 316 317 318 320 323 327 332 331 330 330 330 330 329 331 330 330 329 329 328 327 326 322 321 320 322 321 320
302 306 306 306 308 310 311 315 312 314 316 322 324 321 320 319 319 318 315 315 315 316 316 316 318 321 323 324 328 329 325 327 327 328 331 330 329 329 329 328 329 327 326 325 324 322 321 319 318
303 305 306 307 309 313 313 311 311 314 322 326 323 322 320 321 320 320 320 315 316 316 316 317 321 322 322 323 327 327 327 326 327 328 330 329 328 328 328 329 327 326 326 324 322 320 318 318 316
306 306 308 309 310 312 309 310 312 318 323 322 321 321 320 321 322 318 320 319 317 315 315 318 322 322 323 325 328 328 328 327 328 327 330 333 329 329 328 328 327 325 325 323 321 320 318 317 315
307 304 309 309 311 309 312 308 308 320 322 319 320 320 321 321 322 319 321 319 320 319 322 322 323 324 323 325 328 327 327 326 326 329 335 335 333 332 330 328 325 325 324 323 321 319 318 316 313
303 304 300 308 310 310 309 302 312 320 320 318 319 320 320 322 323 321 322 323 321 323 323 326 326 327 328 328 325 327 327 328 329 333 336 337 336 334 331 327 325 324 322 321 319 317 316 315 313
302 296 297 300 310 309 308 303 314 320 319 317 317 319 318 320 323 325 325 325 325 325 325 326 328 329 331 331 326 327 329 330 333 336 335 335 333 331 329 326 324 324 321 320 317 317 316 312 310
295 297 299 298 306 308 306 305 313 318 318 314 317 318 319 318 320 322 324 326 326 326 326 328 328 331 333 332 329 325 328 330 334 335 333 333 330 328 327 325 323 323 321 318 316 315 313 312 312
301 299 298 302 305 305 304 304 307 316 317 314 315 317 319 320 322 323 322 324 325 326 327 327 329 331 332 329 325 322 324 328 332 333 333 332 329 326 326 324 323 322 318 318 317 314 311 309 311
301 299 298 302 303 302 302 302 305 313 315 315 315 316 317 320 322 322 325 325 324 325 327 327 327 329 332 331 327 325 324 327 329 332 332 331 329 327 326 325 321 320 319 317 315 313 310 311 311
301 299 298 298 302 302 301 300 302 307 314 316 317 317 318 319 321 322 323 325 327 325 327 327 327 329 332 332 329 326 326 328 328 328 327 323 321 323 324 321 317 318 318 315 315 313 311 308 308
298 303 301 300 299 294 301 292 299 304 307 311 315 317 318 319 321 323 324 326 326 328 328 328 329 330 332 333 330 326 322 322 327 329 328 326 326 323 321 319 316 317 317 315 314 312 310 308 307
299 303 302 301 299 298 298 294 298 302 301 307 313 316 318 320 321 322 325 327 329 329 329 329 329 329 331 333 332 328 324 325 328 329 327 326 324 322 319 317 315 315 314 315 313 310 309 309 308
304 302 301 301 299 292 296 295 296 300 302 305 309 314 317 320 322 323 325 328 329 331 331 331 329 329 331 332 332 331 329 327 326 326 325 324 321 319 317 315 316 314 314 314 311 310 310 306 302
303 300 292 290 291 290 298 296 298 303 305 307 308 310 314 320 322 324 324 326 329 330 331 332 330 328 330 330 330 331 330 330 328 326 325 324 319 312 313 314 315 314 314 311 310 307 306 304 303
301 300 293 285 288 291 296 292 299 305 307 309 311 312 313 313 320 323 324 326 329 330 332 332 328 327 329 330 330 331 331 328 328 328 326 322 315 313 314 313 313 313 310 307 303 303 306 304 304
300 297 302 295 294 292 295 297 303 305 305 307 310 311 312 312 316 320 323 326 328 331 332 332 331 330 329 329 330 328 327 327 327 328 324 315 313 313 314 312 310 306 307 305 302 303 300 300 303
302 304 295 297 287 285 291 293 295 299 301 304 306 309 313 314 314 317 319 323 327 330 332 333 332 330 330 330 330 328 327 327 327 326 318 316 316 314 312 308 307 306 303 302 302 299 300 300 301
300 298 299 298 296 289 287 292 302 301 304 305 307 309 311 315 317 318 320 322 324 327 329 330 330 330 330 330 330 329 327 327 326 324 321 321 319 315 308 309 308 304 301 300 297 298 299 298 298
303 300 301 294 291 294 293 293 304 306 306 306 307 309 313 315 317 320 322 324 324 325 326 327 328 329 330 331 330 329 328 325 323 322 321 319 312 309 308 305 301 302 298 298 297 297 296 297 297

GFSSGP_sfc_thetae_051.txt.gz
Theta_e
329 325 321 315 303 302 297 301 307 305 308 318 321 320 319 317 313 310 340 346 345 340 344 349 347 348 348 348 347 346 345 344 344 344 344 344 345 346 347 347 346 346 343 339 338 337 337 336 335
324 317 316 310 299 295 298 303 302 306 314 322 323 325 321 318 325 332 336 344 347 339 343 346 346 346 347 346 344 344 344 343 343 344 344 344 344 344 344 345 345 345 345 338 337 337 336 336 336
320 318 310 306 301 296 297 303 305 308 314 320 318 324 325 325 331 332 341 342 345 339 340 344 344 344 344 343 342 342 342 343 343 343 344 344 344 344 345 344 344 345 345 339 337 337 336 335 336
316 314 310 299 297 302 302 304 306 307 313 317 320 318 330 335 334 339 342 345 342 341 338 342 341 342 342 342 342 342 341 341 341 342 343 343 343 344 345 344 344 344 345 338 336 335 334 334 334
315 310 301 300 299 302 304 306 307 308 310 314 317 317 325 332 337 341 343 346 345 343 342 341 339 341 341 342 342 341 341 340 341 341 341 342 343 343 344 344 343 343 343 337 334 333 332 333 332
308 309 299 296 298 302 305 310 313 311 312 316 318 318 325 334 335 335 339 339 344 339 338 338 340 339 340 340 340 340 339 340 340 340 340 341 340 340 342 342 342 340 338 336 335 334 332 330 329
306 304 300 299 299 301 305 316 316 317 315 316 324 318 326 329 329 333 334 334 335 337 335 336 337 337 337 337 337 337 338 339 339 339 339 338 337 337 338 339 338 337 336 335 334 333 331 328 326
308 305 300 300 300 300 310 314 319 318 316 325 326 318 319 326 327 328 329 327 330 331 333 332 332 333 335 337 335 336 337 337 337 337 335 335 335 335 335 336 336 336 335 334 332 331 329 326 323
311 302 298 299 300 303 311 311 320 323 319 322 327 328 327 328 327 324 321 323 323 324 323 328 328 329 332 334 334 334 337 336 334 334 332 329 326 326 329 332 333 335 334 332 330 328 327 324 322
306 303 301 306 307 306 308 311 316 316 316 318 321 324 325 326 326 323 319 317 319 319 318 319 321 324 324 329 331 332 334 332 331 330 331 327 331 331 327 331 331 331 331 330 328 326 325 324 320
307 302 305 306 308 309 308 312 317 315 310 318 319 318 322 323 323 321 318 316 316 318 318 317 320 321 320 323 325 327 329 330 329 330 330 332 330 329 330 328 325 326 326 322 321 321 324 324 323
303 307 307 308 309 310 311 315 313 314 317 325 322 321 322 322 320 319 316 314 313 313 316 318 321 321 324 323 324 325 327 328 327 330 334 333 330 331 329 327 327 326 325 324 324 325 324 323 321
305 306 308 310 310 313 314 312 312 316 324 325 323 321 321 322 320 318 316 316 313 312 315 316 319 319 322 324 324 326 325 323 327 330 332 331 329 332 330 330 328 328 328 327 326 324 322 321 319
308 308 308 310 311 310 311 312 314 319 325 322 321 321 322 322 321 316 316 315 314 315 315 317 320 320 321 321 322 324 325 326 328 330 331 333 332 333 328 329 327 327 328 327 325 323 322 321 318
308 304 308 309 310 309 313 306 310 321 324 321 321 320 321 321 321 319 318 315 314 315 316 318 319 320 318 318 321 323 326 326 327 328 334 334 332 332 331 330 329 328 328 327 326 323 322 319 316
303 305 299 303 310 311 309 297 314 320 321 318 318 319 320 322 321 322 322 319 318 318 318 320 320 321 319 321 322 323 327 327 326 328 333 334 332 332 331 329 328 329 328 325 323 322 320 318 315
303 297 299 302 309 309 308 300 314 318 319 316 318 318 319 320 321 323 322 320 320 319 318 320 321 319 322 327 328 330 329 325 323 328 331 333 334 335 335 330 329 329 326 324 323 321 321 316 313
297 297 300 299 305 307 306 305 312 316 316 316 316 318 318 319 321 322 323 322 322 324 326 325 325 325 328 329 327 324 326 326 328 330 332 334 335 334 333 330 329 328 325 323 322 321 319 316 314
302 300 299 302 307 305 305 305 307 315 315 315 315 317 317 319 323 324 323 324 323 326 326 326 327 329 329 326 324 320 323 325 327 330 333 333 333 333 331 329 328 327 325 324 322 320 316 313 313
301 300 299 303 305 304 302 303 306 312 314 314 315 316 317 319 321 321 323 324 324 325 326 327 327 327 330 329 326 324 323 324 325 329 333 333 333 331 330 329 327 326 324 322 321 319 314 314 314
300 300 299 300 303 304 302 299 303 307 313 315 315 317 317 319 320 321 320 322 325 325 326 327 328 329 331 331 329 326 324 325 324 326 329 331 332 331 329 329 327 326 324 321 320 318 316 312 312
297 304 302 301 299 294 303 291 300 305 307 312 314 315 316 317 321 322 323 323 323 325 328 328 328 329 329 331 329 326 322 319 323 325 328 330 331 328 327 327 326 324 323 320 319 318 317 314 310
300 305 302 302 300 299 298 296 299 304 303 307 313 315 316 318 320 322 323 325 326 327 329 330 328 328 329 331 331 329 325 324 325 328 329 330 330 328 327 326 325 322 320 321 319 319 316 313 311
306 303 302 302 300 292 298 296 296 300 303 306 310 314 317 318 320 321 325 326 327 329 330 331 328 328 329 330 331 331 329 326 323 328 328 329 329 328 326 323 323 321 320 318 318 318 315 313 310
304 300 292 291 291 291 299 297 298 303 307 307 308 311 315 318 319 321 322 324 326 329 330 331 328 326 328 329 330 331 331 330 327 326 329 327 325 325 324 322 319 316 316 316 318 316 312 307 305
301 300 294 287 289 292 299 293 298 307 308 309 310 312 314 316 320 321 322 323 326 330 331 330 330 329 328 326 329 332 332 333 331 331 329 328 327 327 323 317 315 315 315 315 311 305 307 307 305
302 297 304 296 298 293 297 299 305 307 305 307 309 311 314 316 317 319 323 325 326 330 333 334 331 331 330 328 327 327 333 334 332 332 333 330 329 320 316 314 315 315 315 308 305 305 304 300 304
303 306 296 298 288 287 293 295 296 301 302 304 306 309 313 316 316 318 322 324 327 330 334 335 335 332 332 331 331 331 332 332 331 331 329 328 323 319 316 316 315 313 306 307 306 301 301 299 300
301 300 301 300 297 290 289 294 304 303 304 304 307 309 310 315 317 318 320 323 325 329 331 334 335 334 333 333 333 332 330 330 328 327 326 323 322 320 317 316 313 307 308 305 300 300 299 298 299
304 301 302 295 294 297 295 295 306 306 307 307 308 309 311 313 318 321 322 322 324 326 329 331 333 332 332 333 333 331 329 327 325 324 322 321 320 315 312 308 307 304 300 300 297 298 298 297 297

GFSSGP_sfc_thetae_054.txt.gz
Theta_e
327 325 322 315 300 300 295 297 303 302 305 315 319 311 314 314 311 310 337 331 332 338 347 349 347 349 349 349 348 347 346 346 346 346 346 346 347 348 347 344 342 342 341 338 338 336 335 335 335
323 322 315 307 297 293 295 302 302 305 312 317 316 313 312 314 319 328 333 341 340 341 345 348 347 347 348 347 346 345 345 345 345 345 346 346 347 348 347 345 341 341 340 338 337 336 334 334 335
318 318 307 303 299 294 296 302 303 307 311 313 314 320 320 317 323 331 340 344 340 340 344 345 344 345 346 345 344 344 344 343 344 344 346 346 346 347 346 344 341 341 340 337 337 335 333 333 334
316 312 309 299 295 299 300 303 305 305 308 313 313 314 323 327 332 337 342 342 338 340 345 342 342 343 344 344 344 343 342 342 342 343 344 345 345 345 345 343 342 341 339 336 335 333 332 333 332
314 308 299 297 298 302 304 305 306 304 307 310 314 313 317 330 337 339 341 336 339 338 343 341 339 341 343 343 343 342 341 341 342 342 342 344 345 345 344 343 342 339 338 335 333 331 331 332 330
306 307 297 295 298 302 304 309 311 310 311 311 313 314 319 333 331 334 338 339 341 336 340 340 340 340 340 341 341 340 340 341 341 341 342 344 344 344 343 342 340 338 337 336 334 333 331 330 328
304 302 298 298 299 302 305 310 308 313 312 314 320 311 323 324 328 330 331 334 335 337 336 335 337 338 337 337 337 338 339 340 340 340 339 339 340 341 341 340 338 337 336 335 333 332 330 328 325
307 303 298 300 298 300 307 310 316 315 308 315 324 311 307 323 326 326 326 328 330 333 333 332 333 332 331 331 334 335 337 337 337 337 335 335 337 338 337 336 336 335 335 333 332 330 328 326 323
310 299 297 300 300 302 309 308 314 318 316 314 324 322 324 326 327 323 322 323 323 327 330 331 330 329 327 327 331 334 337 335 334 334 332 330 332 332 331 333 334 334 333 332 330 328 326 324 322
304 300 301 305 305 304 307 308 313 313 312 309 309 323 326 327 325 320 318 317 318 318 322 327 327 327 324 325 327 329 332 330 329 327 326 324 325 327 330 332 332 332 330 329 328 327 325 322 313
305 301 305 306 307 308 307 306 308 307 309 313 307 317 322 323 322 317 315 316 316 316 318 321 324 325 326 325 326 326 327 327 328 328 327 328 326 326 326 326 325 324 325 319 321 320 318 319 318
302 305 306 307 308 308 308 310 307 309 319 321 319 322 322 320 318 316 313 313 314 315 317 320 320 321 321 322 322 323 323 324 325 330 330 327 326 326 323 322 322 320 320 317 319 319 321 318 317
303 305 307 308 309 310 312 310 309 317 322 322 321 322 321 319 316 315 314 313 314 314 316 319 320 318 318 318 320 321 322 324 326 328 329 330 326 326 325 324 323 322 323 320 322 320 318 317 315
307 306 306 308 308 310 308 308 310 311 321 320 320 320 321 318 315 314 313 312 313 314 315 318 318 319 318 316 318 319 321 324 325 328 328 330 328 328 327 328 326 325 325 324 323 320 318 316 314
307 302 305 307 308 307 310 303 302 307 315 319 318 318 320 319 316 315 313 313 314 315 316 318 318 320 319 318 321 321 322 325 326 327 329 328 329 328 327 326 326 325 325 324 322 319 319 315 315
303 302 297 305 307 309 308 298 307 311 312 317 316 316 318 317 319 317 316 315 315 315 316 318 319 318 317 317 318 317 319 326 325 326 327 329 329 328 327 326 326 327 326 322 320 318 316 315 312
301 295 297 301 308 308 306 300 307 313 313 314 314 315 317 317 319 318 317 316 316 316 317 317 317 315 314 315 316 320 321 324 324 324 327 329 330 329 328 328 327 327 324 321 320 318 317 314 310
296 296 298 298 305 306 304 304 303 313 314 313 315 315 316 316 317 320 319 318 318 317 318 318 317 317 317 316 318 320 323 324 324 322 326 329 330 331 329 328 327 324 322 321 319 317 317 314 310
302 299 297 302 306 304 304 305 307 309 312 312 314 313 315 317 319 320 319 319 318 318 319 318 318 319 317 320 319 319 320 321 321 323 328 330 330 330 329 328 326 324 322 320 320 317 314 310 308
301 298 298 302 305 303 301 301 308 311 311 313 313 314 314 317 318 319 319 319 319 318 319 320 320 317 319 323 323 320 320 323 323 324 328 330 330 330 329 326 324 323 321 321 318 316 311 310 310
299 297 298 299 302 304 301 298 301 308 311 313 314 316 316 317 318 318 319 319 320 321 322 323 323 322 323 325 325 323 321 321 321 322 326 328 328 328 328 327 325 323 322 318 318 316 312 308 310
296 302 301 301 299 293 302 291 299 303 306 310 311 314 315 317 320 320 319 320 321 323 325 325 325 325 326 327 326 323 319 316 319 321 325 327 329 328 328 326 325 324 321 318 317 316 314 313 307
300 305 302 300 297 297 297 294 297 303 302 306 311 312 315 317 319 319 319 321 323 324 324 325 326 326 326 328 328 325 321 320 320 323 323 327 328 328 326 325 323 321 320 318 316 314 314 312 309
306 302 302 301 298 291 296 295 295 299 302 305 310 313 314 315 319 321 322 322 322 323 325 325 326 325 326 329 329 327 324 322 320 322 323 326 326 325 325 324 323 321 318 318 317 316 313 311 308
303 299 291 289 289 289 298 296 298 303 306 307 308 311 314 316 317 319 321 322 322 322 323 325 326 325 326 326 328 327 327 327 323 323 324 324 324 324 324 323 320 319 318 316 315 313 310 308 303
301 299 293 285 287 291 298 293 297 306 308 309 310 312 314 316 317 318 320 323 323 325 325 325 325 325 326 326 328 328 328 328 326 325 324 325 325 324 324 322 321 317 315 314 312 308 304 304 304
301 296 302 296 297 293 295 297 303 306 306 306 307 309 311 313 317 318 320 321 324 325 326 327 327 325 326 326 327 326 327 326 326 326 327 325 325 324 320 320 315 314 313 312 307 305 305 303 302
301 305 295 296 287 286 292 294 295 301 302 305 306 309 312 316 317 316 319 321 324 327 328 330 329 328 328 327 327 326 326 325 325 323 328 327 323 318 316 315 315 313 312 306 305 303 300 300 299
299 297 301 300 296 289 288 293 303 303 305 304 308 309 311 315 317 317 319 322 324 326 328 331 330 330 329 327 327 326 324 325 327 328 325 326 321 319 317 315 314 311 306 305 301 299 298 297 298
302 300 300 294 292 297 295 293 306 308 307 308 308 309 314 314 317 319 320 321 322 325 328 331 331 331 330 329 328 328 329 328 326 324 322 320 318 317 316 312 307 305 303 300 298 298 298 297 296

GFSSGP_sfc_thetae_057.txt.gz
Theta_e
320 320 316 308 294 289 287 291 295 299 307 315 316 310 312 312 312 308 330 332 328 328 331 341 345 348 349 348 347 347 347 347 347 346 347 347 346 344 343 342 341 341 340 336 335 336 337 336 336
315 316 312 300 288 283 288 296 295 301 313 315 314 311 315 311 319 328 331 331 332 330 334 343 345 346 348 347 346 346 347 347 346 346 347 348 345 343 343 341 340 341 340 336 334 336 336 335 334
318 314 299 293 289 287 288 296 297 303 308 312 311 323 315 314 323 328 339 335 331 340 345 345 345 345 347 346 345 345 345 345 345 345 348 348 346 344 343 340 340 340 339 335 334 335 333 332 333
311 303 299 290 288 293 294 297 299 300 303 309 314 313 319 323 328 336 341 340 338 339 343 341 342 343 344 345 344 344 343 342 343 344 347 347 346 344 342 340 340 340 338 333 333 332 331 332 331
308 299 289 288 291 297 298 303 303 305 308 314 315 312 312 322 333 335 339 338 337 339 340 341 340 342 342 342 344 343 342 342 342 344 344 346 345 344 341 340 339 338 336 333 331 329 330 330 328
297 297 288 288 293 299 303 303 307 310 310 314 312 314 315 327 328 331 336 336 336 339 339 340 342 341 341 341 341 340 341 341 342 342 343 344 344 343 341 339 338 337 336 334 332 331 329 328 328
295 291 288 290 293 297 303 307 309 308 312 307 313 312 314 323 326 328 333 335 337 338 337 337 338 338 337 337 337 338 340 340 341 342 342 342 341 341 339 338 337 336 335 333 331 330 328 327 326
299 293 290 292 293 295 303 307 313 312 310 315 321 307 309 322 326 327 328 332 334 333 333 333 334 334 333 332 334 336 337 337 338 339 339 339 339 339 337 336 336 335 334 332 330 328 326 324 323
300 290 288 292 297 298 303 305 313 316 312 316 322 318 320 325 325 324 325 325 327 330 330 330 328 328 327 328 332 337 337 335 335 336 334 333 333 332 331 333 334 333 332 331 329 327 324 323 321
295 289 292 300 299 298 305 308 312 310 307 311 317 323 324 325 321 320 322 319 319 321 327 327 326 325 325 324 330 331 332 329 327 326 325 329 327 330 331 332 332 331 331 329 328 326 324 319 310
297 292 299 301 303 304 301 304 309 306 307 311 310 318 321 319 317 316 316 317 316 318 324 325 324 323 323 324 325 326 328 327 324 324 324 326 328 327 327 326 325 324 326 321 322 320 315 315 312
295 300 301 301 302 302 303 308 308 308 309 319 319 320 321 317 315 314 313 314 315 317 319 322 322 321 321 323 323 324 325 325 323 326 324 324 323 322 321 320 320 318 318 314 315 314 316 313 312
298 300 303 303 304 304 311 310 308 306 313 316 320 321 317 315 314 314 314 315 315 316 319 319 320 320 320 320 321 321 322 324 325 326 326 325 322 320 320 320 318 318 318 314 316 316 315 312 311
302 301 301 303 302 304 306 306 308 311 312 313 318 316 314 312 312 312 313 313 314 316 316 316 316 318 319 318 319 319 321 322 323 325 327 325 324 321 321 321 318 318 319 317 319 315 314 312 309
304 298 300 300 303 303 307 302 303 311 313 313 316 316 313 312 313 311 312 313 314 315 316 316 316 317 317 317 317 318 320 322 321 324 326 325 325 324 323 324 322 321 321 319 317 316 314 312 310
299 297 291 298 303 305 303 297 305 308 310 312 314 314 313 312 312 311 313 314 314 315 315 318 319 315 316 316 316 318 320 320 321 323 323 324 325 325 323 322 322 321 322 319 316 315 312 311 307
294 289 292 295 303 304 302 298 306 310 308 309 311 313 312 313 312 312 312 312 313 314 315 316 317 315 315 318 318 318 318 320 321 321 322 324 326 327 322 323 322 323 320 318 316 314 313 311 308
291 293 291 292 299 303 300 300 303 308 312 312 309 312 312 312 312 312 312 313 313 313 315 315 316 315 316 317 315 314 315 316 319 319 320 325 326 326 325 324 324 322 319 317 315 313 314 312 307
297 296 293 294 301 300 301 300 301 304 308 309 309 310 311 313 314 313 313 313 313 313 314 314 313 312 312 312 311 312 313 314 319 319 320 324 325 327 326 325 323 321 318 317 315 313 312 309 307
300 295 293 297 304 299 296 300 302 305 307 309 309 310 311 312 314 314 313 314 312 312 314 313 313 311 311 311 313 315 315 316 318 319 320 326 326 327 326 324 322 320 318 317 315 313 309 308 305
298 294 293 294 299 297 296 293 301 306 307 310 309 311 313 311 311 312 312 312 312 313 314 313 314 313 313 314 316 317 315 316 318 318 318 325 326 326 326 324 322 320 319 317 314 312 309 306 306
293 300 298 297 294 289 295 285 294 303 303 308 310 310 312 313 314 313 313 312 312 313 315 315 316 315 315 317 318 317 315 313 317 318 319 323 325 325 326 325 322 320 320 316 315 314 310 307 306
297 303 300 298 293 290 291 288 292 302 300 305 308 309 311 314 314 314 313 314 315 315 315 316 318 315 315 316 320 319 319 317 316 318 317 322 324 325 325 324 322 320 319 316 314 312 310 312 308
303 300 299 297 292 285 291 289 289 294 298 304 307 309 311 314 315 315 316 316 316 318 318 319 318 318 317 319 320 321 321 316 314 314 316 320 323 324 324 322 320 319 316 315 315 315 313 313 309
299 295 285 283 283 282 295 292 293 299 302 304 306 307 310 313 315 315 315 316 317 317 319 320 320 320 322 321 322 322 323 321 318 317 317 319 321 320 322 323 318 316 317 317 316 314 312 310 304
296 294 286 281 282 285 296 289 295 302 304 305 305 307 309 311 315 316 316 316 318 319 319 320 320 320 322 322 323 324 324 324 322 321 319 321 322 323 323 322 320 318 317 315 313 312 308 305 304
298 292 297 290 295 286 291 296 300 302 302 302 301 303 305 308 313 316 317 317 317 319 319 320 321 321 322 322 322 324 325 322 324 323 324 322 322 321 320 320 319 317 316 314 310 307 304 304 302
298 301 291 291 284 282 289 290 290 298 300 300 299 300 302 306 308 312 318 318 318 319 319 320 322 322 322 322 322 322 324 324 322 322 321 322 318 315 315 315 315 314 312 308 306 304 303 302 300
295 294 296 295 292 284 282 287 297 298 301 300 300 302 305 307 308 309 310 316 321 321 321 320 320 322 322 323 323 323 324 324 322 319 318 320 316 316 316 315 313 311 307 305 303 301 300 299 298
300 296 295 289 289 290 287 288 301 300 302 304 302 303 303 308 309 310 311 313 315 320 322 322 323 323 323 324 323 323 322 322 321 321 320 320 318 317 315 313 311 306 304 302 300 299 298 298 297

GFSSGP_sfc_thetae_060.txt.gz
Theta_e
317 316 313 306 292 288 285 289 294 295 300 310 314 311 311 312 313 305 328 328 329 332 342 343 343 344 347 347 347 347 347 348 348 347 346 345 344 343 342 341 340 340 341 339 339 338 338 338 337
313 314 308 299 287 282 285 291 293 297 302 315 314 315 315 308 319 328 325 328 328 329 330 340 337 343 345 347 346 346 347 347 347 346 345 344 343 342 342 341 339 339 340 338 338 338 334 332 335
313 311 299 292 285 283 285 293 296 300 314 311 317 320 315 313 322 328 337 333 329 330 330 329 335 340 344 346 346 345 345 345 346 345 345 344 343 343 342 340 339 338 339 337 337 334 331 331 334
309 301 297 289 286 290 292 296 298 306 312 316 315 311 319 321 330 333 337 333 332 337 341 339 337 342 344 346 345 344 344 343 344 344 344 344 344 343 341 339 338 338 338 335 334 331 330 331 333
306 296 289 285 288 293 297 299 306 307 309 311 313 306 311 325 331 333 337 339 337 337 339 341 339 341 342 342 343 342 343 343 345 344 343 343 343 342 340 338 337 336 335 332 330 330 331 330 333
298 295 286 284 289 295 302 306 308 308 311 309 313 311 313 326 325 329 334 335 339 337 338 339 340 340 339 340 339 338 341 342 343 343 342 342 341 340 339 338 336 335 334 332 331 330 330 329 330
294 291 286 287 291 292 301 309 308 309 310 307 313 312 316 322 326 329 332 334 336 336 337 337 338 339 338 336 334 334 339 341 341 341 340 340 339 338 338 337 336 334 333 331 330 329 328 328 327
297 293 286 289 289 291 302 310 313 309 310 316 320 310 309 320 326 328 332 334 334 334 334 335 335 336 333 332 332 332 336 339 340 340 339 337 337 337 336 335 334 333 332 330 328 327 327 326 326
297 289 286 289 291 296 302 306 313 314 311 317 321 320 321 323 325 326 327 328 329 331 332 333 332 332 331 332 333 335 338 338 337 336 336 334 334 332 330 333 333 332 331 329 327 327 324 321 324
294 287 290 296 296 297 305 308 311 308 310 312 316 321 324 323 322 321 322 322 323 325 326 326 326 326 328 330 332 333 335 335 334 330 331 330 329 329 330 331 331 331 329 328 326 325 323 317 309
292 290 297 298 300 302 304 304 309 309 307 312 309 316 320 318 318 318 316 317 318 323 324 324 323 324 325 327 330 329 329 328 326 327 327 329 329 327 327 326 324 324 325 320 319 314 313 313 308
292 298 299 299 301 302 303 308 305 307 311 317 316 320 318 316 316 316 315 315 317 319 323 323 323 323 323 325 325 326 325 324 324 325 326 326 324 323 322 321 320 318 316 316 314 312 313 311 308
296 298 300 301 302 306 310 309 306 308 314 320 319 320 317 314 314 314 314 316 317 317 320 320 321 321 322 322 322 322 323 324 324 324 323 323 321 320 320 319 317 315 315 313 313 315 312 310 309
300 301 300 300 300 307 306 306 307 308 313 315 317 316 313 312 313 313 314 314 316 317 317 320 319 320 321 320 320 320 322 323 325 324 323 321 320 319 318 317 316 314 316 313 315 314 311 310 306
302 297 298 299 298 302 305 298 299 311 311 313 314 313 312 313 312 312 313 313 316 316 316 317 318 319 319 319 319 319 320 322 323 324 324 322 320 318 318 318 315 315 316 314 316 314 312 310 308
296 295 290 296 297 302 299 293 302 309 311 311 313 312 311 311 311 312 313 314 315 315 315 317 319 317 318 318 318 317 319 320 320 322 324 324 322 320 321 321 320 319 318 317 316 314 312 310 306
292 287 290 294 300 300 299 294 303 308 311 311 311 311 310 309 309 310 313 314 315 316 317 316 317 316 316 316 317 317 319 318 319 320 320 322 322 324 322 321 321 320 320 317 316 313 311 309 305
287 289 289 291 295 301 299 297 302 305 306 309 310 310 310 309 308 310 312 314 314 316 317 315 315 315 315 315 316 317 317 318 319 319 318 322 322 324 322 322 321 321 319 316 314 312 312 311 309
294 292 291 294 300 300 299 298 300 304 306 307 307 309 310 309 311 311 311 312 313 315 313 314 312 313 315 315 314 313 313 316 318 318 319 321 322 324 322 321 322 320 319 316 314 312 311 310 306
294 292 293 295 301 297 299 299 300 302 306 308 308 310 310 310 309 310 310 310 311 312 313 313 313 313 315 315 314 313 315 315 315 318 318 318 323 324 323 322 321 319 317 314 313 312 309 309 305
294 292 293 293 295 296 296 293 299 303 306 307 310 312 311 311 309 309 310 309 310 311 312 313 312 312 313 313 312 311 312 313 313 314 315 318 321 323 323 323 322 319 318 316 313 312 309 308 305
291 298 297 295 291 287 293 284 294 300 302 305 308 310 310 311 312 310 310 309 310 311 313 313 313 312 313 312 311 311 311 310 312 313 314 316 322 323 324 323 322 320 319 317 316 314 311 310 308
295 300 298 297 291 288 289 286 289 300 300 302 305 308 310 311 312 311 311 311 311 312 312 312 312 312 312 311 312 312 311 312 313 315 316 316 319 323 324 323 322 320 319 318 316 313 313 312 311
302 298 297 294 291 284 289 288 287 295 300 303 306 308 310 311 312 312 312 312 311 312 313 311 311 313 311 312 313 314 313 314 313 313 315 316 318 320 323 324 323 321 320 318 316 316 313 311 311
298 291 284 283 282 282 293 290 291 296 299 306 307 307 310 312 312 311 311 311 311 311 313 313 312 313 312 312 313 316 316 316 317 314 314 315 316 319 321 322 321 320 320 319 318 316 312 311 309
294 293 285 281 280 283 293 288 293 300 301 304 309 310 310 311 313 313 312 312 312 312 312 313 313 313 313 312 312 314 318 319 320 318 316 315 317 320 322 321 321 319 319 318 316 313 312 310 308
295 290 296 289 289 284 288 293 298 301 301 300 302 308 308 310 313 313 314 313 313 314 314 315 315 315 316 314 314 315 318 319 321 322 318 317 319 320 318 320 321 318 318 318 314 311 305 305 304
298 299 289 289 282 281 286 287 289 296 298 300 299 299 305 309 312 314 315 315 316 316 316 317 318 318 318 319 319 319 320 321 322 321 319 320 319 318 316 317 319 317 317 314 311 307 304 303 302
294 292 294 293 289 282 281 285 295 297 299 298 300 301 300 305 310 314 315 316 317 318 317 318 319 319 319 321 321 320 321 322 321 321 319 320 318 315 313 315 316 315 312 309 305 303 302 301 299
298 295 294 287 287 288 284 286 299 298 300 301 300 301 305 306 307 311 314 316 316 317 318 318 319 319 320 321 321 321 321 322 321 321 320 319 316 315 314 314 311 309 306 304 302 301 301 299 298

GFSSGP_sfc_thetae_063.txt.gz
Theta_e
317 318 310 303 290 288 284 288 292 293 295 307 312 309 309 310 310 301 327 329 332 339 342 339 340 340 340 339 343 347 348 348 347 346 345 344 344 343 342 341 342 343 343 340 340 339 340 338 337
310 314 304 295 286 281 284 289 291 295 299 312 316 314 310 308 318 326 323 328 329 334 342 337 339 337 337 338 341 346 348 347 346 345 344 343 343 342 341 340 340 342 341 339 338 337 337 338 338
310 307 297 291 283 283 284 291 293 302 313 310 315 316 313 312 322 327 336 331 328 328 333 338 338 337 340 341 341 344 346 345 345 344 343 343 343 342 340 339 340 341 341 336 334 334 336 338 335
307 300 295 288 285 289 291 296 295 303 309 313 314 308 317 320 328 330 335 332 326 327 331 335 338 339 342 340 341 345 345 343 343 342 343 343 342 341 339 338 339 341 339 333 330 333 335 334 333
303 296 288 284 286 291 294 296 304 304 308 308 311 305 309 324 330 331 334 332 327 329 334 333 333 339 340 342 342 342 342 342 342 342 342 342 342 340 338 337 338 338 336 332 331 334 335 333 331
295 293 286 283 287 293 295 303 304 306 308 309 311 310 312 324 324 328 332 332 335 335 336 337 336 338 339 339 336 336 339 340 340 341 341 341 340 338 337 336 335 334 333 332 332 335 333 331 330
293 290 285 285 289 291 296 308 306 307 307 308 313 311 315 319 324 328 330 330 334 334 335 336 336 338 336 335 334 334 335 338 338 340 339 339 338 336 336 335 334 332 331 330 330 331 332 331 329
295 292 286 287 287 289 299 308 310 308 308 315 318 308 308 317 325 328 332 331 334 331 334 334 334 334 332 332 331 330 332 336 337 339 338 336 336 335 334 333 332 330 330 329 329 329 330 331 328
295 288 285 288 288 291 302 303 311 312 309 317 319 319 319 322 326 326 325 328 329 331 332 333 332 331 329 327 327 329 332 334 335 336 336 333 332 330 327 330 330 330 329 329 327 325 328 328 328
292 286 289 294 294 294 304 307 309 307 308 311 314 319 322 321 322 321 321 322 324 326 328 330 329 327 326 326 326 324 325 327 330 332 332 331 327 326 327 328 329 328 327 327 327 324 321 316 314
292 290 293 297 296 300 303 303 306 307 304 310 309 315 319 316 316 317 317 317 318 323 325 326 327 328 326 325 324 323 324 327 330 330 329 328 326 326 323 323 322 320 322 316 314 313 310 307 307
290 295 295 297 297 301 303 305 305 306 308 316 313 317 316 315 314 316 315 316 317 322 323 324 325 326 326 327 326 329 329 329 330 328 328 327 324 322 321 319 319 317 315 313 312 313 310 307 305
293 296 299 300 299 301 308 305 303 305 312 317 317 317 314 312 310 312 315 316 318 319 320 322 323 324 324 325 325 325 325 326 326 327 328 325 321 320 319 318 316 314 314 312 313 311 309 307 305
298 299 299 299 299 307 306 304 304 307 312 314 315 312 311 310 309 310 313 314 317 318 319 321 322 322 323 323 323 322 323 323 324 324 324 323 321 319 318 316 314 312 312 312 313 311 309 307 305
300 295 296 297 296 303 304 298 301 308 311 313 313 311 310 310 308 312 313 314 316 316 319 319 319 321 321 321 321 321 323 324 323 323 321 320 320 318 317 315 314 313 314 312 314 311 309 305 304
294 293 288 294 295 298 299 292 300 307 308 309 310 310 310 310 310 307 314 314 316 316 317 319 320 320 319 319 319 320 320 322 323 323 321 319 318 318 317 316 315 315 315 313 313 312 309 307 304
290 285 288 292 296 296 296 293 300 306 307 309 309 310 309 308 308 308 310 313 315 316 316 317 318 318 317 317 317 318 318 318 320 321 321 320 320 320 318 317 316 316 315 315 314 312 310 307 305
285 286 287 288 293 297 295 295 299 305 308 309 308 310 308 307 308 309 312 314 315 317 317 316 316 317 317 316 316 317 317 317 318 318 320 321 321 322 319 319 319 319 317 315 314 312 310 308 306
292 290 288 291 296 297 297 295 299 301 304 304 307 308 308 308 309 309 311 314 314 315 315 314 315 314 314 313 314 314 315 315 317 317 319 321 321 323 321 319 319 319 318 316 314 310 309 309 307
292 290 289 293 296 297 295 296 298 301 303 304 306 308 308 308 308 308 307 310 310 314 314 313 312 311 312 314 314 313 316 315 315 317 318 318 320 320 321 320 319 319 317 315 312 310 308 309 305
291 290 290 290 293 293 294 292 296 301 302 307 308 310 310 309 308 308 308 308 310 312 313 313 311 312 312 312 314 311 312 313 312 313 315 316 317 320 321 321 320 318 317 315 312 311 310 308 306
289 295 294 293 290 286 292 283 290 297 300 303 306 308 309 310 310 309 308 307 309 310 313 312 312 311 313 313 309 309 309 310 312 313 312 313 317 318 320 321 320 319 318 315 314 314 312 310 307
293 297 295 294 290 286 287 284 288 296 297 300 303 307 310 311 311 309 308 308 309 310 311 311 312 311 312 312 311 310 309 311 310 309 309 311 313 318 319 319 318 318 318 318 316 313 311 312 310
299 296 295 292 289 283 288 286 285 292 297 300 304 306 309 310 311 311 310 310 309 310 310 311 311 311 312 312 310 310 310 310 309 308 309 312 313 314 317 319 319 319 319 318 317 317 315 314 313
295 290 283 281 281 282 290 286 290 293 299 301 303 305 309 310 311 311 309 309 309 308 309 310 311 310 311 311 311 310 310 310 310 310 311 311 312 313 315 317 319 319 319 319 318 316 316 313 311
292 291 283 280 279 282 290 286 291 297 299 301 303 307 308 310 311 312 311 310 310 309 309 310 310 310 311 310 310 311 311 312 313 313 312 313 313 315 315 316 319 319 319 317 316 316 314 312 311
293 288 295 287 286 283 287 291 295 298 298 299 300 304 305 308 310 311 312 311 311 310 310 310 310 310 311 311 310 311 312 313 313 315 315 315 314 315 315 316 317 318 318 318 317 317 316 311 309
295 297 288 287 281 280 284 286 288 294 297 298 298 300 305 308 310 312 312 312 312 311 311 312 312 310 311 312 310 311 311 313 316 317 318 318 317 318 318 316 317 318 318 317 318 317 310 307 305
291 291 292 291 287 283 281 284 293 295 298 298 298 298 303 305 309 311 313 314 313 313 312 312 312 313 312 313 313 311 311 312 315 317 319 320 318 318 317 317 318 318 317 315 313 309 306 304 301
295 293 294 287 286 286 284 287 296 297 298 298 298 299 299 303 308 311 313 314 314 313 313 313 313 313 315 316 316 316 316 319 319 320 321 322 320 318 318 315 315 314 313 311 308 305 303 301 300

GFSSGP_sfc_thetae_069.txt.gz
Theta_e
322 318 315 308 299 297 294 295 297 297 301 306 315 312 310 314 310 306 331 337 342 345 347 346 346 347 348 349 349 349 349 349 349 348 348 348 348 347 345 344 344 344 344 342 342 341 339 338 337
316 315 310 302 297 293 294 295 296 299 306 313 316 317 314 311 321 327 329 336 342 344 345 345 345 346 347 348 348 348 349 349 348 348 348 347 346 345 344 343 342 341 342 339 339 338 338 337 336
312 308 306 298 293 293 293 296 299 300 304 313 313 318 316 313 322 327 337 335 339 341 343 341 341 342 346 346 347 347 347 346 346 346 347 345 345 345 344 342 341 342 342 340 338 338 337 336 335
310 307 301 298 293 296 297 300 300 301 309 315 316 312 319 323 326 331 335 336 337 336 336 340 340 341 343 346 346 346 345 344 344 344 344 345 345 344 342 340 341 342 340 341 338 337 335 334 333
307 303 297 294 293 296 298 300 301 304 309 311 315 310 312 321 330 331 333 337 337 333 337 338 337 339 342 344 345 345 343 342 342 342 342 343 343 342 341 340 341 341 342 342 337 334 332 332 332
303 301 295 292 293 296 299 301 304 308 309 310 311 311 313 326 327 329 333 335 335 331 334 338 337 339 340 341 342 341 341 342 341 341 341 342 341 340 340 338 337 339 339 340 336 333 331 331 330
301 298 294 293 293 295 298 308 308 308 308 309 315 311 318 319 326 330 333 335 334 332 332 336 339 339 338 338 337 337 339 340 340 339 339 339 338 338 337 335 336 338 338 337 334 332 331 330 329
302 300 293 294 294 295 300 308 312 310 308 317 319 311 312 320 327 331 333 332 333 334 336 334 337 335 339 340 336 335 336 336 336 338 337 336 337 337 335 334 336 338 336 334 332 331 330 329 328
301 297 293 294 293 297 300 302 311 314 312 315 320 320 320 323 327 328 328 327 330 331 333 336 335 331 331 333 334 332 333 333 333 334 335 334 337 334 329 330 335 336 334 332 331 330 329 328 327
300 296 296 298 298 299 301 300 305 308 309 310 316 321 321 323 324 322 324 324 326 328 330 331 331 328 329 330 327 326 326 325 328 331 335 335 332 330 327 330 332 333 333 331 330 329 328 325 324
298 296 298 299 300 300 299 303 311 308 306 311 311 316 319 320 322 321 320 322 324 326 327 328 329 329 328 328 328 328 327 325 328 329 331 331 328 328 327 328 328 331 331 329 328 326 323 323 322
296 299 299 299 300 301 299 306 307 309 310 315 316 318 318 319 318 319 320 321 323 326 326 328 328 327 327 327 326 329 327 326 327 331 332 329 325 324 324 322 323 324 328 329 326 323 322 322 321
296 298 299 300 301 301 305 304 305 308 313 317 318 319 318 317 316 318 320 320 322 324 324 326 326 325 324 323 325 327 326 325 327 329 330 325 321 319 322 321 319 319 322 323 321 321 319 319 319
300 298 300 302 302 303 303 304 307 309 313 316 317 317 318 316 315 315 316 319 320 323 323 323 325 324 322 321 323 324 325 328 328 328 328 326 322 323 321 320 318 318 319 319 318 317 316 316 317
301 298 299 300 300 300 307 302 304 310 314 314 316 317 316 315 315 315 316 317 321 321 322 324 324 325 322 321 322 324 326 326 326 327 326 324 324 324 323 320 318 319 319 317 316 315 314 312 312
297 296 293 297 300 302 304 296 304 306 311 312 314 316 315 314 315 315 316 316 319 321 322 325 324 324 323 323 324 325 327 327 327 327 324 323 324 324 322 319 319 320 320 318 315 313 311 311 310
293 290 291 294 299 303 301 297 301 308 310 310 313 315 315 314 314 315 317 316 317 319 322 322 322 321 322 324 325 324 325 325 325 324 323 323 323 324 322 320 320 321 321 319 317 316 314 311 310
289 290 291 292 297 298 298 298 302 304 308 310 311 314 314 314 314 315 316 315 316 319 320 320 321 320 321 321 321 322 324 325 324 323 322 321 322 322 322 321 321 321 321 320 319 318 317 315 312
294 292 291 294 297 295 295 297 301 303 306 307 309 311 314 313 317 315 316 317 315 316 318 319 318 319 319 319 321 318 317 319 321 322 322 320 321 321 321 321 321 322 320 320 321 320 317 316 315
293 292 292 295 297 296 296 296 300 302 305 307 308 310 313 314 313 313 314 315 315 314 317 318 318 317 319 320 320 320 320 320 319 321 321 320 321 322 321 320 321 321 321 321 319 319 318 318 315
293 292 292 292 294 296 295 294 298 302 304 306 309 311 314 314 312 311 312 313 314 314 314 316 318 317 318 318 317 317 316 316 317 317 318 320 321 322 322 321 323 322 323 321 321 320 320 318 316
290 295 294 293 291 287 296 288 294 300 299 302 306 309 312 314 315 313 312 312 312 314 315 318 318 317 319 318 315 316 315 312 315 317 318 319 321 322 323 323 323 322 324 323 321 323 322 321 317
293 297 294 294 291 290 291 289 293 296 298 301 305 307 310 313 315 314 313 313 313 314 314 318 318 318 318 318 318 317 316 317 316 314 315 317 318 320 321 323 322 323 322 322 324 322 320 320 320
298 295 295 294 292 286 290 291 291 295 299 302 304 306 309 312 314 315 316 314 313 314 313 317 316 316 318 317 317 317 318 318 313 313 315 314 316 318 320 320 324 325 324 325 325 324 323 322 321
296 293 286 285 285 284 292 290 294 299 301 302 304 306 308 311 314 315 313 312 312 312 311 314 314 314 316 317 316 316 316 318 318 315 316 313 314 315 318 322 322 322 323 323 324 324 323 323 322
293 293 287 281 283 286 290 288 293 301 303 303 303 305 306 309 313 314 314 314 312 311 311 313 312 312 314 316 316 316 317 317 318 318 317 316 317 318 319 320 321 322 322 323 324 324 324 324 323
293 290 296 289 289 287 290 294 299 301 303 303 304 304 307 307 312 314 315 315 314 313 313 313 311 311 313 316 316 316 316 316 316 317 318 319 319 319 319 320 320 321 322 323 324 323 323 323 324
297 298 289 289 282 281 287 289 292 296 300 303 302 304 306 307 310 313 315 315 315 315 315 315 314 313 315 316 316 316 316 316 317 318 317 318 319 318 318 319 319 320 321 322 323 323 324 322 323
293 292 293 293 290 285 283 288 298 300 302 302 304 305 305 306 309 313 315 317 316 316 315 314 314 314 315 316 316 316 316 316 316 316 317 317 318 318 317 319 319 319 320 321 321 322 322 320 320
296 294 294 288 287 289 288 289 301 301 302 303 304 304 305 305 308 312 315 316 316 316 315 315 315 315 316 317 316 316 316 315 315 315 315 316 316 318 319 317 318 320 320 321 320 317 315 315 314

GFSSGP_sfc_thetae_072.txt.gz
Theta_e
322 324 325 316 304 304 300 300 304 303 305 311 316 313 311 315 311 307 337 342 344 345 348 349 347 349 350 350 350 349 350 350 349 349 349 349 349 349 348 347 346 346 346 345 343 342 341 340 338
322 321 319 313 301 297 300 303 301 306 308 313 316 318 316 313 324 328 335 341 344 345 345 346 345 346 349 349 349 349 350 349 349 349 349 349 349 347 347 345 344 344 345 343 342 340 340 338 337
319 317 311 307 302 298 300 303 305 307 309 311 314 321 318 317 325 332 338 342 344 344 345 344 341 342 343 347 348 348 348 347 348 347 349 348 347 346 345 343 342 343 344 341 339 338 338 335 336
316 314 311 302 299 302 302 306 306 306 312 314 316 312 323 328 328 336 339 341 343 342 346 340 339 339 342 343 346 348 347 346 346 346 347 347 346 345 343 341 341 341 341 339 338 338 336 335 334
318 312 302 300 300 302 305 306 307 306 310 313 316 310 315 326 334 335 337 340 341 339 341 337 338 339 342 343 345 346 345 344 344 344 344 345 345 344 342 340 340 340 340 339 336 336 334 333 333
309 310 299 297 300 303 305 308 307 308 311 313 313 314 316 329 330 333 337 338 342 338 341 344 339 340 342 341 344 343 343 343 343 343 343 344 343 341 341 340 340 340 339 337 335 334 333 332 331
306 303 299 299 299 301 304 309 309 308 309 310 317 312 320 326 331 333 336 340 341 334 336 343 343 341 337 338 338 338 341 341 341 341 341 340 339 339 340 339 339 339 338 336 334 333 332 331 330
309 306 299 300 299 300 305 307 311 310 308 319 320 311 314 325 330 334 335 338 337 335 334 337 341 341 341 343 335 337 337 338 339 339 338 337 338 336 336 337 339 338 336 334 333 332 331 330 329
310 301 298 300 300 302 306 305 310 315 312 317 321 321 325 328 330 331 332 332 331 333 336 336 339 340 340 339 337 336 337 337 336 336 336 334 337 336 334 335 337 336 334 333 332 331 330 329 328
305 301 301 304 305 304 305 305 307 309 310 313 316 324 326 327 327 327 329 328 331 331 335 338 338 339 335 334 333 332 332 334 332 332 333 334 337 335 330 335 335 333 332 331 331 330 328 326 325
304 300 304 304 306 306 306 306 310 309 307 310 312 319 324 325 325 326 327 330 330 332 335 336 332 333 330 328 327 327 327 326 331 331 331 334 335 332 332 336 335 332 329 326 327 326 325 325 324
300 304 304 305 306 305 305 308 308 310 311 317 318 321 323 324 324 325 326 328 330 328 331 333 333 330 330 328 326 326 324 324 326 328 331 333 331 330 331 332 331 330 328 327 326 325 326 325 324
302 303 305 306 306 306 307 306 306 308 314 319 320 322 322 323 324 325 326 328 327 328 329 329 332 331 328 329 328 326 324 322 326 328 330 332 328 328 327 330 331 330 330 329 327 325 324 323 322
304 304 304 305 305 306 304 306 308 309 315 317 319 320 322 322 322 323 324 325 324 325 326 327 327 328 326 328 326 326 324 323 326 327 328 332 328 327 323 325 327 330 331 330 326 323 322 321 321
304 300 302 304 305 304 306 302 304 311 315 315 319 320 321 321 322 322 323 323 325 323 325 326 325 324 324 324 325 325 326 326 326 326 327 328 327 325 325 323 323 325 327 327 325 323 321 320 320
300 301 297 302 303 305 307 299 306 311 313 313 317 320 320 321 321 323 324 322 325 323 324 325 326 324 324 324 324 325 326 327 327 326 328 326 325 325 324 322 322 324 324 322 321 320 317 318 317
300 295 297 299 304 304 306 301 307 312 311 311 315 318 320 321 322 323 324 323 324 325 326 324 326 323 324 324 324 325 326 326 327 326 325 325 325 326 324 322 323 325 321 321 321 320 319 316 315
295 295 297 297 301 303 302 302 307 309 310 311 314 317 319 320 321 323 323 322 323 324 324 323 324 323 323 323 325 324 325 327 326 325 323 323 323 324 323 322 325 325 322 322 321 320 320 319 316
300 297 296 299 301 300 300 301 304 309 309 311 314 315 318 320 323 324 324 323 322 322 322 323 320 321 322 322 321 319 321 322 324 324 324 324 323 323 324 322 324 325 323 324 324 323 321 319 319
299 296 296 299 301 299 299 299 303 307 308 310 311 314 316 320 321 322 322 322 322 321 321 322 320 320 322 321 322 322 321 324 325 323 323 322 325 323 323 322 323 325 324 326 325 323 320 322 322
298 296 296 296 299 300 299 297 300 305 309 310 313 315 317 319 320 321 321 322 322 319 321 321 321 322 323 324 325 322 320 320 320 321 321 321 322 324 322 321 320 322 324 323 324 324 323 321 322
294 300 298 297 295 291 298 290 299 303 305 307 309 314 316 318 321 322 322 321 321 321 320 322 320 322 322 322 320 322 321 316 321 319 320 321 321 322 321 320 320 322 324 324 326 325 325 325 322
296 301 298 298 296 295 295 291 297 302 301 305 308 310 315 319 321 322 322 322 323 322 321 320 321 323 321 320 321 320 321 317 319 320 319 319 320 322 322 322 322 322 323 326 327 325 326 326 324
301 298 298 298 296 288 293 293 294 300 302 305 307 309 311 317 320 322 324 324 322 323 322 322 322 322 322 322 320 319 318 318 317 316 318 317 318 319 321 322 324 325 324 327 327 326 327 327 326
299 296 290 288 288 287 295 293 295 303 305 307 308 309 311 316 319 321 322 322 322 321 321 321 322 321 322 322 322 321 322 322 319 317 317 316 316 317 318 321 321 322 324 321 324 324 326 326 326
296 296 291 284 287 290 295 291 296 305 307 309 309 310 311 313 318 320 322 322 322 322 321 320 321 321 322 322 323 323 323 323 322 322 321 322 321 321 323 323 321 322 322 321 324 325 325 326 326
296 293 299 293 293 290 294 297 302 305 306 308 309 311 311 313 316 319 321 323 323 323 322 320 320 321 322 323 323 323 323 324 325 324 324 324 324 323 324 325 324 324 324 325 326 325 325 325 326
299 301 292 293 285 284 291 293 295 299 301 306 307 308 310 313 313 318 321 322 323 324 323 322 322 320 321 322 323 322 322 323 323 325 325 326 325 325 325 325 325 325 324 324 324 324 325 324 326
296 295 296 296 293 287 286 291 303 302 303 305 307 310 311 314 313 317 320 322 323 324 323 323 322 320 320 321 323 323 322 322 324 325 325 325 326 325 324 323 324 322 323 323 323 323 323 323 324
299 296 297 291 290 293 293 292 304 305 306 306 308 310 312 314 313 315 320 321 322 323 323 323 323 321 321 322 323 323 323 322 322 323 325 327 326 326 325 323 321 322 322 323 324 323 322 323 323

GFSSGP_sfc_thetae_075.txt.gz
Theta_e
323 323 324 318 305 305 302 303 307 304 306 311 313 311 310 312 309 307 338 342 344 346 349 349 347 348 350 349 350 350 350 350 350 349 349 349 349 348 349 348 347 348 347 345 345 344 343 342 341
323 322 321 314 302 300 303 306 303 306 309 312 313 313 312 311 320 323 334 343 344 345 347 347 346 348 347 347 349 349 350 350 349 349 350 350 349 349 348 346 345 345 346 344 344 343 340 339 339
323 321 313 308 304 300 302 306 306 308 311 310 310 317 315 315 323 330 341 343 346 347 347 347 344 340 337 333 333 346 348 348 348 348 349 350 349 348 347 345 344 345 345 343 343 340 338 337 337
317 315 312 303 301 305 304 307 308 308 311 313 313 310 320 331 327 336 340 342 343 347 346 341 336 336 335 332 328 341 346 346 346 347 348 349 348 347 345 343 344 344 344 341 340 338 336 335 335
318 313 304 303 303 305 308 308 309 307 308 311 313 310 313 329 334 336 338 340 341 346 348 344 336 337 337 334 336 332 344 345 346 346 346 346 346 344 342 341 342 342 341 340 337 335 334 334 334
310 310 302 300 303 306 308 310 309 308 310 311 311 312 315 332 331 335 338 340 342 344 347 341 338 337 336 340 330 331 341 343 344 344 344 344 343 341 340 340 340 340 339 338 337 334 333 333 333
308 307 302 302 302 303 306 311 309 309 309 309 315 310 318 327 333 335 337 340 340 342 344 347 345 340 338 338 333 331 339 341 343 343 342 341 340 339 340 340 340 338 337 337 335 334 333 332 331
310 307 302 303 301 302 309 308 311 310 309 317 316 309 312 329 331 334 336 339 340 340 340 342 345 343 341 342 337 336 337 338 339 341 340 338 338 339 339 338 338 337 336 335 333 333 332 330 329
312 302 300 302 303 304 309 306 312 314 311 313 317 319 326 330 331 332 333 334 337 338 337 336 343 343 344 343 340 337 337 337 337 338 337 334 336 337 337 336 336 335 334 333 333 332 330 329 328
307 302 302 308 307 305 308 307 309 308 309 311 314 320 329 329 329 328 329 328 333 334 337 340 340 340 340 336 335 335 337 339 336 335 334 332 332 337 336 336 334 333 332 331 331 330 328 325 323
307 302 306 308 307 308 307 307 310 308 307 310 312 313 325 327 327 327 327 328 330 333 335 337 339 340 338 337 337 336 334 334 334 330 330 331 331 334 335 335 333 331 329 325 326 326 323 324 322
303 306 307 308 308 307 306 309 308 309 310 314 317 319 322 324 325 324 327 328 329 332 333 336 335 334 333 332 329 332 333 330 328 327 329 330 329 332 336 332 332 326 325 324 323 323 327 325 324
304 306 307 308 307 307 308 306 307 308 312 314 317 320 321 323 324 325 327 329 331 330 331 335 335 333 332 329 325 325 326 327 329 328 328 329 328 330 331 332 331 327 328 326 324 325 324 324 324
307 306 306 307 307 307 305 305 307 309 313 314 316 319 321 323 323 323 324 326 328 329 330 332 334 332 331 329 327 325 323 324 325 326 327 328 328 328 331 332 330 330 330 327 325 325 323 322 323
307 302 305 306 306 305 307 303 304 310 311 312 314 320 321 323 324 322 324 324 328 327 328 330 329 333 329 329 328 325 322 323 325 325 327 327 327 329 331 332 331 330 331 331 328 324 323 321 321
303 303 299 305 307 307 305 298 308 311 312 313 316 319 320 322 323 324 326 324 327 327 326 328 329 327 327 327 325 324 323 322 324 326 326 326 327 328 329 328 329 331 331 328 324 322 320 320 320
302 297 299 302 307 305 304 302 309 313 312 312 315 318 320 322 323 324 326 325 326 328 327 327 325 324 324 325 325 325 323 324 325 326 325 325 326 327 327 326 327 330 327 327 324 322 320 318 318
297 298 300 300 305 304 303 303 307 311 312 312 314 317 319 321 322 325 326 326 326 327 328 327 325 325 323 323 325 324 324 324 325 324 324 326 327 327 327 325 326 325 323 323 322 323 321 320 318
302 301 300 303 306 302 302 303 305 309 310 311 312 315 318 320 324 326 327 326 325 326 325 327 324 324 323 323 321 321 320 322 325 324 323 324 325 326 325 325 327 327 323 323 326 323 323 320 321
301 299 300 303 304 301 301 301 305 307 307 310 311 313 316 319 322 324 326 326 324 325 323 325 324 325 324 322 323 323 322 323 324 324 322 322 324 324 324 325 325 326 323 326 327 326 322 322 323
301 299 300 299 303 303 300 299 302 306 308 309 311 313 315 317 321 323 325 326 325 324 324 325 324 322 324 325 325 324 324 323 322 322 323 322 323 323 323 325 326 327 326 325 326 327 325 321 322
297 303 301 300 298 294 302 292 300 304 305 308 310 312 313 316 320 323 325 325 326 324 326 324 323 324 323 325 322 320 318 317 319 321 321 320 322 324 323 324 325 326 327 324 328 328 327 324 319
298 302 301 300 298 298 298 294 298 304 302 305 309 311 313 316 319 323 324 325 326 326 324 326 322 324 323 324 324 320 319 319 322 321 319 319 320 322 323 323 322 321 323 323 326 326 326 325 322
302 300 300 300 298 291 296 296 296 300 303 307 308 310 312 315 319 323 326 326 326 327 325 325 323 323 324 323 326 324 325 322 320 319 318 317 318 319 321 321 321 320 321 320 324 327 326 326 325
300 297 290 289 289 289 299 295 298 303 306 308 308 310 312 315 318 321 323 324 325 325 324 323 323 323 323 323 324 325 325 325 320 322 318 318 316 318 319 321 320 318 318 321 321 324 326 321 319
297 297 292 285 287 291 299 292 298 306 307 310 310 311 313 314 318 319 323 325 325 326 325 323 322 323 324 323 323 324 324 324 325 323 322 323 320 320 321 320 319 318 319 322 322 321 324 321 324
294 293 299 293 296 292 295 299 303 306 306 308 309 311 312 314 316 319 322 324 326 326 326 324 323 323 324 325 325 324 326 325 324 325 326 324 324 324 324 322 319 319 319 321 325 319 320 321 322
297 300 291 294 285 285 291 294 296 301 303 306 308 310 312 314 315 317 321 324 325 326 327 327 324 323 324 325 326 325 326 326 327 327 326 326 326 326 324 323 322 321 320 322 325 324 323 319 320
295 293 295 297 294 288 287 293 304 303 305 305 308 310 312 313 315 317 321 323 326 327 327 326 325 323 323 326 325 325 327 327 329 328 328 328 328 327 326 325 324 323 323 324 324 323 324 322 323
298 295 296 291 290 294 293 293 305 306 307 307 308 309 312 313 315 316 319 322 324 325 326 326 325 324 324 327 327 327 327 326 327 328 329 330 328 328 327 326 325 325 324 325 324 323 322 323 322

GFSSGP_sfc_thetae_081.txt.gz
Theta_e
321 315 309 308 296 292 288 294 298 298 301 304 308 306 304 304 310 306 334 339 346 344 346 349 349 350 350 350 350 350 350 350 351 350 349 349 349 348 348 347 347 348 349 348 346 345 345 346 346
313 313 307 303 292 286 291 298 297 302 305 307 308 307 304 310 322 331 332 340 342 344 343 344 347 350 350 349 349 350 351 350 351 350 349 349 349 348 348 348 347 348 349 347 344 345 344 345 344
315 314 301 296 291 290 290 298 300 304 307 305 303 306 309 316 325 331 335 340 342 343 344 344 344 347 343 341 341 345 346 343 348 349 350 349 349 349 349 346 346 346 347 346 345 343 343 343 341
308 306 301 291 290 295 298 300 302 302 304 308 307 303 320 323 326 334 336 340 339 340 343 339 341 341 340 339 340 339 337 335 333 338 348 349 349 349 347 345 345 345 346 345 342 342 341 340 339
303 299 291 289 292 298 303 303 301 300 302 306 308 303 314 326 332 333 334 336 335 339 339 337 338 339 341 339 340 338 337 336 333 331 339 346 348 346 345 344 343 344 344 342 340 340 338 338 336
297 297 288 287 293 300 302 303 303 304 305 306 305 305 316 328 330 333 334 334 336 338 337 337 338 339 338 339 338 336 337 334 335 332 330 343 345 344 343 342 341 342 341 339 338 337 337 336 334
296 292 289 291 295 298 301 304 304 305 305 304 306 303 318 325 330 332 334 335 336 336 336 334 335 337 337 335 336 334 333 334 330 328 333 340 342 341 341 341 341 340 339 337 337 336 335 334 332
300 295 291 293 294 295 302 305 306 306 305 311 307 302 314 324 329 332 332 331 332 335 333 335 336 334 332 332 333 332 331 331 329 329 330 339 339 340 339 339 338 338 337 336 335 334 333 332 329
300 291 291 292 295 298 303 301 308 308 305 309 308 309 320 328 329 327 328 326 329 332 332 332 337 337 332 332 331 333 332 331 331 332 332 335 337 337 336 336 335 336 335 334 334 333 331 329 327
297 289 293 299 301 299 303 302 305 303 304 304 305 323 326 326 323 323 325 324 326 327 329 331 332 332 334 336 331 330 331 328 328 329 335 335 334 333 333 334 334 334 333 333 331 330 328 323 318
297 294 298 301 303 303 301 300 301 300 299 304 306 319 322 322 321 320 321 324 325 327 331 331 332 331 332 332 330 330 330 328 327 331 332 333 333 332 331 331 330 329 330 326 325 323 319 316 316
296 300 301 302 304 302 299 300 300 299 303 308 308 316 321 320 319 319 319 323 324 326 328 332 332 330 331 330 328 328 330 330 329 331 331 329 329 329 329 327 327 326 322 320 318 317 316 314 317
299 300 302 303 302 302 303 300 300 302 305 305 307 310 311 312 316 318 319 323 326 325 326 328 330 329 326 324 323 326 329 331 330 330 330 328 328 328 327 326 324 322 322 318 316 316 315 315 316
302 301 301 301 300 302 301 300 298 302 305 304 304 303 310 312 314 314 320 324 325 326 325 327 329 327 323 323 323 326 328 329 329 328 327 327 329 329 326 321 319 319 319 316 316 317 315 314 316
303 297 299 299 300 299 302 296 298 303 304 303 303 303 310 312 314 315 317 324 324 325 326 326 326 327 323 321 323 324 326 327 327 327 326 327 328 328 324 319 317 317 317 314 317 318 317 316 317
297 296 291 298 300 301 296 293 301 303 302 301 301 301 309 312 315 315 317 321 323 325 325 326 329 326 325 321 321 323 325 325 326 326 326 327 327 327 325 318 319 318 319 315 318 318 315 314 315
293 288 292 295 301 300 297 295 301 303 303 303 301 303 309 311 314 315 317 322 322 324 324 324 325 326 325 323 321 322 323 324 324 326 325 325 326 326 326 321 322 320 320 317 319 317 315 314 313
288 289 290 292 298 301 297 297 300 301 303 303 303 303 309 311 314 316 318 319 323 322 323 323 324 326 325 323 322 321 322 323 324 324 324 325 325 325 325 324 324 323 320 319 317 316 314 314 315
295 293 292 295 300 300 299 296 297 300 300 301 302 303 307 312 315 317 319 318 321 322 321 321 322 323 323 321 319 318 319 321 321 321 321 322 323 323 324 323 323 323 321 317 316 314 313 311 313
292 290 290 295 299 299 298 298 299 299 300 300 304 303 305 312 313 317 317 317 320 320 320 319 321 322 323 322 321 320 320 321 321 321 319 322 321 321 320 321 321 320 318 316 314 315 314 312 313
292 291 291 292 297 299 298 295 297 300 301 302 302 306 307 312 313 316 317 316 319 319 320 319 320 321 322 323 322 321 321 321 320 320 319 320 320 321 321 320 320 318 319 316 316 316 314 312 313
288 295 296 296 294 289 298 287 296 297 299 302 303 301 301 308 315 317 317 315 317 318 321 320 321 320 321 323 321 319 318 316 319 319 318 319 320 320 320 319 319 317 317 316 317 318 316 315 311
291 297 296 295 293 293 294 290 294 298 296 299 302 303 302 303 315 317 318 317 318 319 318 319 321 322 322 322 322 320 318 319 319 320 317 317 318 319 317 319 318 317 318 318 318 318 318 318 314
299 296 295 294 292 286 291 290 290 294 298 300 302 303 304 304 314 318 320 319 318 318 317 319 319 320 321 322 322 320 319 318 317 317 317 317 317 315 316 319 320 320 319 319 319 320 320 319 317
295 291 285 283 284 282 293 290 292 299 302 303 304 302 304 305 312 317 318 318 318 317 317 318 317 317 321 321 322 321 320 319 318 318 317 317 316 315 317 317 319 320 321 320 321 320 320 319 317
292 290 285 280 281 285 293 287 292 301 304 304 304 304 305 306 311 317 318 319 319 318 317 318 317 318 318 321 321 321 321 320 319 319 319 318 318 317 317 318 319 320 320 320 319 319 319 318 317
290 287 293 287 289 285 290 294 299 302 303 302 302 304 304 307 310 317 318 319 319 317 318 318 317 318 319 319 320 320 319 319 319 320 320 320 319 319 318 316 317 318 318 318 318 317 316 317 317
292 296 287 287 281 280 288 291 293 298 299 302 301 301 303 306 308 310 318 319 320 319 318 318 318 318 319 319 320 321 320 320 321 320 319 320 319 317 317 317 317 318 317 317 316 316 316 316 316
291 289 290 291 288 285 283 289 301 299 301 302 302 303 305 305 306 309 312 319 320 320 319 318 318 318 318 320 320 320 321 322 323 321 321 321 321 318 316 316 316 316 316 315 314 314 314 315 315
296 292 291 286 286 289 288 288 304 304 304 303 302 304 305 305 305 307 310 318 319 320 319 318 318 318 319 320 319 318 319 320 321 321 321 321 321 321 318 317 314 315 316 316 314 313 314 313 314

GFSSGP_sfc_thetae_087.txt.gz
Theta_e
320 310 305 305 294 289 285 290 292 295 297 301 304 302 301 302 303 294 324 338 341 342 346 346 347 349 350 349 349 350 351 351 350 350 350 351 350 350 350 350 349 350 348 348 350 350 348 347 346
309 308 304 297 289 283 285 292 293 297 301 304 304 305 305 310 326 327 331 341 342 343 345 345 347 348 349 349 349 350 350 350 350 350 350 347 347 348 347 348 348 348 348 349 348 348 347 346 344
310 309 299 293 286 284 287 294 296 301 302 301 300 304 308 313 329 330 333 342 341 341 344 346 346 347 348 349 349 349 349 348 348 348 348 347 346 345 347 347 347 348 348 345 347 347 345 343 341
304 302 298 289 287 290 292 297 298 297 302 302 301 306 316 324 330 333 338 343 339 339 340 343 344 346 348 348 348 348 347 342 341 343 343 343 343 343 344 344 344 346 346 346 347 344 343 340 338
299 296 289 285 287 291 296 298 297 297 299 301 303 304 313 326 332 335 337 341 337 336 338 340 342 345 347 348 347 346 340 337 335 337 338 336 338 338 339 341 343 344 344 346 345 343 340 339 337
294 292 285 284 288 293 296 298 298 299 300 303 302 311 314 326 329 332 335 335 337 335 335 340 342 343 343 345 344 341 339 336 335 335 336 335 336 339 338 340 341 343 342 343 341 341 338 336 335
292 288 284 284 288 292 296 299 298 300 300 301 305 310 316 323 327 331 334 334 334 333 332 337 338 339 340 339 339 336 338 336 335 335 336 338 336 336 337 339 339 341 340 340 340 339 335 335 334
295 292 287 288 289 291 297 299 300 301 301 306 314 311 312 321 329 331 331 330 331 331 330 331 333 336 336 333 336 335 334 335 336 336 335 336 336 335 336 337 337 338 340 339 338 336 333 334 332
295 288 286 288 290 291 296 297 301 303 301 304 305 316 317 327 330 327 324 324 325 328 328 328 334 334 333 330 332 335 336 334 334 335 336 333 331 335 333 334 335 337 337 337 335 333 331 332 330
294 287 289 294 296 293 297 298 299 298 299 300 305 320 325 328 327 324 321 322 323 324 326 329 329 330 331 331 328 326 329 328 328 330 331 333 331 333 333 333 334 335 335 335 333 330 330 328 325
295 291 296 296 297 297 294 296 297 296 296 300 301 316 322 325 325 323 322 322 324 324 325 327 329 331 329 329 327 327 328 328 326 325 326 327 328 332 333 333 333 332 332 329 327 322 320 322 321
292 296 299 298 299 296 295 297 296 296 300 303 304 317 321 322 322 322 322 321 322 322 324 326 327 330 331 329 327 326 326 326 324 327 326 326 329 329 331 331 330 328 327 323 320 315 315 317 318
295 297 299 301 300 298 299 297 297 299 302 302 302 319 319 320 321 321 322 323 322 322 324 325 326 326 327 329 328 327 326 324 325 329 328 328 329 329 331 329 328 325 323 321 317 313 314 316 317
298 299 300 300 300 300 298 298 294 298 301 299 299 314 317 318 319 316 317 321 322 324 325 325 326 326 325 326 328 328 327 325 326 329 329 330 331 330 329 327 324 323 322 318 316 313 313 315 317
300 295 297 296 297 296 298 291 292 299 300 299 298 304 315 317 316 316 318 321 324 325 327 325 323 321 321 321 325 328 328 327 328 328 329 330 330 328 327 325 322 321 321 318 317 312 312 314 317
296 294 289 295 296 298 295 291 296 300 298 297 298 297 299 311 316 317 318 323 324 324 325 323 324 318 317 320 322 325 328 328 328 329 329 328 328 327 325 322 320 319 317 316 316 313 312 314 316
290 286 288 292 297 296 293 291 295 299 298 297 297 297 297 299 307 312 320 324 324 324 324 323 319 317 318 319 320 323 326 327 328 327 328 328 327 325 322 320 318 315 314 315 315 313 313 313 313
287 286 285 288 292 294 292 292 296 298 298 297 296 298 298 297 305 311 321 324 324 324 325 324 319 317 318 320 322 322 324 324 327 326 327 328 326 323 319 318 317 316 312 314 313 312 312 312 314
291 289 287 289 294 294 293 293 295 297 296 297 297 297 298 298 304 312 321 323 324 325 324 322 321 319 318 318 318 319 319 322 323 325 326 327 326 322 318 318 316 315 312 314 314 312 311 310 312
291 288 286 289 293 294 292 292 296 297 299 298 300 300 301 300 307 313 319 322 323 323 322 322 321 319 318 319 318 319 320 321 322 323 325 326 326 322 319 319 316 315 312 315 313 312 310 310 311
286 285 285 286 293 293 293 290 293 298 298 300 302 300 299 302 307 313 317 319 321 321 320 320 321 321 319 319 320 320 318 320 319 319 322 322 325 324 321 320 318 317 313 315 314 313 311 309 310
284 291 291 291 289 282 293 282 291 295 297 300 301 301 299 300 310 313 316 317 319 321 321 320 321 320 321 320 318 318 316 316 318 319 320 321 321 323 322 320 320 319 318 315 315 314 314 312 310
289 295 293 292 288 287 288 285 287 295 294 298 300 301 300 299 309 311 315 317 318 321 319 318 319 320 320 320 320 319 318 317 318 319 318 319 319 320 322 321 320 320 319 317 315 313 312 312 311
297 293 292 292 288 280 285 286 285 289 293 297 301 302 301 298 308 312 315 317 317 318 318 317 318 320 320 319 320 319 318 317 316 316 316 317 318 318 318 320 319 319 319 316 316 315 313 312 312
292 286 275 276 280 278 288 286 287 294 298 300 301 302 303 300 305 311 311 314 316 316 316 318 317 316 319 321 320 319 319 318 317 316 315 316 316 316 316 316 318 318 319 319 317 317 315 314 312
289 286 277 275 278 282 289 283 288 299 302 302 303 303 304 302 302 311 312 314 315 316 317 317 316 316 316 318 319 320 320 319 317 317 316 314 315 316 315 314 317 317 318 319 318 317 317 317 315
289 284 290 284 284 282 286 289 295 302 302 303 302 301 300 301 301 310 313 314 315 316 316 317 316 316 316 316 318 319 320 319 318 317 317 315 314 316 317 317 316 317 317 317 318 318 316 317 316
291 293 283 287 277 276 283 285 290 296 298 301 300 300 301 303 306 311 312 314 316 317 316 317 317 316 316 317 319 319 319 320 320 319 317 317 315 314 314 314 316 317 318 318 318 317 318 317 317
288 287 288 288 287 281 278 286 299 297 298 299 301 302 302 304 308 312 313 314 315 316 316 316 316 316 316 317 318 318 318 320 320 319 319 319 318 316 314 315 315 315 317 318 318 318 318 316 316
290 288 289 283 283 287 285 285 301 299 299 301 302 303 304 307 310 312 314 314 314 314 315 315 315 315 315 317 317 317 318 319 319 319 320 320 319 319 317 315 315 314 315 316 316 316 317 315 316

GFSSGP_sfc_thetae_093.txt.gz
Theta_e
326 313 313 312 302 299 294 296 298 298 301 304 307 306 306 307 307 303 329 343 344 346 349 348 346 348 348 350 350 351 352 354 353 352 352 352 352 352 351 352 351 351 352 353 351 352 351 349 348
316 310 311 305 298 292 294 297 298 302 305 306 307 309 309 307 322 326 332 344 344 346 347 348 346 347 349 349 350 349 350 353 353 353 352 352 352 351 352 351 350 350 352 352 350 350 348 348 346
312 311 307 303 296 291 293 297 302 303 305 304 306 310 310 312 329 330 337 345 346 345 345 347 344 346 347 349 349 349 347 349 351 350 350 349 348 348 348 347 348 350 351 352 351 349 348 346 343
310 309 303 297 294 296 295 300 302 303 304 305 306 305 317 326 331 336 341 345 345 343 345 344 343 345 347 348 349 349 347 347 348 348 348 349 348 348 345 345 345 346 349 350 349 348 345 343 342
306 305 296 294 294 297 299 301 303 302 302 304 306 305 314 327 334 339 343 344 343 342 344 343 341 344 346 347 348 347 346 346 346 347 348 348 347 346 345 343 342 344 345 347 347 345 343 341 339
301 302 294 290 293 295 299 302 302 302 303 304 303 306 314 329 335 340 344 344 345 345 343 342 345 344 344 345 345 345 344 343 343 344 344 344 344 343 342 342 341 340 342 344 344 342 341 339 338
299 297 293 292 291 293 297 303 301 303 302 302 308 305 317 327 336 341 343 344 344 344 344 342 345 345 342 341 340 340 341 340 341 340 341 341 339 339 340 340 341 341 341 342 342 340 339 338 336
300 299 292 292 292 293 300 301 303 303 302 308 317 308 310 324 335 339 341 342 342 342 340 340 344 346 348 346 338 338 338 338 338 339 338 335 335 336 337 336 339 339 339 341 340 338 337 336 333
300 294 291 292 292 295 300 300 304 305 303 305 308 313 321 329 335 335 333 332 334 335 336 339 340 342 345 341 339 338 337 336 336 337 336 333 336 336 336 334 335 338 337 338 338 336 335 332 331
299 294 293 296 298 297 300 300 301 301 301 303 304 318 326 330 332 332 330 329 332 333 333 336 338 341 342 340 341 337 336 336 336 338 338 338 338 338 336 337 335 336 334 336 335 334 332 332 333
299 294 296 297 299 300 299 300 302 301 299 303 303 305 321 327 330 330 331 332 331 332 333 333 334 337 341 337 338 335 335 334 334 334 336 338 338 338 337 338 340 338 334 333 333 333 334 333 331
296 298 299 300 300 300 298 301 300 301 303 307 307 307 312 321 326 329 329 331 331 331 331 333 333 332 336 337 336 334 332 332 332 335 337 337 335 335 335 334 337 337 333 329 331 333 332 331 329
297 298 299 301 301 300 301 299 300 301 304 307 305 305 306 312 320 328 331 331 331 331 334 332 333 332 332 331 332 332 333 331 333 331 333 336 331 332 335 332 335 331 328 325 328 329 330 329 327
299 300 300 301 301 301 300 301 301 302 305 305 304 306 306 309 317 324 328 329 329 331 331 335 331 334 331 329 329 330 330 329 329 330 330 334 332 334 334 332 332 332 326 323 326 329 328 327 327
298 294 297 299 300 300 301 297 298 304 305 304 305 305 304 305 316 322 326 329 330 330 331 331 331 333 331 329 329 329 330 330 328 328 331 332 333 333 333 329 329 330 328 322 324 326 326 326 325
297 295 291 297 298 299 300 294 300 303 300 301 303 303 304 306 311 319 325 327 330 330 329 332 331 328 329 329 329 329 329 329 330 330 330 329 329 330 328 328 327 326 321 319 321 324 323 324 324
293 289 291 294 299 299 297 295 300 302 302 302 304 305 305 305 306 308 319 325 327 330 330 331 330 326 327 327 328 329 329 328 330 331 330 330 329 328 328 327 326 324 320 319 322 322 323 322 322
288 289 291 292 297 297 296 295 298 302 302 303 303 304 305 305 306 310 310 317 324 329 331 332 328 326 327 327 325 327 329 329 330 329 329 329 327 327 328 325 324 324 321 320 322 321 322 322 322
293 292 291 293 297 295 296 296 298 300 301 300 302 303 304 306 309 310 311 312 322 327 329 330 324 323 323 320 320 322 323 325 328 329 331 328 325 323 321 322 322 324 322 321 322 320 321 320 322
292 290 290 293 296 294 294 294 297 298 299 301 302 303 304 305 307 309 312 316 322 325 328 327 322 322 322 322 323 323 322 324 326 327 327 326 323 322 322 322 321 322 320 317 318 321 319 320 320
289 289 289 289 293 294 294 291 294 298 300 301 302 303 304 305 306 308 314 319 323 324 327 325 323 322 322 322 322 323 324 323 323 325 326 325 323 322 321 322 320 320 320 317 319 320 320 315 319
285 291 290 289 289 284 294 283 291 295 296 297 299 303 305 305 307 308 312 319 322 324 328 325 323 322 322 321 320 322 319 318 322 323 324 324 323 322 320 318 316 316 318 317 317 318 320 320 316
287 292 290 293 290 289 289 286 288 293 291 298 304 306 307 307 307 308 311 318 323 326 327 325 323 322 320 320 320 320 319 320 323 323 322 323 323 322 320 318 316 314 316 316 315 316 319 320 320
297 294 293 293 290 282 286 286 286 290 292 298 304 305 306 308 308 308 311 319 322 326 326 324 323 321 321 319 320 321 318 318 322 321 320 320 319 320 319 318 317 315 314 316 316 316 316 318 321
293 289 283 280 281 280 287 286 288 295 301 301 302 304 306 309 311 310 308 317 321 323 322 323 322 319 319 319 319 319 318 320 322 321 320 320 318 318 318 318 317 315 314 314 314 316 315 317 317
290 290 283 276 279 282 288 282 289 301 303 304 305 305 306 309 311 313 310 315 320 323 321 321 320 319 319 319 319 319 319 322 323 322 321 321 319 319 320 319 317 315 314 313 313 317 315 317 317
290 287 290 285 285 282 284 288 295 300 301 303 303 303 304 307 309 312 315 315 320 322 322 320 319 319 319 319 319 318 320 322 322 321 321 320 321 320 320 320 318 316 314 314 312 316 315 315 318
292 294 285 286 278 276 283 285 288 295 297 301 302 302 303 305 306 313 314 313 319 322 321 319 319 319 318 319 319 319 320 320 322 322 321 319 319 321 320 318 319 319 316 313 312 316 318 316 316
290 288 289 289 286 280 278 284 298 297 299 300 302 301 301 302 304 312 315 316 319 321 318 317 319 318 321 320 320 322 320 320 321 320 320 318 320 321 322 322 319 318 319 320 318 319 318 316 316
293 290 289 284 281 284 283 284 300 300 301 302 302 302 300 301 302 305 313 316 317 317 317 317 318 317 319 320 319 319 321 319 320 321 320 321 322 322 322 322 321 321 322 322 321 320 318 317 316

GFSSGP_sfc_thetae_096.txt.gz
Theta_e
324 325 318 318 305 303 300 300 307 305 306 310 312 310 310 312 311 307 334 344 345 347 352 350 347 348 350 350 351 352 353 354 353 352 351 351 353 353 353 353 352 353 354 353 352 352 351 350 349
321 317 317 314 300 297 299 304 303 307 309 311 311 311 310 310 318 326 335 344 343 345 349 351 346 347 349 350 351 351 354 354 353 353 350 353 353 353 352 352 350 351 353 354 352 352 351 349 347
319 316 309 304 301 297 299 303 305 309 310 310 310 314 313 313 325 328 337 347 345 345 349 350 345 346 348 349 350 349 351 352 352 352 352 350 351 351 350 350 349 351 353 353 352 351 349 346 345
314 312 310 301 298 302 302 304 308 307 309 310 311 309 316 325 328 334 342 346 344 346 348 345 343 345 347 349 350 349 348 349 350 349 348 350 349 347 347 346 347 350 350 350 350 349 347 344 342
314 310 300 299 299 303 306 306 309 308 306 308 310 309 312 328 335 339 343 346 344 347 350 350 341 344 346 349 350 348 347 347 348 348 348 349 349 348 346 345 346 344 344 346 347 347 344 342 340
306 307 298 296 299 302 305 308 307 307 308 307 308 309 313 330 335 342 346 346 348 349 350 350 344 344 344 346 347 346 345 346 344 346 346 347 347 345 344 343 343 341 340 340 343 342 342 340 339
304 302 297 299 299 300 302 307 305 305 306 307 311 308 315 326 336 343 346 348 350 352 351 350 349 346 342 342 342 342 343 343 343 344 344 344 342 342 342 341 341 341 338 338 340 340 339 338 337
307 303 298 299 297 298 304 305 307 306 306 311 313 309 312 325 339 344 346 348 348 351 352 347 347 347 350 350 339 340 341 341 341 341 339 338 339 339 340 339 339 340 341 340 340 339 337 336 335
309 299 297 298 298 299 304 303 308 309 308 309 311 312 322 330 340 341 341 343 344 346 348 345 345 349 351 350 346 340 340 339 339 339 336 335 343 342 339 337 338 340 339 338 337 337 336 333 333
303 300 300 304 303 301 303 304 305 306 306 307 309 317 323 328 334 335 335 336 339 341 342 343 344 348 349 348 349 347 346 344 345 345 342 343 344 342 338 336 334 335 335 336 335 335 333 333 336
303 299 305 305 305 305 304 304 306 304 302 307 307 309 312 321 324 328 333 335 337 341 341 341 342 345 348 345 346 343 342 342 341 343 342 342 341 339 339 339 340 340 337 340 333 332 336 337 337
299 304 304 305 306 304 303 305 303 304 305 309 310 311 312 312 318 322 326 331 336 339 340 340 340 340 346 346 342 341 340 338 337 338 341 340 340 339 339 338 340 340 341 338 336 332 336 337 336
302 303 304 305 305 305 304 303 303 304 307 309 309 309 310 312 314 319 324 328 334 337 340 340 339 339 344 344 341 340 339 338 339 336 338 338 338 337 337 339 340 339 338 336 335 331 334 335 334
304 304 304 304 304 305 302 303 305 306 309 309 309 310 311 312 314 317 321 326 331 336 339 342 336 338 341 341 340 337 337 340 339 337 336 338 338 337 337 338 338 337 335 334 331 333 334 334 333
303 299 302 303 304 303 305 301 302 307 309 308 309 310 311 312 315 315 320 325 330 334 338 342 339 339 337 339 338 339 335 338 337 334 334 335 339 338 336 337 335 332 330 332 330 332 333 332 331
298 299 295 302 303 303 303 298 306 308 308 307 309 310 310 312 313 316 321 325 328 332 336 339 339 336 336 338 334 334 334 334 335 335 334 334 336 336 335 333 335 332 328 329 326 329 329 330 329
298 294 296 298 304 302 301 299 306 308 307 307 308 310 311 312 314 316 318 324 327 331 335 338 340 336 336 336 335 334 336 332 333 334 334 335 334 334 332 331 331 326 325 325 326 329 330 328 327
292 293 295 295 301 302 301 300 305 306 306 307 308 310 311 311 313 316 318 319 323 328 334 337 339 336 334 334 333 332 333 331 334 335 334 334 334 331 329 329 327 324 321 321 323 327 329 330 327
295 294 294 298 301 299 299 301 303 306 306 306 307 309 310 311 315 316 318 319 319 324 330 335 337 334 331 329 328 328 328 329 331 335 333 333 330 328 328 327 325 323 321 320 323 327 327 326 328
292 291 292 297 300 299 298 299 303 304 305 306 307 308 310 311 313 315 317 319 320 323 329 333 336 331 331 333 333 330 328 329 331 332 331 332 329 324 326 326 324 323 321 320 322 327 325 324 326
292 291 291 292 297 299 297 295 299 303 305 306 307 308 308 308 310 311 313 317 321 325 328 331 335 329 330 335 333 329 329 328 328 329 328 324 323 323 323 324 324 323 322 321 325 327 325 322 324
289 295 293 292 291 289 297 289 295 299 300 302 303 308 311 313 314 315 314 315 318 325 329 331 333 326 329 333 331 330 326 323 326 325 329 326 326 323 323 321 322 322 324 325 324 326 328 325 321
290 294 292 292 291 291 292 290 293 296 295 299 304 309 312 314 315 316 316 316 317 325 329 332 329 326 327 329 333 329 328 326 326 327 328 327 325 325 321 322 323 324 324 324 327 327 328 326 325
295 292 293 294 292 287 291 290 291 294 296 301 306 309 311 313 315 317 320 318 317 324 330 331 325 324 326 329 330 330 328 325 324 325 326 322 322 321 321 319 319 321 323 322 322 321 321 321 324
295 292 286 284 285 284 291 289 293 298 303 304 305 308 310 312 314 316 317 320 318 324 329 328 323 322 324 326 328 327 327 325 326 324 324 322 321 320 318 318 317 317 318 318 318 318 317 319 320
291 291 287 278 281 285 292 287 293 303 304 307 308 309 310 310 312 314 316 320 319 323 328 325 323 324 324 325 325 324 327 321 326 325 325 324 322 321 320 319 318 317 318 318 318 317 317 319 320
292 290 294 286 288 286 289 292 297 302 302 305 306 307 308 309 310 311 311 321 322 322 327 325 323 325 322 324 324 323 325 323 324 327 328 327 325 322 320 319 318 317 315 315 314 313 316 318 318
296 297 288 290 280 280 286 288 292 296 300 303 304 306 307 307 306 305 305 320 320 323 327 325 324 323 321 322 323 322 321 322 325 328 324 324 327 323 321 320 318 316 315 315 316 313 313 315 317
292 291 292 292 290 285 283 288 300 300 301 301 303 305 305 303 303 299 301 313 321 324 324 322 321 321 320 322 322 322 321 322 324 325 324 324 323 323 322 321 318 315 315 314 313 313 313 314 318
295 292 292 287 284 289 288 290 303 300 301 303 302 302 303 302 301 297 298 303 316 320 318 319 321 319 320 321 321 321 321 321 322 322 324 324 322 322 323 323 319 318 316 315 313 313 314 315 317

GFSSGP_sfc_thetae_102.txt.gz
Theta_e
326 323 322 315 302 302 298 301 308 307 307 312 313 311 311 313 313 310 330 339 348 345 346 347 348 350 351 351 352 354 354 354 354 354 354 354 354 354 354 353 353 354 353 353 352 352 351 351 350
317 319 318 308 298 295 298 306 305 308 311 314 314 312 310 310 321 326 329 337 346 346 347 347 348 349 351 351 352 353 354 355 354 352 352 353 353 353 353 353 352 352 353 352 352 352 351 349 348
318 319 309 302 298 296 298 305 307 309 313 312 310 314 313 313 320 326 334 340 342 346 347 346 346 347 350 351 351 352 353 353 353 351 353 352 351 352 353 350 350 349 348 351 350 350 350 347 345
315 315 309 298 296 302 302 306 309 308 311 312 311 309 316 326 324 331 335 337 340 343 350 343 344 346 349 350 350 351 352 352 351 350 351 351 351 351 350 346 345 344 343 345 346 347 346 344 343
314 310 299 297 297 302 307 309 309 307 309 310 310 308 314 324 328 335 335 337 341 346 349 344 343 345 348 349 350 348 349 350 350 349 349 350 350 350 348 347 344 343 342 340 341 342 342 340 340
306 307 296 295 298 303 307 308 308 308 310 310 309 309 313 325 327 336 339 340 345 349 350 345 344 345 345 347 348 346 346 347 347 347 348 349 349 347 346 346 345 342 339 337 337 340 339 338 337
306 303 298 298 299 302 306 311 308 308 308 309 312 307 314 323 330 336 340 345 349 352 349 346 345 344 344 343 344 344 344 345 344 345 345 346 345 344 343 343 343 342 341 341 341 340 338 337 337
310 306 300 301 300 300 308 310 310 308 307 314 314 307 310 324 331 337 341 347 349 351 352 348 348 345 345 345 341 342 343 343 342 344 343 342 342 342 342 341 342 342 342 341 340 339 337 337 336
312 301 298 300 301 303 309 307 311 312 308 310 311 312 321 327 336 337 338 343 347 348 349 351 350 347 348 347 344 342 342 342 341 342 341 339 343 342 341 340 340 340 339 338 337 337 336 335 334
304 301 301 306 307 306 308 309 309 307 306 306 308 313 323 325 332 333 335 337 342 345 346 348 349 348 350 345 345 345 345 343 343 344 342 344 343 341 340 338 338 338 337 337 336 336 334 334 333
305 300 306 307 308 309 308 308 309 306 304 307 308 311 319 320 324 330 332 336 339 342 345 344 346 349 349 345 347 346 345 344 343 344 344 343 340 340 338 336 337 335 336 335 335 333 332 332 332
300 306 306 307 309 309 307 310 308 307 308 312 312 312 316 317 318 322 327 332 337 339 343 344 344 346 347 348 347 345 343 343 341 344 344 342 340 339 337 336 334 335 335 334 332 332 332 330 331
301 305 307 309 308 308 309 307 307 308 311 312 312 312 312 314 313 316 321 326 331 336 340 342 343 344 346 348 343 344 343 342 340 343 343 341 339 338 337 336 336 335 335 333 332 331 331 330 330
302 303 305 307 307 308 306 306 307 309 311 310 311 310 310 311 312 313 315 318 323 332 339 343 342 343 345 345 343 342 341 341 341 339 340 342 339 337 336 334 334 336 334 334 333 332 330 328 330
303 298 302 305 306 305 308 303 303 309 310 309 309 310 311 311 311 312 314 317 321 325 339 342 342 341 342 344 344 341 339 341 340 339 339 340 339 339 336 334 334 335 334 334 332 330 330 328 329
298 299 294 301 304 306 305 298 306 309 308 308 309 310 311 312 312 312 315 316 319 322 330 343 343 340 340 343 343 339 338 339 339 339 338 337 337 337 336 334 334 333 334 333 330 327 327 327 327
295 291 293 296 303 304 303 299 305 310 309 308 309 310 311 312 313 313 315 316 318 319 328 341 342 339 338 340 342 341 338 337 337 338 338 338 337 336 335 333 333 332 332 331 330 328 325 325 325
288 291 294 294 300 302 301 300 304 307 308 308 309 311 311 311 313 315 315 316 317 319 326 342 342 339 338 338 340 338 338 336 336 336 335 335 337 336 335 333 332 331 331 330 329 327 327 326 325
294 293 293 297 301 299 299 300 303 306 307 307 309 310 310 312 315 316 318 317 321 322 327 336 341 341 337 334 333 332 332 332 332 335 335 334 334 333 333 331 330 331 329 328 329 327 325 323 325
292 292 293 297 300 300 299 299 304 306 306 307 308 309 310 312 314 316 318 319 320 322 323 327 338 341 339 335 334 332 331 332 332 332 334 334 333 333 332 330 328 329 327 327 327 325 323 323 324
290 291 292 293 297 296 295 292 298 304 307 308 309 310 311 311 312 314 317 319 322 324 325 322 330 339 339 336 334 333 333 332 330 332 331 332 332 332 331 329 327 326 325 324 324 324 322 320 322
288 295 296 294 290 286 295 286 295 300 301 303 306 309 309 311 314 315 317 318 321 322 325 324 323 330 339 335 332 331 329 327 329 330 330 331 331 331 330 328 327 325 325 323 324 325 323 322 318
291 297 295 294 290 289 290 287 293 299 298 300 304 308 311 313 315 315 316 318 320 323 324 325 324 325 337 334 334 332 331 330 330 329 329 328 328 327 325 325 325 323 324 323 323 323 323 323 320
296 294 293 293 289 282 289 289 290 295 298 301 305 308 311 312 313 314 316 317 318 321 323 326 327 325 336 335 334 333 332 329 328 327 326 325 323 325 323 323 323 325 323 322 322 323 323 323 322
294 290 282 280 281 280 290 288 291 298 301 304 305 307 309 311 310 311 311 312 314 316 320 323 324 325 334 334 334 334 333 332 329 325 325 323 321 320 321 322 321 321 322 322 324 324 323 323 322
290 290 284 276 278 281 289 285 291 302 305 306 307 308 308 308 309 308 308 309 308 312 314 320 317 326 332 331 332 334 333 332 328 325 327 325 322 320 321 322 322 322 322 323 323 324 323 323 322
290 286 293 288 289 285 287 291 297 302 303 304 305 305 305 306 305 305 304 302 302 306 308 311 313 326 328 328 329 332 332 331 327 326 327 325 323 322 321 321 320 320 322 321 320 318 318 319 319
292 294 285 286 281 280 286 288 290 296 298 301 301 301 301 303 302 301 299 297 299 300 304 309 319 327 325 326 327 328 330 330 328 326 326 325 323 322 320 319 319 319 319 319 319 318 318 318 318
289 288 290 290 288 282 281 286 295 295 299 300 300 299 298 298 298 297 295 295 296 297 299 302 324 325 324 325 325 325 327 326 327 325 326 325 325 323 321 319 318 317 318 318 318 318 318 317 317
294 291 291 285 284 288 286 285 299 301 301 299 297 296 297 297 296 295 293 293 293 293 295 297 300 322 324 324 323 323 324 325 325 325 325 326 324 322 321 320 318 317 317 317 317 316 316 316 316

GFSSGP_sfc_thetae_105.txt.gz
Theta_e
319 318 314 308 293 291 287 292 299 300 300 303 308 307 304 310 313 307 335 338 341 342 346 348 348 350 352 353 353 352 353 354 354 354 353 353 353 353 353 353 353 354 353 353 352 351 351 351 350
312 315 309 302 288 283 287 298 298 301 306 309 310 308 306 312 322 328 333 340 342 341 344 345 347 349 350 351 352 353 354 354 354 353 353 353 353 352 351 352 352 353 352 351 351 351 350 348 348
313 314 300 294 287 285 288 298 301 304 308 307 304 308 308 312 324 325 339 343 341 341 344 345 346 347 349 350 351 352 352 353 352 352 353 353 352 353 351 350 348 347 348 347 347 349 348 346 344
306 306 302 290 287 291 295 299 302 302 306 307 304 303 314 320 325 329 340 343 340 342 343 342 343 346 348 350 350 350 351 350 350 350 352 352 352 350 350 346 346 345 343 343 343 343 344 341 340
303 300 291 287 289 294 298 301 302 301 302 305 305 302 312 323 329 332 334 340 342 341 341 342 342 344 347 349 349 349 350 349 349 349 350 350 351 350 347 345 345 342 339 342 342 341 341 339 340
297 297 287 288 292 296 299 302 302 303 304 306 304 305 310 323 327 329 334 340 344 340 340 341 344 344 345 347 346 346 347 348 348 348 348 349 348 346 346 344 343 337 339 341 340 336 338 340 339
297 292 290 290 292 295 299 303 302 304 303 304 306 303 309 320 329 331 336 343 344 342 339 339 341 343 343 343 343 342 344 344 344 345 345 346 344 343 343 343 343 341 339 338 340 337 338 339 338
303 298 295 296 293 294 302 305 306 305 304 309 307 302 303 317 331 334 339 341 342 340 339 337 337 339 338 338 341 341 342 342 342 343 342 341 342 342 342 342 342 339 338 338 341 339 337 336 335
302 296 294 295 296 298 303 302 308 307 304 307 306 307 320 329 333 336 337 338 339 342 340 339 338 338 338 338 340 341 342 341 340 341 340 338 340 340 340 340 340 339 339 340 339 337 336 334 334
297 292 295 300 301 300 304 305 307 302 302 301 303 316 321 326 329 332 334 335 336 337 339 341 339 339 340 342 337 336 339 336 336 338 337 338 337 338 339 338 338 339 338 337 337 336 334 333 330
296 294 299 301 304 306 304 304 306 301 298 302 303 312 317 318 325 326 333 337 339 340 340 340 340 340 341 341 337 338 337 335 335 336 337 337 336 335 335 336 336 336 335 333 333 332 330 329 329
290 297 301 302 304 303 302 306 303 303 303 307 306 309 314 314 317 323 325 335 337 340 340 339 339 339 339 342 340 339 338 336 335 335 337 334 334 333 332 334 334 332 332 330 330 329 327 327 328
294 295 298 301 304 304 305 303 304 304 307 306 307 307 311 312 312 317 322 328 336 337 340 339 339 339 340 341 341 339 336 337 336 336 337 336 334 333 332 331 334 332 332 330 329 328 328 326 327
298 298 297 299 301 304 303 303 304 305 307 305 306 303 303 310 309 308 311 315 328 337 339 339 339 339 339 338 337 336 338 336 335 335 335 335 333 334 333 332 333 333 331 330 330 329 327 326 326
296 292 296 298 298 298 303 299 300 306 306 304 303 303 304 304 306 305 306 307 312 332 339 338 338 338 339 337 336 334 335 335 333 333 338 334 333 333 332 331 330 331 330 329 329 328 327 325 327
291 291 286 295 298 299 299 293 302 305 304 303 303 302 305 305 306 304 305 306 307 316 336 338 340 338 337 336 336 334 333 333 334 333 333 334 333 332 331 330 330 331 329 330 328 329 326 324 325
287 283 285 290 298 297 296 294 301 305 304 303 304 304 303 304 306 307 305 306 307 310 337 337 338 336 336 335 336 333 332 332 335 335 334 334 333 332 330 330 331 330 328 329 328 326 327 323 324
281 284 286 287 293 296 295 295 300 302 304 304 304 304 305 305 307 309 309 307 307 307 337 338 337 335 335 336 334 333 332 330 330 333 334 334 334 333 330 328 328 327 328 327 328 325 325 324 323
285 286 286 289 294 296 296 297 297 302 304 302 303 304 305 306 308 310 307 306 306 307 335 337 335 334 333 333 330 331 329 328 327 329 332 333 333 332 331 329 327 326 326 326 326 325 322 321 323
285 284 284 290 296 296 293 293 297 299 300 303 304 302 302 304 306 309 308 306 307 310 329 336 335 333 333 333 333 330 332 330 331 328 328 330 331 331 330 328 327 326 327 326 326 325 323 323 324
286 283 284 284 294 297 293 290 293 300 302 305 306 306 305 305 306 308 310 310 311 312 314 333 336 333 333 332 332 328 328 329 328 329 328 327 328 329 328 326 326 327 328 327 327 326 324 320 323
282 287 287 286 289 285 294 282 291 296 298 303 304 303 305 308 310 311 311 311 312 314 317 316 334 335 333 332 330 327 326 325 327 328 328 326 328 326 328 326 325 327 327 326 326 326 324 323 320
287 289 288 288 287 287 288 285 288 298 296 299 302 307 308 309 308 307 308 310 311 312 314 316 318 326 334 331 330 328 326 326 326 327 328 325 324 326 326 328 326 325 325 325 325 325 324 323 321
293 293 292 291 288 278 286 286 287 292 296 299 305 306 305 305 305 305 306 306 305 307 309 311 313 317 328 331 330 328 326 326 324 325 323 322 323 322 324 324 324 325 324 324 324 325 324 322 322
292 287 277 279 277 276 288 285 289 296 301 303 303 303 304 302 302 301 300 300 300 301 304 306 307 310 313 330 329 329 328 327 325 324 323 322 322 321 321 321 321 321 323 323 324 324 323 323 321
288 287 278 275 276 279 288 283 288 300 303 304 303 301 301 299 299 297 297 297 297 299 300 300 302 304 309 326 329 329 329 327 327 325 324 322 321 320 320 320 320 321 323 322 323 323 322 323 322
288 284 290 284 286 278 283 290 297 302 300 299 297 296 295 296 296 294 294 294 295 297 298 298 299 301 307 314 330 328 327 329 325 323 323 322 321 319 320 320 319 321 321 322 322 322 322 322 322
289 293 280 283 278 277 284 287 288 292 293 294 293 293 292 293 293 293 292 293 295 295 296 297 299 304 311 325 324 325 325 326 325 325 323 321 320 320 320 320 319 320 320 321 320 320 322 321 321
287 287 289 289 286 279 281 283 293 294 294 292 292 292 291 291 292 292 292 293 294 294 294 294 297 300 311 320 320 320 322 324 324 324 322 320 320 320 320 319 318 318 318 318 319 318 319 319 319
293 289 290 283 284 286 285 283 296 294 293 292 291 292 292 292 291 291 291 292 292 292 293 292 294 296 300 308 320 320 321 323 323 323 323 321 320 321 320 319 318 317 317 317 317 317 318 317 317

GFSSGP_sfc_thetae_111.txt.gz
Theta_e
313 310 309 303 291 287 283 287 289 291 294 297 302 301 301 307 309 302 328 334 341 341 346 348 349 350 351 351 351 351 352 352 352 352 353 353 353 354 354 354 353 352 353 352 351 351 351 351 350
308 310 304 296 285 280 284 289 292 294 299 302 302 303 302 309 323 327 327 337 341 343 345 347 348 349 350 350 350 351 353 352 352 352 353 353 353 354 354 353 350 351 352 352 351 350 350 350 348
307 308 298 293 284 281 283 288 292 297 301 299 299 302 307 313 328 328 331 338 342 342 344 346 347 348 350 349 350 351 351 351 351 351 353 353 353 353 353 351 349 351 352 352 350 350 349 347 345
303 302 297 288 286 287 288 291 292 295 299 300 298 298 308 322 329 331 335 339 339 341 343 344 344 347 349 350 350 350 350 349 349 350 352 353 353 352 351 347 347 349 351 351 350 349 347 344 343
299 297 288 285 287 290 293 294 293 293 296 298 299 298 306 324 332 332 334 337 336 337 341 343 342 345 348 350 350 349 348 347 348 349 350 351 352 351 347 346 346 347 348 349 349 347 344 343 342
293 293 285 284 288 291 294 297 295 296 298 299 299 298 308 325 330 330 333 333 335 336 339 342 344 344 345 348 347 346 346 346 347 348 348 350 349 347 345 345 344 345 345 345 345 344 343 341 341
292 289 285 287 288 290 295 299 297 299 298 298 301 299 308 327 330 331 331 335 334 336 337 339 341 343 343 342 343 343 345 345 345 345 346 346 344 343 344 343 343 343 343 342 342 341 341 340 339
297 292 287 289 290 290 297 301 300 299 300 306 302 298 307 321 333 336 335 333 332 334 335 336 336 338 338 339 340 341 342 343 343 343 343 342 342 342 341 340 341 341 341 341 339 337 338 339 337
296 289 289 289 291 293 300 298 304 304 302 304 302 304 313 326 336 334 332 329 329 332 333 334 336 335 335 335 339 342 343 342 341 342 341 338 340 341 339 335 338 340 340 338 337 336 335 335 335
292 286 290 296 297 297 300 302 303 300 301 301 303 307 325 332 333 331 330 329 329 329 330 333 334 334 334 338 335 334 339 338 339 340 340 338 337 338 338 336 337 337 337 336 336 335 334 332 329
291 291 294 296 299 300 298 298 300 298 299 302 302 302 320 326 330 330 330 331 330 331 331 331 333 333 334 336 336 332 332 332 333 334 337 335 335 337 336 336 334 332 335 331 333 331 327 326 326
286 290 291 295 299 297 295 298 298 299 301 304 305 305 313 322 327 329 329 331 330 330 330 331 332 333 334 334 335 333 332 329 330 333 334 335 334 333 335 336 335 333 333 331 328 327 325 324 325
292 293 294 294 293 292 294 293 295 299 303 305 305 305 303 313 326 329 331 332 333 332 332 332 332 333 334 334 333 332 331 330 330 332 334 334 333 332 334 335 334 333 331 328 325 324 324 323 323
290 289 288 290 290 292 293 294 292 296 301 301 303 304 302 306 322 327 327 330 332 334 335 334 333 334 335 334 333 333 333 331 330 332 333 333 333 332 333 332 332 332 329 326 326 324 322 322 323
289 285 288 288 287 288 292 288 290 297 298 299 300 303 301 304 314 324 327 329 332 334 336 336 335 335 335 335 334 334 334 333 332 332 332 332 332 330 331 331 330 330 329 325 324 322 322 321 323
286 285 280 287 287 288 288 284 292 296 296 296 298 300 304 303 307 311 317 328 332 335 335 336 338 336 336 336 335 335 335 334 332 333 333 331 331 330 329 329 329 328 328 327 324 324 324 325 323
283 278 280 282 288 287 285 283 290 295 296 296 298 298 303 301 301 306 310 318 330 334 336 336 336 335 335 337 337 335 334 334 332 333 333 331 331 330 329 328 328 327 327 327 325 326 324 324 323
279 279 280 280 284 285 283 284 290 293 295 296 297 298 301 302 302 304 305 308 312 327 334 336 336 335 336 335 333 330 332 332 332 332 333 332 332 330 329 328 326 327 326 325 325 324 326 325 323
281 279 278 283 288 285 283 283 286 290 293 296 298 297 299 302 302 302 303 303 300 303 328 334 334 334 335 333 331 330 330 331 331 332 332 332 331 329 329 328 326 326 326 326 326 326 326 324 324
284 281 280 283 286 287 285 283 286 290 296 297 298 298 297 300 304 308 308 309 309 309 311 325 333 333 335 334 333 333 333 329 331 331 330 331 331 330 329 328 326 325 325 326 326 325 323 323 323
283 282 281 280 283 288 287 282 284 290 295 299 300 302 301 302 303 304 302 301 302 302 305 321 329 332 333 333 333 327 327 326 323 329 330 330 330 331 330 328 328 326 327 326 326 325 323 321 322
280 287 285 282 280 275 285 274 283 288 291 296 298 299 299 298 298 298 298 298 298 299 302 306 323 332 333 333 333 329 329 327 328 328 331 332 330 329 331 330 328 327 327 327 327 326 325 323 320
283 289 286 285 281 281 281 277 280 291 291 294 296 295 294 294 294 294 295 296 297 297 298 302 306 309 312 329 333 330 329 329 324 324 324 328 329 329 329 329 329 328 328 328 327 326 325 324 323
290 287 286 284 281 275 279 279 280 285 292 292 292 291 291 291 291 292 294 295 295 296 296 298 300 303 306 308 316 329 328 327 323 324 323 324 326 328 329 328 327 327 327 326 327 327 326 325 323
286 282 274 274 269 273 282 279 282 291 292 292 291 290 291 291 291 290 290 291 293 293 294 296 297 299 301 303 306 312 328 324 325 325 325 323 323 323 325 327 326 326 326 327 326 324 324 324 323
284 283 277 271 274 278 286 279 285 290 291 292 291 291 291 290 291 291 291 291 292 293 294 294 295 297 299 301 302 306 311 328 325 324 325 324 324 324 323 325 326 326 326 324 323 323 323 324 323
285 281 287 281 283 279 283 287 289 290 288 287 289 290 289 290 290 290 291 291 291 292 293 294 295 296 298 300 302 306 308 324 327 325 324 324 324 323 323 325 324 324 323 323 323 322 322 323 323
288 291 283 283 275 268 280 281 280 283 285 286 285 286 288 289 289 289 290 290 291 291 292 293 294 295 297 298 300 305 311 317 329 327 323 323 323 322 322 322 321 320 320 320 320 320 321 321 322
286 284 286 287 282 273 273 278 287 284 285 285 285 285 286 287 287 288 289 290 290 291 291 291 292 293 294 297 299 303 315 321 328 326 324 323 322 321 320 319 319 319 318 319 318 319 319 319 320
291 288 288 280 279 283 280 277 287 288 287 287 286 285 286 287 287 287 288 288 288 289 289 290 290 291 293 296 297 299 302 307 322 323 323 322 322 321 321 319 318 318 317 319 318 317 319 319 319

GFSSGP_sfc_thetae_114.txt.gz
Theta_e
311 309 307 300 289 286 281 285 287 289 291 295 299 299 299 303 309 303 327 333 338 341 345 347 349 350 351 351 350 351 352 353 353 353 353 353 353 353 353 353 353 354 355 353 352 353 351 351 350
306 308 303 294 284 279 282 287 289 292 295 299 300 300 300 305 319 325 328 335 339 342 345 346 348 350 350 350 350 351 352 352 352 352 353 353 354 354 354 352 351 352 354 354 352 351 351 350 348
306 306 296 291 282 280 282 287 291 295 298 297 297 299 302 310 324 327 329 338 339 341 344 345 347 348 350 350 350 350 350 350 351 351 353 353 354 354 353 350 350 352 353 353 352 351 350 347 346
303 300 295 287 284 286 287 288 291 294 297 297 296 295 302 317 327 330 335 340 339 341 344 343 344 346 349 349 350 350 349 348 349 350 352 353 354 354 352 349 349 351 353 352 352 351 348 344 344
298 295 285 283 285 289 292 292 292 293 295 295 296 295 298 312 330 332 335 338 337 339 341 343 343 345 348 350 350 349 348 347 348 349 350 351 352 352 349 347 348 350 351 351 350 348 345 343 343
291 293 284 282 285 290 293 295 295 296 296 298 297 295 300 320 328 330 334 334 337 338 340 342 344 345 346 347 347 346 346 346 347 348 349 350 350 347 346 346 346 347 347 348 347 344 343 342 341
289 288 282 283 286 289 293 297 296 298 297 296 298 296 301 318 328 330 329 331 333 336 339 342 343 344 343 343 343 343 344 345 345 346 346 347 345 343 344 344 345 345 344 344 344 342 341 341 340
296 290 284 284 286 287 296 298 299 298 298 303 302 297 297 313 328 331 331 328 330 333 337 338 340 341 340 342 341 341 342 342 343 343 343 342 342 342 342 342 343 343 342 343 342 340 340 339 338
295 287 284 287 289 289 297 297 302 303 300 304 302 302 306 321 333 330 326 326 328 332 334 336 337 339 337 337 341 343 343 342 341 342 341 338 340 340 340 338 340 340 340 339 338 338 337 336 336
290 284 287 293 294 294 298 299 300 299 301 299 302 305 322 331 329 325 325 324 325 327 331 334 336 337 336 338 340 341 343 343 342 340 339 338 338 337 336 335 337 338 337 336 335 334 335 333 330
287 286 290 293 294 297 293 296 300 299 297 300 300 302 310 323 328 327 325 324 324 327 330 333 334 335 336 337 337 338 340 339 339 337 337 335 338 337 333 331 333 332 335 331 332 330 328 326 328
287 288 288 289 291 290 288 294 293 295 298 302 303 304 305 315 322 327 328 327 325 326 328 331 333 333 334 336 336 336 336 334 335 336 335 336 336 336 336 333 331 330 329 328 328 326 325 324 326
286 289 292 290 288 288 291 289 291 293 297 299 299 302 303 303 315 325 330 329 329 327 328 329 331 332 333 333 334 333 334 332 332 333 335 336 335 334 336 335 332 332 332 330 326 324 324 323 324
287 287 287 287 287 287 288 287 289 293 296 296 296 297 301 302 303 313 325 328 329 331 329 329 330 331 333 332 332 332 332 329 330 333 336 333 334 334 334 334 333 333 331 326 325 324 323 322 323
288 284 288 288 286 286 287 285 285 291 293 294 296 297 298 301 301 305 318 327 331 333 332 329 329 330 331 331 330 331 331 330 329 331 334 332 332 332 333 333 331 332 330 324 324 322 322 322 323
284 284 280 286 285 288 284 280 287 289 290 291 293 296 298 299 301 304 316 326 330 333 333 333 332 331 331 332 331 331 331 331 330 331 333 331 331 330 331 331 330 331 329 325 323 323 323 322 324
280 278 280 283 287 285 283 281 287 289 289 290 292 294 296 298 301 302 309 324 329 333 334 334 334 332 332 333 333 331 331 331 330 331 332 331 330 329 330 331 330 329 328 327 326 324 322 321 323
276 277 278 279 285 286 284 283 287 290 289 289 291 293 295 297 300 303 302 315 328 332 334 335 335 334 333 335 335 334 333 332 332 331 331 330 331 329 328 327 327 328 327 327 326 325 325 321 323
281 279 277 281 285 283 282 283 286 288 289 288 289 291 295 297 301 306 307 305 301 307 329 334 334 334 335 334 332 331 330 331 331 332 331 330 330 329 328 327 325 328 327 326 325 324 323 323 324
282 280 279 283 285 285 283 282 285 288 289 290 291 290 295 296 303 303 301 301 301 303 308 320 332 333 335 335 334 333 333 333 333 333 331 331 329 329 329 328 326 327 327 326 325 325 324 324 324
281 279 279 279 284 286 282 279 282 287 289 291 293 295 298 298 297 298 299 297 297 298 300 309 326 332 333 334 334 328 329 328 329 330 330 330 329 329 328 329 328 327 327 326 326 326 325 321 322
277 284 283 282 281 275 283 273 281 284 286 290 292 291 291 292 293 294 295 294 294 295 299 301 312 326 333 335 333 330 329 327 330 331 332 331 329 331 330 329 328 327 328 327 327 327 325 324 319
281 287 285 284 281 280 279 277 278 287 286 290 290 291 290 290 290 290 292 294 294 295 297 299 306 307 309 314 333 331 330 329 325 327 330 330 330 330 330 330 329 328 328 328 327 326 325 325 323
288 285 284 284 280 274 279 277 277 286 290 290 291 291 291 291 291 292 292 293 293 294 296 298 302 302 304 308 310 325 330 328 325 325 327 328 329 328 330 330 330 329 328 328 327 327 326 325 325
285 281 273 272 274 273 281 276 280 287 290 289 289 290 290 292 291 291 291 292 293 294 295 296 298 299 301 304 306 308 312 329 326 325 326 326 327 327 327 328 328 328 329 328 327 326 326 326 324
282 282 277 271 273 277 284 278 281 288 289 290 290 290 290 290 291 290 290 290 291 292 293 294 295 297 299 301 304 307 309 311 327 325 326 325 326 326 329 328 328 327 327 327 327 326 326 325 324
282 279 287 280 281 278 282 283 286 288 286 286 286 288 288 288 289 289 290 291 291 291 291 292 293 295 297 298 302 304 307 310 312 326 325 324 324 324 322 326 325 326 326 326 326 325 323 323 323
286 290 281 282 275 273 279 278 278 281 283 284 284 284 286 288 288 288 289 289 291 291 292 292 292 293 294 296 299 302 305 311 312 318 324 324 323 321 321 323 325 325 325 325 324 323 323 322 322
285 283 286 286 282 276 273 276 285 282 283 283 283 284 285 287 287 287 288 288 289 290 290 290 290 291 293 294 297 299 300 303 311 316 327 325 324 322 321 323 323 323 322 322 321 321 320 319 319
290 287 287 281 278 282 280 275 286 286 286 286 283 284 285 286 286 285 286 287 287 287 288 288 289 289 291 293 295 296 297 299 300 303 306 325 323 323 322 322 321 321 320 320 319 318 318 317 317

GFSSGP_sfc_thetae_117.txt.gz
Theta_e
316 314 315 309 297 297 291 293 295 296 298 302 303 303 303 307 314 308 334 338 342 346 350 351 349 351 351 351 351 351 353 354 355 354 354 353 353 353 353 354 354 355 356 355 354 354 354 354 351
313 312 311 303 293 289 291 295 295 299 301 303 304 304 305 309 317 327 334 339 343 347 349 351 348 349 350 350 350 351 353 354 354 354 354 353 353 353 353 353 352 353 354 355 353 352 352 352 349
312 310 304 301 291 290 291 293 296 299 301 301 301 304 304 310 324 332 338 340 344 347 349 351 347 348 349 349 350 350 351 351 352 353 354 354 354 354 353 351 351 353 354 354 353 352 351 348 346
309 309 302 294 291 293 293 297 297 299 302 302 302 301 306 314 326 335 338 342 344 346 348 347 345 347 349 349 350 350 349 349 349 351 353 354 354 354 352 350 351 353 354 354 354 352 348 345 345
306 303 294 292 291 295 298 298 300 299 301 301 302 301 304 312 331 337 340 342 343 346 348 349 343 346 348 350 350 349 348 348 349 350 351 352 353 352 349 348 349 351 352 353 352 349 346 344 343
300 301 292 290 291 295 299 302 300 300 301 302 301 302 305 318 331 335 340 342 344 345 348 349 345 345 346 348 348 346 345 347 348 348 350 351 351 349 348 347 348 348 349 349 347 345 344 343 342
296 296 290 291 291 294 298 303 300 301 302 303 305 302 309 315 329 335 338 341 343 345 346 348 349 348 343 343 343 343 343 345 346 346 347 348 346 345 345 346 347 347 346 346 345 343 342 342 341
301 299 292 292 292 294 299 302 303 302 302 308 307 303 305 313 331 335 337 339 341 342 343 344 345 347 349 350 341 341 342 342 343 345 344 343 343 343 343 343 344 345 345 344 343 341 341 340 339
302 294 291 293 293 296 301 300 306 307 305 307 308 308 312 332 335 333 333 334 335 336 339 341 341 343 347 345 346 343 343 342 342 344 342 341 350 348 346 342 341 342 341 341 340 340 339 337 337
297 292 291 296 298 297 299 300 300 301 302 303 306 310 314 313 322 328 330 330 332 333 335 337 338 340 342 342 344 346 346 348 348 349 349 351 350 349 346 341 338 339 338 338 338 337 336 337 344
292 289 293 294 296 294 293 293 298 296 295 300 300 300 304 305 309 316 329 330 330 333 335 334 336 339 340 341 342 342 344 345 346 348 349 348 346 346 345 344 342 343 338 340 338 338 342 342 343
290 293 292 293 294 291 290 293 292 293 295 299 300 301 302 302 304 306 316 331 330 331 333 334 336 336 338 340 339 339 341 341 342 345 348 344 340 341 343 341 342 341 341 340 338 336 337 339 340
289 290 292 292 292 292 293 291 291 292 296 298 299 299 300 301 303 306 310 319 333 331 333 334 334 334 335 337 337 337 338 339 339 342 343 344 340 339 342 341 340 339 340 339 338 336 335 335 338
291 291 290 291 291 292 290 291 291 293 296 296 296 296 298 300 303 306 308 312 330 335 334 335 334 333 335 335 336 336 337 338 338 339 341 343 341 339 338 339 339 339 339 335 337 336 335 334 336
290 287 290 291 291 290 291 287 289 294 295 294 294 296 297 299 301 303 307 309 316 333 336 335 336 337 335 334 335 334 335 338 341 339 340 341 340 337 338 338 338 339 338 334 337 336 336 333 333
288 288 283 289 291 291 290 283 291 295 293 293 294 295 296 298 299 302 306 308 312 323 336 336 335 336 336 335 334 334 336 339 340 339 337 337 339 339 337 336 336 339 334 333 335 332 332 333 332
285 281 282 284 290 289 288 285 291 294 293 292 293 294 295 297 300 302 305 308 310 317 334 337 337 335 337 337 337 337 337 338 339 339 336 335 338 339 337 335 335 335 334 331 332 329 331 329 331
280 280 282 281 286 287 286 285 290 292 292 292 293 294 295 296 298 300 305 309 310 314 333 339 337 337 337 337 336 336 335 336 337 338 338 336 337 338 337 335 334 333 331 329 331 329 331 332 332
284 282 281 284 287 286 285 285 288 292 292 292 292 293 294 295 299 301 309 310 310 315 330 337 337 336 335 334 332 330 329 331 332 337 338 336 335 336 337 333 332 331 330 329 330 329 328 328 332
284 282 281 285 287 286 285 285 289 291 292 292 292 292 294 296 297 301 305 304 305 307 313 335 338 338 335 335 335 336 334 334 333 334 335 336 337 335 335 334 330 330 329 329 328 328 325 326 328
284 282 282 282 285 287 285 284 287 291 292 293 294 295 296 297 298 300 301 301 302 303 306 313 332 339 338 337 336 336 335 335 333 332 332 333 337 336 336 334 333 330 330 328 328 327 328 323 325
281 286 284 283 282 278 287 276 285 289 291 293 293 292 291 293 295 296 297 298 299 300 304 310 317 335 337 336 336 333 332 329 332 333 333 332 334 335 336 334 333 332 331 330 328 328 329 328 324
284 287 286 285 283 282 283 279 283 290 286 288 289 291 292 292 293 293 294 296 297 299 300 304 309 309 313 328 335 332 333 334 334 334 332 333 333 334 335 334 332 332 331 331 330 329 328 330 329
290 287 287 286 283 276 281 280 282 282 283 286 287 290 291 292 293 293 294 295 295 297 298 301 305 305 307 311 314 328 333 333 330 332 331 332 333 332 334 334 333 333 333 333 333 331 330 330 329
288 285 279 277 278 276 284 279 281 286 286 286 285 286 290 291 291 292 291 291 293 293 294 298 301 301 303 305 308 310 312 320 330 331 332 330 330 330 332 331 331 332 332 332 333 332 331 329 327
286 285 279 273 275 278 285 278 280 287 287 287 287 285 287 288 290 291 291 291 291 292 292 293 297 298 300 304 305 309 310 312 314 329 331 333 330 331 332 331 332 331 330 330 331 330 329 329 329
286 283 288 282 283 279 281 282 286 286 285 285 285 285 284 286 288 288 290 291 291 291 291 292 293 295 296 299 301 304 307 309 313 315 326 330 333 331 331 331 330 329 330 329 329 329 328 327 327
289 291 283 284 276 275 280 278 277 280 282 283 282 282 283 285 285 287 288 289 290 290 291 292 292 292 294 296 298 301 303 305 309 316 316 325 328 330 330 329 329 328 328 327 327 327 328 326 326
287 286 287 287 284 279 277 276 284 282 283 281 281 282 283 283 284 285 287 288 288 289 289 290 290 291 292 294 295 297 298 300 303 306 312 312 326 326 326 327 327 327 325 325 325 326 326 325 324
291 288 288 281 280 284 279 276 286 286 284 283 282 282 283 284 284 284 285 286 286 287 287 287 288 289 290 292 293 294 295 296 298 298 301 305 308 326 325 325 324 325 326 326 324 323 323 323 321

GFSSGP_sfc_thetae_123.txt.gz
Theta_e
323 322 320 317 305 304 302 304 307 305 305 310 311 308 307 309 308 308 328 344 345 345 357 354 350 351 352 353 353 354 355 356 356 354 354 354 354 355 355 356 356 356 358 357 354 353 353 355 354
321 318 318 314 302 300 302 308 304 307 308 309 309 309 308 309 318 321 327 338 344 346 355 354 349 350 351 351 352 354 356 356 355 355 354 354 355 355 355 355 354 354 357 355 353 353 355 354 351
318 318 312 308 304 301 303 307 306 307 307 308 307 311 309 311 317 322 332 342 346 347 353 354 348 348 350 350 351 353 355 354 354 353 355 355 355 355 355 353 352 353 355 354 353 352 354 350 348
316 315 312 304 302 307 307 308 308 308 310 310 310 308 313 316 320 327 333 343 345 347 353 347 346 347 349 350 350 352 353 352 352 352 354 355 355 355 354 352 353 353 354 355 354 352 350 347 346
315 313 305 303 304 307 311 311 311 310 311 311 311 309 312 319 326 330 334 339 344 346 353 355 344 346 349 350 350 351 350 350 351 352 352 353 354 354 352 351 352 353 354 354 351 350 347 345 345
307 309 301 300 303 308 310 311 310 309 311 312 311 311 313 321 326 330 336 340 348 346 352 357 348 346 347 348 348 347 348 349 350 350 351 352 351 349 350 350 351 351 351 350 349 347 346 345 344
305 303 300 300 301 303 306 310 308 307 307 308 313 308 314 318 324 323 329 341 348 353 353 356 355 350 345 344 344 344 345 347 348 349 349 349 347 347 348 349 350 350 349 348 347 345 344 344 343
305 303 299 300 299 301 307 307 309 307 306 313 313 307 310 318 320 320 322 327 343 350 355 356 356 354 352 352 343 343 343 344 345 347 347 345 345 346 346 346 347 348 348 347 345 343 343 343 341
307 297 295 298 299 301 306 304 309 310 306 307 309 311 314 317 318 316 317 321 325 343 351 355 355 354 354 353 350 344 344 344 344 346 345 343 350 351 350 346 344 346 345 344 343 342 341 340 340
300 297 297 302 301 301 303 302 302 301 301 302 305 310 311 311 310 309 311 314 318 321 342 350 353 353 353 349 353 351 349 348 350 350 351 350 349 350 347 344 342 343 342 341 341 340 339 338 344
299 295 299 299 301 300 299 299 302 299 297 301 301 303 306 307 307 307 308 311 315 317 321 345 349 350 348 350 348 349 348 347 349 350 353 351 349 353 348 351 346 347 342 344 342 342 344 343 343
296 300 299 299 300 299 297 299 298 299 299 303 303 304 305 304 305 306 307 308 312 315 318 332 346 346 346 348 346 347 345 347 346 348 351 352 350 350 348 345 346 348 345 344 342 341 342 343 344
297 298 299 299 299 299 300 297 298 299 302 304 304 303 303 304 305 307 307 308 310 311 317 325 339 345 345 347 346 346 347 346 346 347 351 352 349 349 346 347 345 345 344 344 341 343 343 341 342
299 298 298 299 299 300 298 298 299 300 303 303 302 302 303 304 305 306 307 307 309 311 313 325 329 346 345 344 350 348 349 346 347 348 348 353 350 350 348 346 344 344 345 344 343 341 339 340 341
298 295 298 299 299 297 299 294 297 302 302 301 302 303 303 304 305 305 307 308 309 310 311 319 328 344 346 344 344 346 344 345 344 346 348 351 350 351 350 345 345 344 345 344 343 343 341 339 338
296 297 293 298 299 298 297 290 298 301 300 299 300 301 302 303 304 306 307 308 309 309 310 315 317 326 347 345 343 344 343 344 344 345 345 348 349 347 349 345 344 345 343 343 342 341 338 338 337
297 291 293 294 299 297 295 293 299 302 300 299 301 302 303 304 305 307 308 308 309 309 310 313 319 323 337 346 344 346 347 343 342 345 344 345 346 346 345 344 344 348 343 343 341 341 340 336 336
290 290 292 292 297 297 295 294 298 301 301 300 302 304 304 305 306 309 309 309 309 309 311 313 315 322 326 345 343 342 342 341 341 343 344 346 344 344 344 342 342 344 342 338 341 340 340 338 335
293 292 291 295 298 294 294 294 297 301 302 301 300 300 301 301 304 306 309 310 309 309 309 310 313 321 324 340 340 340 338 339 340 340 345 345 343 342 342 341 341 342 341 338 338 339 338 336 339
294 292 292 295 296 295 294 295 298 299 300 299 298 298 297 297 299 301 303 308 311 313 314 315 315 317 322 324 341 341 339 339 340 340 344 347 343 341 342 340 339 339 337 337 338 337 335 337 339
294 292 293 291 294 295 295 293 295 299 300 298 298 297 296 293 293 295 297 299 304 305 308 312 314 316 320 326 337 337 341 339 337 337 340 344 343 340 340 341 339 338 338 335 337 336 335 332 336
290 296 293 291 291 287 295 285 294 295 294 294 295 294 292 292 293 292 293 294 297 299 302 305 309 314 319 325 328 334 335 333 334 337 339 342 345 340 340 340 338 337 336 335 335 337 336 335 328
292 296 294 294 292 292 292 289 293 294 289 290 292 291 290 291 291 289 290 291 294 296 296 298 303 312 314 318 326 337 333 338 338 339 339 342 344 342 339 339 338 336 335 335 336 334 335 336 331
298 295 296 296 294 286 291 290 289 285 285 288 289 289 288 289 289 291 290 290 292 295 295 296 300 305 307 314 329 340 333 337 333 337 339 339 339 340 343 339 339 338 336 334 335 335 335 334 334
296 293 286 284 285 284 291 289 285 289 289 287 287 287 288 289 288 288 286 287 288 291 293 296 298 301 303 309 314 316 333 334 339 330 335 335 333 335 339 341 341 337 336 335 336 334 333 335 332
293 292 286 278 281 284 291 285 284 291 292 290 289 288 288 288 287 285 285 286 286 289 291 294 296 298 301 305 308 311 313 321 323 319 321 331 333 334 337 338 339 339 337 336 335 334 333 335 332
293 289 295 288 289 285 288 288 290 291 289 288 286 286 285 286 286 284 284 285 285 286 286 292 294 296 298 300 304 306 308 314 315 317 319 321 322 327 336 338 336 336 335 335 335 333 336 336 336
295 296 287 289 280 280 285 283 283 283 283 285 284 283 284 285 285 284 284 284 285 285 288 292 294 293 295 298 300 302 303 306 306 307 309 311 314 317 318 335 336 333 332 334 334 333 334 334 333
293 291 291 291 288 282 281 281 285 283 283 283 283 284 284 284 284 283 283 284 285 286 286 289 293 293 293 294 295 297 299 301 300 301 302 306 310 309 312 322 332 332 331 330 330 329 330 330 328
293 291 291 284 284 286 287 280 287 286 285 284 283 284 284 285 284 284 283 284 284 284 286 289 289 291 292 293 293 295 295 295 295 296 298 302 303 304 303 307 307 318 327 329 327 326 327 328 328

GFSSGP_sfc_thetae_129.txt.gz
Theta_e
319 313 311 308 295 292 288 293 296 298 298 299 303 302 300 302 305 306 324 333 348 347 349 349 349 351 352 353 354 354 354 355 354 354 354 353 354 354 353 353 355 356 357 356 355 355 352 352 351
317 313 308 300 292 286 290 297 294 298 302 304 305 304 302 306 318 322 324 334 342 349 348 348 348 350 351 352 353 354 355 355 354 354 354 354 354 354 354 353 353 355 355 356 354 353 354 352 349
315 314 300 296 292 289 290 298 297 301 304 303 301 305 305 307 320 323 330 337 343 350 350 349 347 348 350 351 352 353 354 353 352 353 354 354 354 354 354 352 351 353 355 355 353 354 353 349 347
310 304 301 292 292 297 298 302 303 302 303 306 304 302 313 316 318 321 335 338 344 349 351 344 345 347 349 350 351 352 352 350 350 351 353 354 354 354 353 350 351 353 355 355 353 353 349 346 345
306 299 292 291 294 299 303 304 303 302 303 305 306 302 310 314 316 317 319 337 338 348 347 346 343 345 348 350 351 351 350 349 349 350 351 352 353 353 351 349 350 351 352 353 351 350 346 345 344
296 296 288 286 292 298 300 302 303 303 304 305 304 305 309 315 314 313 314 317 340 346 348 346 347 346 346 347 348 348 348 348 348 349 350 351 351 350 350 349 349 349 349 349 348 346 345 344 343
293 290 286 289 292 295 299 302 301 303 303 300 302 300 307 309 309 309 309 309 315 341 348 345 345 346 345 343 343 344 346 347 347 348 348 349 348 347 348 348 348 348 348 347 346 344 343 343 342
293 290 287 289 290 292 299 302 302 300 301 305 303 299 297 304 306 306 306 306 308 325 341 346 344 344 343 341 342 342 343 344 345 346 345 345 345 346 346 346 346 347 347 346 344 343 342 342 341
294 286 284 288 289 291 297 296 301 301 299 301 301 301 303 306 305 303 302 303 305 310 312 342 345 344 344 343 343 343 344 344 344 345 344 341 345 345 346 344 344 345 345 344 342 341 340 340 339
290 285 287 293 292 291 296 296 297 295 295 296 299 303 305 305 303 300 299 300 301 303 305 324 342 344 344 346 343 340 341 341 343 345 344 343 343 344 345 343 341 343 342 342 340 340 338 337 337
290 287 292 294 296 295 292 293 296 293 291 295 296 298 301 301 300 300 301 301 300 302 305 306 327 341 344 345 343 341 341 341 342 343 343 343 344 344 343 340 342 341 340 340 339 339 338 337 336
288 293 294 294 295 293 291 294 293 293 295 299 299 300 300 299 298 299 299 300 301 302 304 307 308 332 340 341 342 343 342 340 340 342 342 343 341 340 339 339 340 340 339 336 336 336 336 336 337
290 292 295 295 295 293 296 293 293 295 298 299 299 299 297 297 297 300 302 303 303 304 305 306 307 313 334 341 340 339 344 342 341 341 342 343 341 339 339 339 340 340 339 337 335 335 336 334 335
294 294 294 294 294 294 294 293 291 296 298 297 298 294 295 298 300 301 301 302 303 305 306 309 311 307 320 338 339 337 339 342 341 341 342 343 341 339 339 339 339 339 338 337 335 335 334 333 333
295 290 291 294 294 293 295 288 290 297 297 296 295 297 300 301 300 298 299 299 300 302 303 307 309 311 310 332 339 339 338 340 338 341 342 343 341 339 338 338 337 338 338 336 335 333 333 332 334
290 289 284 293 294 295 292 285 293 295 295 293 297 298 298 299 298 298 298 298 298 299 300 303 306 308 309 311 329 338 338 338 339 338 341 343 342 341 338 338 337 337 337 336 335 332 331 332 334
288 282 286 289 294 292 290 286 291 295 295 296 295 295 296 296 296 297 297 297 296 296 297 298 301 303 305 306 312 327 335 336 338 338 341 340 342 341 339 338 337 338 336 333 334 331 330 330 332
284 284 282 283 289 292 289 287 292 294 295 294 293 293 293 293 293 296 296 296 296 295 296 296 298 300 302 304 307 314 330 336 336 337 339 341 342 342 340 338 336 338 336 334 333 331 329 329 328
290 286 284 286 292 291 289 287 289 291 293 291 291 290 290 290 293 294 294 294 294 294 294 294 295 297 299 299 301 304 309 320 331 334 338 337 341 342 341 337 336 337 335 334 333 330 329 328 329
289 287 286 289 294 291 287 286 290 293 292 291 290 289 288 289 290 291 291 291 291 291 291 292 293 294 296 298 299 302 306 313 318 330 335 338 337 341 340 338 336 337 335 332 332 331 327 328 328
288 287 287 288 290 290 289 286 288 292 293 292 291 290 288 288 287 288 288 288 288 288 289 291 292 292 294 296 298 301 304 311 315 319 329 334 338 339 340 337 337 335 335 333 333 331 330 327 327
285 292 292 290 287 280 289 278 288 290 289 289 288 286 286 286 287 287 286 286 286 287 289 289 290 290 293 295 296 298 300 304 308 313 318 327 336 338 339 337 336 335 334 334 332 332 330 329 325
288 295 291 291 286 284 286 282 284 291 286 286 286 286 285 286 286 286 285 285 286 287 287 289 289 289 292 295 297 299 301 304 307 310 314 317 330 337 337 337 335 334 334 332 333 331 330 331 329
296 292 290 290 287 277 286 286 282 281 283 284 286 285 285 285 287 286 286 286 285 286 286 287 287 289 291 294 297 299 300 302 305 308 312 314 321 333 337 337 335 335 334 333 332 332 331 330 330
292 286 278 276 276 278 288 283 279 284 285 284 283 283 285 286 285 284 283 283 285 285 286 287 288 288 290 294 297 299 302 306 308 308 312 316 315 317 336 336 333 333 333 333 332 331 331 330 329
289 288 280 273 273 277 288 279 278 286 287 286 286 285 285 285 284 283 283 283 284 285 286 286 287 288 290 293 296 299 303 306 312 312 316 317 312 312 335 335 333 333 332 332 331 331 331 330 330
289 285 291 284 285 275 280 284 288 287 285 285 284 284 283 283 282 281 282 283 284 285 285 285 286 287 288 291 295 297 298 302 308 309 308 313 309 311 315 332 332 333 332 331 331 330 330 330 329
291 293 283 283 273 274 279 279 275 277 281 283 282 282 283 283 281 281 282 283 284 285 285 286 286 286 287 290 293 295 295 297 299 300 300 305 310 309 305 307 316 324 327 331 330 329 329 329 329
288 286 290 289 284 273 268 276 285 280 278 280 281 282 283 281 280 281 282 283 284 285 285 285 285 285 285 288 290 291 293 293 294 294 295 297 300 300 299 301 301 302 303 307 312 318 324 328 328
293 291 291 279 279 279 279 274 286 284 284 284 282 283 279 281 279 281 283 283 283 284 284 285 284 284 285 286 286 290 291 291 290 290 292 293 294 295 294 294 295 295 298 300 303 305 308 311 311

GFSSGP_sfc_thetae_132.txt.gz
Theta_e
318 312 307 305 294 290 286 291 293 295 296 298 301 302 302 306 310 305 323 335 347 345 348 349 349 351 353 353 353 352 353 354 353 353 352 352 353 353 353 354 355 356 357 354 353 353 352 351 350
317 313 305 298 290 285 288 294 293 297 300 302 303 301 306 309 320 323 326 336 348 347 347 347 348 350 352 352 353 353 354 354 353 353 353 353 353 353 353 353 353 355 356 356 354 353 352 351 348
311 312 299 294 288 286 289 296 298 300 303 302 300 308 308 308 316 326 330 344 348 346 348 348 346 348 350 351 352 352 353 352 352 352 353 353 353 353 352 351 352 353 356 356 354 353 353 348 346
307 301 298 291 289 293 295 297 298 298 303 305 305 305 311 314 313 316 322 344 347 347 349 344 343 346 348 350 351 351 351 349 350 350 352 353 354 353 351 349 351 353 354 355 354 354 349 346 344
303 296 290 288 288 294 296 299 299 299 301 303 307 304 307 313 314 311 311 322 344 345 345 345 341 344 347 350 351 351 350 348 349 350 351 352 353 353 350 348 350 351 352 353 352 350 346 344 343
294 293 286 284 287 294 296 297 298 300 299 301 302 306 305 309 305 306 308 308 321 345 344 345 346 345 345 346 348 347 347 347 347 348 349 351 351 350 349 348 348 348 349 349 348 346 344 343 343
291 288 285 286 288 290 294 299 298 299 298 298 301 301 303 302 304 305 304 305 308 340 343 343 343 345 343 342 342 343 345 346 346 346 347 347 346 346 347 347 347 347 347 346 346 344 343 343 342
291 288 283 284 287 287 294 298 298 297 297 302 301 296 297 300 303 303 304 303 304 308 319 341 341 342 341 341 341 341 342 343 344 345 344 343 344 345 345 344 345 346 346 345 344 342 341 341 340
291 284 282 284 286 288 293 293 298 298 296 300 299 300 302 304 303 300 299 302 303 305 304 325 342 341 340 340 342 342 343 343 342 344 343 341 344 344 345 343 342 344 344 343 342 341 339 338 338
288 282 285 290 289 290 293 294 295 293 293 294 296 301 302 302 299 297 297 298 300 302 304 305 315 335 341 344 341 339 340 341 344 344 345 345 341 342 345 343 340 342 341 341 340 339 338 337 336
285 285 289 291 291 292 288 290 293 291 290 293 294 297 299 300 299 300 301 301 301 304 306 308 310 312 325 340 341 338 338 338 340 341 343 342 342 341 342 341 342 341 340 340 338 337 338 336 334
286 290 290 292 292 290 289 291 292 290 294 297 297 297 298 298 299 300 300 300 300 301 303 304 307 309 310 312 336 339 338 338 338 341 342 343 341 339 339 339 339 340 340 337 337 337 336 334 334
288 290 293 293 293 291 294 290 291 293 296 297 297 297 298 298 297 298 298 298 298 298 300 301 304 306 307 310 313 330 339 339 339 339 342 343 342 339 338 338 339 340 339 336 335 333 334 333 333
292 292 291 292 292 292 291 291 291 295 296 295 297 296 296 295 296 296 296 295 296 297 297 299 300 302 304 305 307 309 328 340 339 339 340 343 342 340 338 338 338 338 338 336 335 334 333 332 332
293 289 290 291 292 291 292 287 289 295 295 296 295 295 295 295 295 294 295 294 294 295 295 297 298 300 300 302 304 306 311 328 337 339 339 340 342 340 338 338 337 338 338 336 334 332 330 330 332
289 287 283 291 291 292 292 284 291 293 294 293 293 293 293 293 293 294 294 293 294 294 294 295 297 297 297 299 301 305 308 313 329 336 339 340 341 340 338 337 337 338 337 335 334 332 331 330 330
285 280 284 287 291 290 287 284 291 293 294 291 290 290 291 291 292 293 293 293 293 293 293 293 294 294 296 297 299 302 305 308 324 334 335 338 341 340 339 338 337 337 336 334 334 332 331 329 330
281 282 282 282 287 288 285 286 289 292 290 289 287 288 288 289 290 292 292 292 291 291 291 291 292 293 294 295 297 298 301 305 309 316 333 335 338 340 339 338 336 336 335 334 333 332 331 330 331
288 285 283 284 289 287 287 284 286 288 288 287 287 287 287 288 290 291 291 290 289 289 289 289 290 291 291 291 292 294 295 299 303 312 317 329 334 336 338 337 335 336 335 334 333 331 329 326 326
288 285 284 287 291 289 285 283 287 289 288 287 286 285 286 286 287 289 289 288 287 287 287 288 289 289 290 290 291 293 295 298 303 305 313 323 325 333 336 337 335 336 335 334 332 330 326 327 328
288 285 284 285 288 289 287 283 286 289 289 289 288 287 286 285 285 286 287 286 286 285 286 287 288 288 289 290 291 293 295 298 301 306 311 317 323 327 334 336 336 335 335 333 331 331 329 325 324
285 290 289 288 285 279 287 276 285 287 286 286 286 284 284 284 285 285 285 284 284 285 286 287 288 288 290 291 291 290 291 293 298 303 307 309 315 320 327 334 335 335 335 333 332 332 330 328 325
287 293 290 288 285 282 284 278 281 288 285 283 284 284 284 284 284 284 284 284 285 285 286 287 288 288 289 290 291 291 293 296 299 302 303 306 310 317 320 319 332 335 335 335 333 331 330 330 328
294 290 289 288 285 276 284 282 279 280 281 283 283 284 284 284 284 284 284 285 285 286 287 287 287 288 289 291 292 293 294 295 297 299 301 304 309 314 318 318 316 334 335 334 333 332 331 330 329
291 284 277 276 275 277 287 282 278 282 283 283 282 283 283 283 283 282 282 283 284 285 286 286 287 286 288 289 290 293 296 298 300 302 304 306 307 312 317 318 317 318 332 334 334 333 331 330 328
288 287 279 274 273 277 287 279 278 284 286 286 285 283 284 282 283 282 281 283 283 285 285 286 286 286 287 289 289 293 296 298 300 304 305 307 311 312 312 311 311 322 324 333 332 331 331 330 328
289 285 290 282 283 276 280 282 285 285 284 284 283 283 283 282 282 281 281 282 284 284 285 285 285 286 287 288 288 290 293 295 298 302 307 309 313 313 308 306 307 319 324 332 331 330 328 330 329
290 292 281 280 272 275 279 280 276 280 280 281 281 282 281 281 280 281 281 282 283 285 285 286 286 285 286 287 288 289 290 292 295 297 298 301 306 307 302 302 305 304 325 331 330 329 329 328 329
287 285 288 288 283 277 272 276 284 281 276 278 282 283 277 278 279 280 281 281 283 284 285 285 285 285 285 286 287 288 288 290 292 293 293 294 296 298 297 297 298 299 302 311 324 324 326 327 327
291 289 289 281 281 280 276 275 284 282 282 283 283 281 276 278 278 280 279 282 282 283 284 284 284 284 285 285 286 286 287 287 288 290 291 291 290 291 293 294 294 293 297 299 303 306 306 306 306

GFSSGP_sfc_thetae_135.txt.gz
Theta_e
319 312 306 302 294 289 287 289 292 295 296 297 308 311 310 311 309 304 324 333 345 344 347 348 349 351 352 352 351 351 352 352 353 352 352 353 354 354 354 354 354 355 355 353 352 351 351 349 349
316 312 303 296 289 285 287 293 295 297 298 301 305 304 309 310 317 320 327 338 346 345 346 347 348 350 351 351 351 351 352 352 352 352 352 352 353 354 354 353 353 354 355 354 351 351 351 350 347
308 309 298 292 286 285 288 294 295 299 302 300 302 306 306 307 311 315 321 346 347 344 346 346 346 347 350 351 351 351 352 351 351 351 352 353 353 353 353 352 351 354 356 355 352 352 351 347 345
306 300 297 290 288 290 291 294 296 297 302 304 305 301 307 311 311 311 313 345 345 345 346 343 344 346 348 350 350 351 351 349 349 350 352 353 353 352 351 350 351 353 355 355 353 353 348 344 343
298 294 289 287 288 292 293 294 296 294 297 301 305 301 303 308 310 309 307 321 343 343 343 343 341 344 347 349 350 350 349 348 348 349 350 351 352 352 349 348 350 351 353 353 353 350 346 344 343
293 291 286 283 286 292 293 295 294 295 296 297 304 300 298 305 303 303 306 305 334 343 343 343 345 344 344 346 347 346 347 347 347 348 349 350 350 349 348 347 348 348 349 348 349 346 344 343 342
290 287 284 284 287 289 291 296 294 296 296 295 296 299 298 300 301 302 303 303 306 316 315 335 340 343 342 340 341 342 344 346 346 346 346 347 346 346 347 347 347 347 347 346 346 344 342 342 342
290 287 283 282 285 285 292 295 294 295 295 300 297 293 293 297 301 300 300 301 303 306 308 309 314 329 339 339 340 340 341 342 343 344 344 343 343 344 344 344 345 345 346 345 344 342 341 341 340
289 284 281 283 285 286 290 290 295 295 294 297 297 298 300 302 300 301 301 303 304 306 306 307 310 311 312 329 341 342 342 342 340 343 342 340 344 343 344 343 342 344 343 343 342 341 339 338 338
286 282 283 288 288 287 291 292 293 290 291 291 294 299 301 302 301 300 299 298 299 300 302 302 304 308 310 312 314 334 340 342 341 344 344 344 343 342 344 342 340 341 341 341 340 339 337 337 335
284 283 286 289 289 291 287 287 290 288 287 292 293 294 299 299 298 297 297 297 297 299 299 300 301 304 305 307 311 314 333 337 340 342 342 342 342 342 343 341 341 340 340 339 338 336 337 336 333
285 289 288 289 291 289 287 289 290 289 293 295 295 298 297 295 295 295 295 294 295 296 296 297 298 300 300 303 306 309 311 326 338 339 341 340 340 340 341 341 341 342 341 340 337 337 336 334 332
286 289 292 292 292 290 292 289 289 292 294 298 297 295 294 293 293 294 294 294 294 294 295 295 297 297 298 299 301 303 305 310 319 337 340 340 340 338 339 339 340 340 341 339 337 336 334 332 332
290 290 289 290 291 291 290 289 289 293 297 295 294 291 291 292 292 292 292 291 292 293 293 295 295 296 296 296 298 299 301 306 309 319 337 339 339 340 339 339 338 339 339 338 337 334 332 332 332
291 287 289 289 289 288 291 286 289 294 294 292 291 291 291 291 291 290 291 290 291 291 292 292 294 294 293 294 296 297 299 303 305 311 322 337 337 338 339 339 338 338 338 337 335 332 330 330 330
287 286 282 288 289 289 289 284 288 292 292 289 289 289 290 290 290 291 291 290 290 289 289 291 292 292 292 293 293 295 297 299 302 306 316 326 334 337 336 338 338 339 337 336 334 332 331 329 329
283 279 282 286 289 288 286 283 288 291 291 288 286 287 288 288 289 290 290 290 289 288 288 289 289 290 291 291 292 293 295 297 301 305 307 312 327 335 336 336 338 339 337 336 334 332 331 328 327
280 281 280 281 286 287 284 284 287 289 288 286 285 286 286 286 287 290 290 289 289 288 288 288 289 290 290 290 291 291 292 295 298 300 303 308 314 320 335 336 336 336 336 334 334 331 330 329 328
286 283 282 284 288 286 285 283 284 286 286 284 284 284 285 285 288 289 289 288 287 287 287 287 287 288 289 288 288 288 289 291 294 297 301 305 306 316 327 335 334 336 334 335 333 331 328 325 329
286 284 283 285 288 288 285 282 285 287 286 285 284 283 284 284 286 287 287 286 286 286 286 286 287 288 289 289 289 290 290 291 293 296 299 302 307 317 324 331 333 334 334 334 331 330 329 328 328
287 284 283 284 287 288 285 282 283 286 287 287 286 285 284 284 284 284 285 285 285 284 285 286 288 288 289 290 291 291 291 292 292 295 298 303 310 311 314 321 330 331 334 333 331 331 328 326 324
283 289 288 286 284 278 285 276 283 284 284 285 284 283 283 283 284 284 283 283 283 284 286 287 288 288 289 290 289 289 288 288 291 293 297 301 306 308 311 316 323 329 333 333 332 332 330 327 324
286 291 288 287 283 281 282 276 279 285 284 283 283 283 282 283 283 282 282 283 284 285 286 287 287 288 288 289 289 289 289 291 293 294 296 298 301 304 308 313 319 318 320 329 332 331 329 329 326
292 288 287 286 282 275 282 280 278 280 281 283 283 283 283 283 283 283 283 283 284 286 286 286 287 287 288 288 289 290 289 290 293 295 295 297 300 303 309 315 316 318 316 321 326 331 329 328 328
288 284 276 275 274 276 284 280 278 282 283 283 281 281 282 282 282 281 281 281 284 284 285 286 286 285 287 288 289 289 290 292 293 296 298 300 301 303 307 313 314 317 318 318 321 330 329 328 326
286 286 278 273 272 275 285 279 279 284 285 284 284 285 283 281 281 281 280 281 283 285 285 286 286 285 287 287 287 289 290 291 292 296 299 301 304 305 307 311 309 316 319 321 321 321 330 329 328
286 283 289 283 281 275 279 281 282 284 283 283 282 283 279 279 280 279 280 281 283 284 284 285 285 285 286 287 288 288 289 289 290 293 297 302 308 308 313 307 305 307 315 317 318 319 319 329 329
290 291 283 283 274 274 277 276 276 281 281 280 276 281 277 279 279 279 279 280 283 283 285 285 285 285 286 287 287 288 288 288 289 291 292 296 300 304 303 301 300 302 310 314 317 319 320 327 327
286 285 287 286 281 273 269 275 283 280 277 276 277 281 274 275 275 277 279 279 282 283 283 283 284 284 285 286 286 287 286 287 288 288 289 291 294 295 297 297 297 297 298 299 315 319 321 326 326
289 287 288 281 280 280 274 276 285 282 281 281 280 276 274 275 274 275 277 278 280 282 282 283 283 283 285 285 285 286 286 286 286 286 286 289 290 292 292 293 293 293 293 293 294 297 301 301 302

GFSSGP_sfc_thetae_138.txt.gz
Theta_e
319 311 305 301 293 288 285 288 290 294 298 305 311 312 309 309 309 304 324 337 344 344 346 348 348 351 352 351 351 351 352 352 352 352 353 354 354 355 355 355 355 356 357 356 354 352 351 350 348
316 310 302 295 288 283 286 292 292 294 297 304 306 305 309 306 315 317 327 329 345 344 345 345 348 349 351 351 351 351 352 351 352 352 353 353 354 354 354 353 352 354 356 355 353 351 351 350 347
307 304 298 291 285 284 286 292 293 296 300 298 302 304 304 304 309 312 313 334 345 344 344 345 346 347 349 350 351 350 351 350 351 351 352 353 354 355 354 352 352 353 354 354 352 352 352 347 345
304 300 295 290 287 291 288 292 293 293 300 304 302 300 303 307 307 306 307 325 343 344 345 342 343 345 348 350 350 350 350 349 349 349 351 352 353 354 353 350 351 353 354 354 353 352 349 345 343
296 293 288 286 287 290 291 292 292 292 295 300 302 297 298 303 304 303 303 314 321 314 323 342 341 344 346 348 350 348 348 348 348 348 350 351 352 352 350 349 349 350 352 354 352 350 346 344 343
293 291 284 283 286 290 291 292 292 293 293 295 300 295 295 301 299 300 303 305 308 308 310 313 319 323 332 343 343 344 345 342 346 347 348 350 350 349 348 348 347 347 348 348 348 347 344 343 342
289 286 283 284 286 287 289 292 292 293 293 293 295 296 296 297 298 301 303 305 305 306 305 307 309 313 317 325 334 339 341 344 344 343 345 346 346 345 346 346 347 346 346 346 346 345 343 342 342
289 286 283 282 285 284 290 293 292 292 292 297 295 291 290 295 301 302 302 302 302 303 302 301 304 307 307 310 319 325 339 340 342 342 342 342 343 344 344 344 345 345 345 345 345 343 341 341 340
287 283 280 281 283 285 289 289 294 294 292 295 295 295 298 302 302 300 299 298 299 300 299 299 300 303 304 307 312 315 320 337 341 341 339 337 342 341 343 343 342 344 343 343 343 341 339 338 338
285 281 281 286 286 285 289 290 291 289 291 290 293 299 300 299 297 295 294 294 294 296 296 297 298 300 300 303 305 307 310 318 333 340 341 339 341 343 341 342 340 341 341 340 340 339 337 337 336
283 283 285 287 288 289 286 286 289 287 286 290 291 295 295 295 294 293 293 293 292 294 295 296 296 297 297 298 301 302 305 308 313 329 338 340 342 340 340 341 341 339 339 339 338 337 336 335 334
284 287 287 289 289 289 286 288 288 287 289 295 295 295 293 292 291 291 291 291 291 292 293 294 294 295 295 296 297 300 301 303 306 310 316 337 339 338 338 340 341 341 341 340 338 336 337 336 333
284 287 290 291 290 289 291 289 288 291 293 294 293 292 291 290 290 291 291 291 291 290 291 292 293 293 293 294 295 296 297 300 303 306 309 320 335 338 339 339 339 339 341 340 338 337 336 333 332
288 288 289 289 289 289 289 288 289 292 293 291 291 288 288 289 289 289 289 289 289 289 289 291 291 292 292 292 293 293 295 297 300 302 306 310 319 334 337 337 338 338 339 339 337 336 334 332 332
289 286 288 287 287 286 289 284 286 292 292 289 288 288 289 289 289 288 288 288 288 288 289 289 291 291 291 291 291 292 293 295 297 299 302 305 313 316 332 335 335 337 338 338 336 335 334 331 332
285 284 282 286 288 288 286 282 288 290 289 286 286 287 288 288 288 288 289 288 288 287 287 289 290 290 290 290 290 291 292 293 294 297 300 303 306 310 315 332 334 337 338 337 335 333 331 330 330
283 279 281 285 287 287 287 282 286 289 289 286 284 284 286 286 288 289 289 288 288 287 287 287 288 289 289 290 290 290 291 291 293 295 297 299 302 306 313 316 333 336 336 335 334 332 332 329 329
280 280 280 282 286 286 284 283 286 287 286 284 283 284 284 285 286 288 288 288 287 287 287 287 288 289 289 289 290 290 290 291 292 292 294 297 299 303 306 308 316 335 334 334 334 332 332 331 330
285 283 281 284 289 284 284 282 284 284 285 283 283 283 283 284 286 287 287 287 286 286 286 286 287 288 288 288 288 288 288 290 291 293 294 296 297 300 301 304 314 327 325 331 333 332 330 328 329
286 283 282 285 288 286 284 282 284 286 285 283 282 282 282 283 284 286 286 285 285 285 285 286 287 287 288 289 289 290 289 291 292 293 294 296 298 301 305 309 314 318 324 320 333 331 328 328 328
285 283 283 284 285 287 284 281 282 285 285 285 284 283 283 282 282 283 284 284 284 284 285 287 287 288 289 289 289 289 290 291 291 292 292 295 297 299 302 307 308 313 320 325 329 331 330 325 327
282 288 287 285 282 277 284 275 281 283 283 283 283 282 281 282 283 283 283 282 283 285 287 287 287 287 288 288 288 288 287 286 290 291 293 295 296 297 300 304 305 309 317 324 327 331 331 328 325
285 289 287 286 282 280 280 275 278 283 281 282 282 282 281 282 282 281 282 282 284 286 286 287 287 288 288 288 288 288 288 289 290 292 293 295 297 298 300 301 303 307 314 317 324 327 329 329 327
289 287 286 284 281 275 281 280 277 279 282 282 283 282 282 282 282 282 283 283 284 285 286 286 286 286 287 288 287 288 288 288 289 291 292 295 298 299 301 302 304 311 314 314 318 324 320 322 328
286 282 276 275 274 275 282 278 280 281 282 282 280 281 282 281 281 280 280 280 282 283 284 286 285 285 286 287 287 287 288 288 288 290 291 293 295 299 302 303 305 309 313 314 317 321 322 318 325
284 283 277 273 271 275 283 278 278 284 285 284 284 281 281 279 280 279 279 280 281 282 283 285 285 285 286 286 287 288 288 288 288 289 290 293 295 299 303 305 307 309 314 314 317 320 320 320 318
284 281 286 281 280 273 277 281 282 283 283 283 281 281 278 278 278 277 278 279 280 281 281 283 284 284 285 285 286 287 287 286 287 288 289 291 293 296 300 306 308 309 307 312 316 317 319 320 319
286 288 278 279 275 274 277 275 277 279 281 279 274 276 276 277 277 277 276 278 280 280 281 282 283 284 284 285 286 286 287 286 286 286 286 287 290 293 297 301 301 303 304 306 312 314 316 318 319
284 282 285 284 282 274 269 272 283 279 279 278 276 276 274 274 274 275 275 276 278 280 281 281 282 282 282 284 285 285 285 286 284 284 284 286 288 289 291 295 296 296 297 299 309 313 316 316 313
288 285 285 277 278 281 277 275 284 283 282 282 280 276 274 275 273 272 274 275 276 278 280 280 281 280 281 282 282 283 283 284 282 282 282 283 285 287 288 291 292 293 294 294 296 296 296 295 295

GFSSGP_sfc_thetae_141.txt.gz
Theta_e
324 315 313 310 303 300 295 296 298 299 310 316 317 315 313 316 313 311 336 336 348 348 350 351 349 351 352 351 351 352 352 352 352 354 355 355 355 355 355 355 355 357 358 357 355 354 352 350 349
318 313 311 305 299 295 296 297 296 299 305 308 311 313 310 305 315 321 319 327 349 348 349 350 347 349 351 351 351 351 352 351 352 352 353 355 355 355 355 355 353 356 357 357 355 353 353 351 347
312 308 308 301 296 294 294 296 297 301 304 304 306 308 305 305 308 308 319 339 328 331 344 335 340 344 348 350 351 351 352 351 351 351 352 354 353 355 355 353 351 354 355 357 354 353 353 348 345
308 309 304 298 294 296 296 297 297 299 306 309 306 299 304 305 307 308 314 318 318 318 319 322 327 329 337 346 348 350 349 349 349 350 352 353 353 353 353 351 351 353 354 355 354 353 350 345 344
304 304 298 296 295 297 298 298 299 299 302 303 305 297 299 302 307 309 311 311 311 311 313 313 320 321 324 328 332 340 345 347 348 348 350 351 351 352 350 349 350 351 353 353 352 351 347 344 343
302 301 296 294 294 296 298 299 299 298 299 300 299 298 298 303 307 308 309 308 308 307 308 309 313 316 317 320 323 327 338 343 346 346 345 348 350 349 349 347 347 348 349 350 349 348 345 343 343
298 297 292 292 293 293 295 299 297 297 297 299 305 297 300 302 306 307 306 307 307 306 306 306 308 309 311 314 317 319 323 335 342 344 344 343 341 344 347 347 346 346 345 346 345 346 344 343 342
297 297 291 292 292 292 296 298 298 298 296 301 301 297 297 302 306 306 305 304 305 304 304 303 305 306 305 309 312 314 316 319 327 341 343 341 340 341 342 344 345 345 345 345 345 344 342 341 341
295 293 290 291 291 293 297 296 299 299 298 298 300 300 301 302 303 303 302 302 302 302 302 302 302 303 303 305 307 310 312 314 316 328 337 342 347 347 346 343 341 344 343 342 343 341 340 339 339
294 292 290 293 294 293 295 295 296 297 296 296 298 300 300 300 299 298 297 297 297 298 299 300 300 301 301 302 305 306 307 309 312 316 316 327 344 347 344 342 337 338 339 339 340 339 337 338 345
292 292 292 293 294 295 294 294 296 295 294 294 297 296 297 297 297 296 296 296 295 297 297 298 298 300 299 300 301 302 303 305 307 311 313 315 324 344 346 345 344 347 341 348 344 345 345 345 345
292 292 293 295 295 294 294 296 294 294 294 297 296 296 295 294 294 294 294 294 294 295 296 297 297 298 298 299 299 300 301 303 304 306 309 311 317 319 340 344 343 344 345 345 347 346 345 345 345
291 292 294 295 294 293 295 295 294 293 294 295 295 294 293 293 293 294 294 294 294 294 295 295 296 297 297 297 298 298 299 300 302 303 307 308 310 314 322 337 344 342 341 343 342 343 343 343 340
292 292 293 293 294 293 293 292 295 293 294 293 293 292 292 292 292 293 293 293 293 293 293 295 295 296 296 296 297 297 298 299 300 301 303 305 308 310 316 321 336 340 340 341 341 340 340 340 337
293 291 292 293 293 292 294 291 290 294 293 291 291 292 292 292 293 292 292 292 292 292 293 294 295 295 295 295 296 296 297 298 298 299 301 304 305 308 309 313 322 334 339 340 340 340 341 338 336
290 290 288 292 293 293 293 287 291 294 292 290 290 290 291 291 291 292 292 292 292 292 292 293 293 294 294 295 295 296 296 297 297 298 299 301 302 304 306 308 313 327 336 339 337 336 336 335 334
289 287 287 290 293 293 294 289 291 292 292 289 289 289 289 290 291 292 292 292 292 291 291 292 293 293 294 294 295 296 296 296 297 298 298 299 300 302 303 305 311 316 317 332 336 334 334 332 332
284 285 287 287 292 293 291 290 290 290 291 289 288 288 288 289 289 291 291 291 291 291 291 292 293 293 293 294 294 295 295 296 296 297 297 299 299 301 302 303 306 308 312 314 333 333 333 332 332
288 286 286 289 292 289 290 289 289 289 289 288 287 287 288 288 290 291 291 291 290 291 291 291 292 292 292 292 291 291 290 292 294 296 297 298 298 299 299 302 306 308 310 314 327 332 329 330 332
288 287 286 289 292 290 289 289 288 289 288 288 287 287 288 288 289 289 290 290 289 290 291 291 291 291 292 291 290 290 290 291 293 294 296 297 297 297 297 300 302 308 314 316 319 330 327 327 331
288 286 287 287 289 291 289 288 287 288 288 288 287 287 287 287 287 287 288 288 289 289 290 290 290 291 291 290 290 289 291 291 290 292 293 295 297 299 298 298 302 306 310 312 316 324 318 313 323
284 290 290 288 286 284 289 282 287 287 286 287 286 286 286 286 287 287 287 287 287 289 290 290 290 290 290 289 288 288 287 286 288 290 292 293 296 298 300 301 300 301 305 311 317 322 321 319 317
288 291 289 289 287 286 286 284 286 286 285 286 286 286 286 286 286 286 286 286 287 288 289 289 290 289 289 288 288 288 287 288 289 290 291 292 295 298 301 302 302 301 305 308 313 317 322 320 323
292 290 289 288 287 281 285 285 285 286 288 287 286 285 285 285 285 286 286 286 286 288 288 289 289 288 288 288 288 288 288 287 287 288 289 291 293 295 298 301 303 303 305 309 314 320 325 326 324
290 287 282 280 281 280 285 283 287 287 287 288 285 284 284 284 284 284 284 285 285 286 287 287 288 287 288 287 288 288 288 287 286 287 287 288 290 293 295 298 302 304 307 310 316 318 321 327 326
288 287 282 275 277 280 287 282 288 287 287 287 286 284 284 283 284 283 282 284 284 285 285 286 286 286 287 287 287 288 288 287 287 286 286 287 288 291 294 297 299 303 308 311 314 318 320 326 323
287 285 290 284 284 280 283 286 286 285 285 285 285 284 282 282 282 282 282 283 284 283 284 285 285 286 286 286 287 287 287 286 285 285 286 286 288 290 293 295 299 307 309 311 313 318 320 324 322
290 291 284 285 276 275 281 282 286 282 285 285 282 282 280 281 281 281 281 282 283 283 284 285 285 284 284 285 285 285 285 285 285 285 285 285 287 288 290 291 295 297 300 303 308 312 320 323 324
287 286 287 287 285 278 276 282 287 286 286 285 283 282 281 280 279 280 281 282 282 283 283 283 283 282 282 283 284 284 284 283 284 283 284 284 285 286 288 289 290 293 295 297 303 311 315 319 319
291 288 288 282 279 282 280 282 289 288 288 287 283 281 280 281 279 279 280 281 281 282 282 282 282 281 282 282 281 282 282 282 282 282 282 282 284 285 285 287 287 288 290 293 294 294 295 297 297

GFSSGP_sfc_thetae_144.txt.gz
Theta_e
325 323 322 318 308 306 301 302 306 306 313 318 318 318 319 322 320 316 338 349 350 350 350 351 346 349 352 352 352 352 351 351 351 354 355 355 355 355 355 355 356 357 358 358 356 354 352 350 349
321 319 319 316 305 300 301 303 303 309 315 317 316 317 315 308 321 320 332 331 345 336 335 332 336 342 347 348 351 352 353 352 351 351 354 355 355 354 354 355 355 356 357 358 356 354 353 352 348
319 316 314 310 307 302 301 303 307 309 312 311 311 312 310 307 311 322 327 330 335 331 329 324 326 330 334 337 342 346 350 351 351 351 352 353 353 354 353 351 352 354 357 357 356 355 355 351 346
317 316 314 305 301 302 303 305 306 309 311 312 312 305 306 309 311 320 320 322 322 322 323 320 320 322 326 329 332 335 343 346 350 351 350 352 353 353 353 351 351 352 354 356 355 353 353 348 345
317 314 306 303 301 302 303 304 308 308 309 309 308 303 302 309 315 315 315 315 316 316 317 317 317 318 320 322 324 326 331 338 345 348 350 349 350 351 351 350 350 349 352 353 353 352 350 346 344
309 310 302 300 300 302 303 304 304 306 307 307 305 304 302 311 311 312 314 314 315 314 315 315 316 316 316 317 318 320 322 325 332 343 346 348 348 347 347 348 349 349 349 350 350 350 348 345 344
305 305 302 301 300 299 300 304 302 302 305 305 308 303 304 308 310 311 313 314 314 314 314 314 315 314 314 315 315 316 318 319 322 331 339 343 344 344 346 346 347 348 348 348 348 347 346 344 343
307 305 299 301 299 298 300 302 302 302 300 306 306 303 302 307 310 311 312 313 313 313 313 312 313 313 313 314 314 314 315 316 318 321 323 325 339 342 343 344 344 344 346 346 346 345 344 343 341
304 301 299 298 299 299 301 300 302 304 302 304 305 305 305 306 308 309 310 310 310 310 310 311 310 311 312 312 312 314 314 315 318 320 322 324 334 348 347 343 342 342 343 343 344 343 342 341 340
301 301 297 300 300 299 299 299 301 301 301 302 303 304 305 306 306 305 305 305 306 307 308 308 308 309 310 308 312 313 313 314 316 318 320 321 323 327 342 342 339 340 340 341 339 341 340 339 346
301 299 298 298 300 301 300 300 302 300 298 300 301 302 303 303 304 304 304 304 304 305 306 306 307 308 308 308 309 310 310 312 313 316 317 318 320 323 327 345 350 348 342 347 343 343 346 345 345
297 298 299 300 300 299 299 301 299 300 300 302 302 301 302 301 302 302 302 303 303 304 304 305 306 307 307 306 307 308 308 309 311 311 314 315 315 318 321 327 339 347 351 347 345 345 345 344 345
297 298 299 300 299 300 300 299 300 297 299 300 300 300 300 300 301 302 302 303 303 302 303 304 305 305 305 306 306 307 307 308 308 309 312 312 312 315 317 319 327 339 347 348 346 346 346 345 345
298 298 299 299 299 299 297 298 300 298 300 299 299 299 300 299 299 301 301 301 301 301 302 304 303 304 304 304 305 305 306 307 307 308 309 310 311 312 314 316 318 322 338 342 347 344 345 346 345
298 296 297 298 298 298 299 295 296 299 300 298 298 298 298 298 299 299 300 300 300 301 301 302 302 303 303 303 304 304 305 305 305 306 308 308 309 309 311 312 314 317 324 338 342 344 342 345 344
296 296 294 298 298 297 298 294 297 299 299 298 297 297 297 297 297 299 299 299 300 300 300 301 301 302 303 303 303 303 304 304 305 305 306 307 307 308 308 309 311 315 317 326 336 339 339 337 338
296 294 294 295 299 297 297 295 298 300 298 297 297 296 296 297 297 298 299 299 299 300 299 300 301 301 301 302 303 303 304 303 304 304 304 306 306 306 306 307 309 312 313 317 325 332 336 334 335
293 292 294 294 297 298 297 297 298 298 297 296 295 296 297 296 296 297 298 299 299 300 300 300 301 301 301 301 301 301 301 301 302 302 302 303 304 305 305 305 307 310 310 312 315 324 333 335 333
293 293 293 296 299 296 296 296 297 297 297 296 296 296 297 296 297 298 298 299 299 300 299 299 299 300 299 298 297 297 296 297 298 300 301 301 303 303 301 300 301 305 309 311 313 316 325 332 338
293 292 293 295 296 295 296 295 296 297 296 297 296 296 296 296 296 296 297 298 298 298 298 299 299 299 299 297 296 296 295 295 296 297 298 298 297 298 298 300 300 301 304 307 314 315 322 331 339
293 292 292 292 295 297 295 294 294 296 296 295 294 295 295 294 294 295 295 296 297 297 297 297 298 298 298 297 297 295 296 295 294 293 293 295 296 297 298 299 301 301 301 302 307 313 316 323 332
289 294 292 292 291 288 294 286 294 296 294 293 294 294 295 294 294 294 294 294 295 295 297 297 297 297 297 297 295 293 291 288 290 291 292 293 295 296 298 299 300 302 302 302 304 308 316 322 320
292 295 293 293 292 291 292 288 293 294 293 294 295 293 293 293 293 293 293 293 294 295 295 296 296 297 297 296 295 292 290 290 289 290 290 292 294 295 296 298 299 300 303 303 304 307 312 321 324
296 294 294 294 292 285 290 289 292 293 294 295 295 293 292 292 292 292 293 293 293 294 294 295 295 295 297 296 294 292 289 288 287 288 288 290 292 293 294 295 296 298 301 304 303 309 312 318 322
295 291 286 284 285 283 290 288 290 295 294 296 293 292 291 292 292 291 291 291 291 291 291 292 293 294 295 295 293 291 288 287 287 287 287 288 289 290 291 292 295 296 300 303 306 310 313 317 317
291 290 285 277 280 284 290 284 292 294 294 293 293 290 290 290 290 289 287 290 290 289 289 290 291 292 293 293 292 290 289 287 287 287 287 287 288 289 290 292 294 297 301 303 306 309 311 319 322
290 288 293 286 288 284 287 290 292 291 291 291 291 291 289 289 288 286 286 289 289 286 285 289 289 290 291 291 291 289 289 287 286 287 287 288 288 288 289 291 292 296 299 302 308 309 312 316 321
292 294 285 288 278 277 284 286 288 288 291 291 286 289 287 287 287 286 285 286 287 285 286 287 288 287 288 289 288 289 287 288 287 286 285 287 287 287 288 288 290 292 295 298 302 308 312 313 321
290 288 289 289 287 280 280 285 295 291 289 289 286 286 286 285 284 285 285 285 286 287 285 285 285 284 284 286 287 287 285 286 287 285 285 285 286 287 286 287 288 288 290 293 295 296 297 298 298
293 289 290 284 283 286 284 285 296 296 295 295 291 286 285 286 284 284 284 285 284 285 285 284 284 284 284 284 284 285 285 284 285 284 285 286 284 286 286 286 286 286 286 288 288 288 289 289 290